<?xml version="1.0" encoding="UTF-8" standalone="no" ?>
<gpx xmlns="http://www.topografix.com/GPX/1/1" xmlns:xsi="http://www.w3.org/2001/XMLSchema-instance" xsi:schemaLocation="http://www.topografix.com/GPX/1/1 http://www.topografix.com/GPX/1/1/gpx.xsd" version="1.1" creator="VisuGPX - https://www.visugpx.com">
  <metadata>
    <name>130210 - WE Ski Les Coches</name>
    <desc><![CDATA[Une belle journée de ski, par temps frais...]]></desc>
  </metadata>
  <trk>
    <name><![CDATA[130210 - WE Ski Les Coches_1]]></name>
    <trkseg>
      <trkpt lat="45.55452" lon="6.72857">
        <ele>1376</ele>
        <time>2013-02-10T08:00:58Z</time>
      </trkpt>
      <trkpt lat="45.55452" lon="6.72857">
        <ele>1376</ele>
        <time>2013-02-10T08:07:16Z</time>
      </trkpt>
      <trkpt lat="45.55455" lon="6.72829">
        <ele>1375</ele>
        <time>2013-02-10T08:08:09Z</time>
      </trkpt>
      <trkpt lat="45.55408" lon="6.72811">
        <ele>1393</ele>
        <time>2013-02-10T08:08:23Z</time>
      </trkpt>
      <trkpt lat="45.55379" lon="6.72803">
        <ele>1399</ele>
        <time>2013-02-10T08:08:30Z</time>
      </trkpt>
      <trkpt lat="45.55357" lon="6.72795">
        <ele>1402</ele>
        <time>2013-02-10T08:08:35Z</time>
      </trkpt>
      <trkpt lat="45.55337" lon="6.72788">
        <ele>1404</ele>
        <time>2013-02-10T08:08:40Z</time>
      </trkpt>
      <trkpt lat="45.5531" lon="6.72778">
        <ele>1427</ele>
        <time>2013-02-10T08:08:46Z</time>
      </trkpt>
      <trkpt lat="45.55283" lon="6.7277">
        <ele>1433</ele>
        <time>2013-02-10T08:08:52Z</time>
      </trkpt>
      <trkpt lat="45.55262" lon="6.72763">
        <ele>1439</ele>
        <time>2013-02-10T08:08:57Z</time>
      </trkpt>
      <trkpt lat="45.55241" lon="6.72756">
        <ele>1452</ele>
        <time>2013-02-10T08:09:02Z</time>
      </trkpt>
      <trkpt lat="45.55219" lon="6.72749">
        <ele>1457</ele>
        <time>2013-02-10T08:09:07Z</time>
      </trkpt>
      <trkpt lat="45.55206" lon="6.72744">
        <ele>1461</ele>
        <time>2013-02-10T08:09:10Z</time>
      </trkpt>
      <trkpt lat="45.55179" lon="6.72735">
        <ele>1467</ele>
        <time>2013-02-10T08:09:16Z</time>
      </trkpt>
      <trkpt lat="45.55153" lon="6.72726">
        <ele>1481</ele>
        <time>2013-02-10T08:09:22Z</time>
      </trkpt>
      <trkpt lat="45.55131" lon="6.72719">
        <ele>1484</ele>
        <time>2013-02-10T08:09:27Z</time>
      </trkpt>
      <trkpt lat="45.55118" lon="6.72714">
        <ele>1486</ele>
        <time>2013-02-10T08:09:30Z</time>
      </trkpt>
      <trkpt lat="45.55095" lon="6.72706">
        <ele>1488</ele>
        <time>2013-02-10T08:09:35Z</time>
      </trkpt>
      <trkpt lat="45.55066" lon="6.72694">
        <ele>1507</ele>
        <time>2013-02-10T08:09:41Z</time>
      </trkpt>
      <trkpt lat="45.55032" lon="6.72689">
        <ele>1514</ele>
        <time>2013-02-10T08:09:49Z</time>
      </trkpt>
      <trkpt lat="45.55013" lon="6.72678">
        <ele>1520</ele>
        <time>2013-02-10T08:09:54Z</time>
      </trkpt>
      <trkpt lat="45.54982" lon="6.72666">
        <ele>1539</ele>
        <time>2013-02-10T08:10:01Z</time>
      </trkpt>
      <trkpt lat="45.54962" lon="6.72661">
        <ele>1547</ele>
        <time>2013-02-10T08:10:05Z</time>
      </trkpt>
      <trkpt lat="45.5494" lon="6.72653">
        <ele>1555</ele>
        <time>2013-02-10T08:10:10Z</time>
      </trkpt>
      <trkpt lat="45.54913" lon="6.72644">
        <ele>1582</ele>
        <time>2013-02-10T08:10:16Z</time>
      </trkpt>
      <trkpt lat="45.54889" lon="6.72634">
        <ele>1589</ele>
        <time>2013-02-10T08:10:22Z</time>
      </trkpt>
      <trkpt lat="45.54863" lon="6.72626">
        <ele>1596</ele>
        <time>2013-02-10T08:10:28Z</time>
      </trkpt>
      <trkpt lat="45.54839" lon="6.72617">
        <ele>1601</ele>
        <time>2013-02-10T08:10:34Z</time>
      </trkpt>
      <trkpt lat="45.54815" lon="6.72608">
        <ele>1629</ele>
        <time>2013-02-10T08:10:40Z</time>
      </trkpt>
      <trkpt lat="45.5479" lon="6.72599">
        <ele>1636</ele>
        <time>2013-02-10T08:10:46Z</time>
      </trkpt>
      <trkpt lat="45.54763" lon="6.7259">
        <ele>1647</ele>
        <time>2013-02-10T08:10:52Z</time>
      </trkpt>
      <trkpt lat="45.5474" lon="6.72582">
        <ele>1662</ele>
        <time>2013-02-10T08:10:58Z</time>
      </trkpt>
      <trkpt lat="45.54716" lon="6.72575">
        <ele>1670</ele>
        <time>2013-02-10T08:11:03Z</time>
      </trkpt>
      <trkpt lat="45.54695" lon="6.72567">
        <ele>1675</ele>
        <time>2013-02-10T08:11:08Z</time>
      </trkpt>
      <trkpt lat="45.54668" lon="6.72556">
        <ele>1678</ele>
        <time>2013-02-10T08:11:14Z</time>
      </trkpt>
      <trkpt lat="45.54645" lon="6.72545">
        <ele>1694</ele>
        <time>2013-02-10T08:11:20Z</time>
      </trkpt>
      <trkpt lat="45.54635" lon="6.72546">
        <ele>1695</ele>
        <time>2013-02-10T08:11:25Z</time>
      </trkpt>
      <trkpt lat="45.54635" lon="6.72546">
        <ele>1695</ele>
        <time>2013-02-10T08:11:30Z</time>
      </trkpt>
      <trkpt lat="45.54635" lon="6.72546">
        <ele>1695</ele>
        <time>2013-02-10T08:13:35Z</time>
      </trkpt>
      <trkpt lat="45.54606" lon="6.72538">
        <ele>1698</ele>
        <time>2013-02-10T08:13:35Z</time>
      </trkpt>
      <trkpt lat="45.54575" lon="6.72526">
        <ele>1712</ele>
        <time>2013-02-10T08:13:46Z</time>
      </trkpt>
      <trkpt lat="45.54543" lon="6.72516">
        <ele>1716</ele>
        <time>2013-02-10T08:13:53Z</time>
      </trkpt>
      <trkpt lat="45.54517" lon="6.72507">
        <ele>1721</ele>
        <time>2013-02-10T08:13:59Z</time>
      </trkpt>
      <trkpt lat="45.54485" lon="6.72496">
        <ele>1730</ele>
        <time>2013-02-10T08:14:06Z</time>
      </trkpt>
      <trkpt lat="45.54453" lon="6.72482">
        <ele>1735</ele>
        <time>2013-02-10T08:14:13Z</time>
      </trkpt>
      <trkpt lat="45.54428" lon="6.72473">
        <ele>1738</ele>
        <time>2013-02-10T08:14:19Z</time>
      </trkpt>
      <trkpt lat="45.54401" lon="6.72467">
        <ele>1752</ele>
        <time>2013-02-10T08:14:25Z</time>
      </trkpt>
      <trkpt lat="45.54379" lon="6.72459">
        <ele>1754</ele>
        <time>2013-02-10T08:14:31Z</time>
      </trkpt>
      <trkpt lat="45.54362" lon="6.72453">
        <ele>1757</ele>
        <time>2013-02-10T08:14:38Z</time>
      </trkpt>
      <trkpt lat="45.54345" lon="6.72447">
        <ele>1758</ele>
        <time>2013-02-10T08:14:43Z</time>
      </trkpt>
      <trkpt lat="45.54333" lon="6.72442">
        <ele>1773</ele>
        <time>2013-02-10T08:14:46Z</time>
      </trkpt>
      <trkpt lat="45.54319" lon="6.72437">
        <ele>1774</ele>
        <time>2013-02-10T08:14:49Z</time>
      </trkpt>
      <trkpt lat="45.5429" lon="6.7243">
        <ele>1781</ele>
        <time>2013-02-10T08:14:56Z</time>
      </trkpt>
      <trkpt lat="45.54261" lon="6.72422">
        <ele>1791</ele>
        <time>2013-02-10T08:15:03Z</time>
      </trkpt>
      <trkpt lat="45.54237" lon="6.72411">
        <ele>1803</ele>
        <time>2013-02-10T08:15:08Z</time>
      </trkpt>
      <trkpt lat="45.5421" lon="6.72401">
        <ele>1810</ele>
        <time>2013-02-10T08:15:14Z</time>
      </trkpt>
      <trkpt lat="45.54175" lon="6.72386">
        <ele>1814</ele>
        <time>2013-02-10T08:15:22Z</time>
      </trkpt>
      <trkpt lat="45.54152" lon="6.72379">
        <ele>1829</ele>
        <time>2013-02-10T08:15:27Z</time>
      </trkpt>
      <trkpt lat="45.54134" lon="6.72373">
        <ele>1831</ele>
        <time>2013-02-10T08:15:31Z</time>
      </trkpt>
      <trkpt lat="45.54117" lon="6.72364">
        <ele>1833</ele>
        <time>2013-02-10T08:15:35Z</time>
      </trkpt>
      <trkpt lat="45.54091" lon="6.7235">
        <ele>1838</ele>
        <time>2013-02-10T08:15:40Z</time>
      </trkpt>
      <trkpt lat="45.54077" lon="6.72345">
        <ele>1848</ele>
        <time>2013-02-10T08:15:43Z</time>
      </trkpt>
      <trkpt lat="45.5406" lon="6.72341">
        <ele>1851</ele>
        <time>2013-02-10T08:15:47Z</time>
      </trkpt>
      <trkpt lat="45.5404" lon="6.72338">
        <ele>1856</ele>
        <time>2013-02-10T08:15:52Z</time>
      </trkpt>
      <trkpt lat="45.54014" lon="6.72328">
        <ele>1866</ele>
        <time>2013-02-10T08:15:58Z</time>
      </trkpt>
      <trkpt lat="45.53992" lon="6.72322">
        <ele>1875</ele>
        <time>2013-02-10T08:16:03Z</time>
      </trkpt>
      <trkpt lat="45.53965" lon="6.72312">
        <ele>1879</ele>
        <time>2013-02-10T08:16:10Z</time>
      </trkpt>
      <trkpt lat="45.53954" lon="6.72316">
        <ele>1880</ele>
        <time>2013-02-10T08:16:16Z</time>
      </trkpt>
      <trkpt lat="45.5394" lon="6.72325">
        <ele>1881</ele>
        <time>2013-02-10T08:16:27Z</time>
      </trkpt>
      <trkpt lat="45.53943" lon="6.72347">
        <ele>1879</ele>
        <time>2013-02-10T08:16:42Z</time>
      </trkpt>
      <trkpt lat="45.5394" lon="6.72372">
        <ele>1879</ele>
        <time>2013-02-10T08:17:00Z</time>
      </trkpt>
      <trkpt lat="45.53949" lon="6.72412">
        <ele>1878</ele>
        <time>2013-02-10T08:17:09Z</time>
      </trkpt>
      <trkpt lat="45.53963" lon="6.7248">
        <ele>1872</ele>
        <time>2013-02-10T08:17:15Z</time>
      </trkpt>
      <trkpt lat="45.53985" lon="6.7253">
        <ele>1871</ele>
        <time>2013-02-10T08:17:20Z</time>
      </trkpt>
      <trkpt lat="45.54026" lon="6.72562">
        <ele>1856</ele>
        <time>2013-02-10T08:17:25Z</time>
      </trkpt>
      <trkpt lat="45.54051" lon="6.72561">
        <ele>1853</ele>
        <time>2013-02-10T08:17:28Z</time>
      </trkpt>
      <trkpt lat="45.54094" lon="6.72555">
        <ele>1838</ele>
        <time>2013-02-10T08:17:34Z</time>
      </trkpt>
      <trkpt lat="45.54176" lon="6.72602">
        <ele>1814</ele>
        <time>2013-02-10T08:17:42Z</time>
      </trkpt>
      <trkpt lat="45.5422" lon="6.72619">
        <ele>1806</ele>
        <time>2013-02-10T08:17:47Z</time>
      </trkpt>
      <trkpt lat="45.54246" lon="6.72609">
        <ele>1801</ele>
        <time>2013-02-10T08:17:50Z</time>
      </trkpt>
      <trkpt lat="45.54289" lon="6.72676">
        <ele>1786</ele>
        <time>2013-02-10T08:17:56Z</time>
      </trkpt>
      <trkpt lat="45.54314" lon="6.72748">
        <ele>1779</ele>
        <time>2013-02-10T08:18:02Z</time>
      </trkpt>
      <trkpt lat="45.54343" lon="6.72793">
        <ele>1766</ele>
        <time>2013-02-10T08:18:08Z</time>
      </trkpt>
      <trkpt lat="45.54361" lon="6.72809">
        <ele>1765</ele>
        <time>2013-02-10T08:18:11Z</time>
      </trkpt>
      <trkpt lat="45.54386" lon="6.72848">
        <ele>1763</ele>
        <time>2013-02-10T08:18:16Z</time>
      </trkpt>
      <trkpt lat="45.54426" lon="6.72819">
        <ele>1744</ele>
        <time>2013-02-10T08:18:21Z</time>
      </trkpt>
      <trkpt lat="45.54489" lon="6.72785">
        <ele>1731</ele>
        <time>2013-02-10T08:18:27Z</time>
      </trkpt>
      <trkpt lat="45.54527" lon="6.7283">
        <ele>1714</ele>
        <time>2013-02-10T08:18:32Z</time>
      </trkpt>
      <trkpt lat="45.54565" lon="6.72894">
        <ele>1702</ele>
        <time>2013-02-10T08:18:37Z</time>
      </trkpt>
      <trkpt lat="45.5456" lon="6.72961">
        <ele>1696</ele>
        <time>2013-02-10T08:18:42Z</time>
      </trkpt>
      <trkpt lat="45.54594" lon="6.73047">
        <ele>1674</ele>
        <time>2013-02-10T08:18:49Z</time>
      </trkpt>
      <trkpt lat="45.54639" lon="6.7312">
        <ele>1663</ele>
        <time>2013-02-10T08:18:55Z</time>
      </trkpt>
      <trkpt lat="45.54643" lon="6.73169">
        <ele>1656</ele>
        <time>2013-02-10T08:19:01Z</time>
      </trkpt>
      <trkpt lat="45.54653" lon="6.73219">
        <ele>1654</ele>
        <time>2013-02-10T08:19:08Z</time>
      </trkpt>
      <trkpt lat="45.54685" lon="6.73283">
        <ele>1636</ele>
        <time>2013-02-10T08:19:14Z</time>
      </trkpt>
      <trkpt lat="45.54716" lon="6.7335">
        <ele>1627</ele>
        <time>2013-02-10T08:19:20Z</time>
      </trkpt>
      <trkpt lat="45.54698" lon="6.73433">
        <ele>1634</ele>
        <time>2013-02-10T08:19:25Z</time>
      </trkpt>
      <trkpt lat="45.54712" lon="6.73464">
        <ele>1630</ele>
        <time>2013-02-10T08:19:28Z</time>
      </trkpt>
      <trkpt lat="45.54733" lon="6.73521">
        <ele>1627</ele>
        <time>2013-02-10T08:19:33Z</time>
      </trkpt>
      <trkpt lat="45.54755" lon="6.73595">
        <ele>1606</ele>
        <time>2013-02-10T08:19:39Z</time>
      </trkpt>
      <trkpt lat="45.54776" lon="6.73661">
        <ele>1602</ele>
        <time>2013-02-10T08:19:45Z</time>
      </trkpt>
      <trkpt lat="45.54787" lon="6.73698">
        <ele>1603</ele>
        <time>2013-02-10T08:19:48Z</time>
      </trkpt>
      <trkpt lat="45.54804" lon="6.73753">
        <ele>1604</ele>
        <time>2013-02-10T08:19:53Z</time>
      </trkpt>
      <trkpt lat="45.54821" lon="6.73779">
        <ele>1603</ele>
        <time>2013-02-10T08:19:56Z</time>
      </trkpt>
      <trkpt lat="45.5485" lon="6.73814">
        <ele>1578</ele>
        <time>2013-02-10T08:20:01Z</time>
      </trkpt>
      <trkpt lat="45.54855" lon="6.73862">
        <ele>1577</ele>
        <time>2013-02-10T08:20:06Z</time>
      </trkpt>
      <trkpt lat="45.54854" lon="6.73903">
        <ele>1577</ele>
        <time>2013-02-10T08:20:11Z</time>
      </trkpt>
      <trkpt lat="45.54859" lon="6.73968">
        <ele>1566</ele>
        <time>2013-02-10T08:20:17Z</time>
      </trkpt>
      <trkpt lat="45.54914" lon="6.73934">
        <ele>1556</ele>
        <time>2013-02-10T08:20:23Z</time>
      </trkpt>
      <trkpt lat="45.54925" lon="6.7389">
        <ele>1544</ele>
        <time>2013-02-10T08:20:28Z</time>
      </trkpt>
      <trkpt lat="45.54925" lon="6.7389">
        <ele>1544</ele>
        <time>2013-02-10T08:20:34Z</time>
      </trkpt>
      <trkpt lat="45.54925" lon="6.7389">
        <ele>1544</ele>
        <time>2013-02-10T08:20:34Z</time>
      </trkpt>
      <trkpt lat="45.54925" lon="6.7389">
        <ele>1544</ele>
        <time>2013-02-10T08:21:17Z</time>
      </trkpt>
      <trkpt lat="45.54931" lon="6.7392">
        <ele>1543</ele>
        <time>2013-02-10T08:21:17Z</time>
      </trkpt>
      <trkpt lat="45.5494" lon="6.73956">
        <ele>1536</ele>
        <time>2013-02-10T08:24:59Z</time>
      </trkpt>
      <trkpt lat="45.54944" lon="6.73979">
        <ele>1534</ele>
        <time>2013-02-10T08:25:05Z</time>
      </trkpt>
      <trkpt lat="45.54947" lon="6.74018">
        <ele>1523</ele>
        <time>2013-02-10T08:25:10Z</time>
      </trkpt>
      <trkpt lat="45.5496" lon="6.74084">
        <ele>1502</ele>
        <time>2013-02-10T08:25:16Z</time>
      </trkpt>
      <trkpt lat="45.5496" lon="6.74149">
        <ele>1495</ele>
        <time>2013-02-10T08:25:21Z</time>
      </trkpt>
      <trkpt lat="45.54963" lon="6.74209">
        <ele>1474</ele>
        <time>2013-02-10T08:25:26Z</time>
      </trkpt>
      <trkpt lat="45.54968" lon="6.74261">
        <ele>1449</ele>
        <time>2013-02-10T08:25:30Z</time>
      </trkpt>
      <trkpt lat="45.54971" lon="6.74326">
        <ele>1436</ele>
        <time>2013-02-10T08:25:35Z</time>
      </trkpt>
      <trkpt lat="45.54975" lon="6.74399">
        <ele>1390</ele>
        <time>2013-02-10T08:25:41Z</time>
      </trkpt>
      <trkpt lat="45.5498" lon="6.74475">
        <ele>1326</ele>
        <time>2013-02-10T08:25:47Z</time>
      </trkpt>
      <trkpt lat="45.54987" lon="6.74551">
        <ele>1260</ele>
        <time>2013-02-10T08:25:53Z</time>
      </trkpt>
      <trkpt lat="45.54994" lon="6.74616">
        <ele>1207</ele>
        <time>2013-02-10T08:25:58Z</time>
      </trkpt>
      <trkpt lat="45.54996" lon="6.74654">
        <ele>1181</ele>
        <time>2013-02-10T08:26:01Z</time>
      </trkpt>
      <trkpt lat="45.54999" lon="6.74692">
        <ele>1155</ele>
        <time>2013-02-10T08:26:04Z</time>
      </trkpt>
      <trkpt lat="45.55004" lon="6.74768">
        <ele>1118</ele>
        <time>2013-02-10T08:26:10Z</time>
      </trkpt>
      <trkpt lat="45.5501" lon="6.74845">
        <ele>1128</ele>
        <time>2013-02-10T08:26:16Z</time>
      </trkpt>
      <trkpt lat="45.55013" lon="6.74883">
        <ele>1139</ele>
        <time>2013-02-10T08:26:19Z</time>
      </trkpt>
      <trkpt lat="45.55018" lon="6.74948">
        <ele>1164</ele>
        <time>2013-02-10T08:26:24Z</time>
      </trkpt>
      <trkpt lat="45.55023" lon="6.75023">
        <ele>1196</ele>
        <time>2013-02-10T08:26:30Z</time>
      </trkpt>
      <trkpt lat="45.55029" lon="6.75074">
        <ele>1207</ele>
        <time>2013-02-10T08:26:34Z</time>
      </trkpt>
      <trkpt lat="45.55033" lon="6.75138">
        <ele>1232</ele>
        <time>2013-02-10T08:26:39Z</time>
      </trkpt>
      <trkpt lat="45.55038" lon="6.75251">
        <ele>1274</ele>
        <time>2013-02-10T08:26:48Z</time>
      </trkpt>
      <trkpt lat="45.55041" lon="6.75317">
        <ele>1281</ele>
        <time>2013-02-10T08:26:53Z</time>
      </trkpt>
      <trkpt lat="45.55035" lon="6.75382">
        <ele>1299</ele>
        <time>2013-02-10T08:26:58Z</time>
      </trkpt>
      <trkpt lat="45.55045" lon="6.75456">
        <ele>1317</ele>
        <time>2013-02-10T08:27:04Z</time>
      </trkpt>
      <trkpt lat="45.55044" lon="6.75498">
        <ele>1321</ele>
        <time>2013-02-10T08:27:07Z</time>
      </trkpt>
      <trkpt lat="45.55054" lon="6.75572">
        <ele>1349</ele>
        <time>2013-02-10T08:27:13Z</time>
      </trkpt>
      <trkpt lat="45.5506" lon="6.75609">
        <ele>1372</ele>
        <time>2013-02-10T08:27:16Z</time>
      </trkpt>
      <trkpt lat="45.55074" lon="6.75682">
        <ele>1398</ele>
        <time>2013-02-10T08:27:22Z</time>
      </trkpt>
      <trkpt lat="45.55078" lon="6.75759">
        <ele>1426</ele>
        <time>2013-02-10T08:27:28Z</time>
      </trkpt>
      <trkpt lat="45.55088" lon="6.75836">
        <ele>1451</ele>
        <time>2013-02-10T08:27:34Z</time>
      </trkpt>
      <trkpt lat="45.55091" lon="6.75915">
        <ele>1476</ele>
        <time>2013-02-10T08:27:40Z</time>
      </trkpt>
      <trkpt lat="45.55098" lon="6.75988">
        <ele>1501</ele>
        <time>2013-02-10T08:27:46Z</time>
      </trkpt>
      <trkpt lat="45.55103" lon="6.7606">
        <ele>1527</ele>
        <time>2013-02-10T08:27:52Z</time>
      </trkpt>
      <trkpt lat="45.55103" lon="6.7613">
        <ele>1550</ele>
        <time>2013-02-10T08:27:58Z</time>
      </trkpt>
      <trkpt lat="45.5511" lon="6.76191">
        <ele>1571</ele>
        <time>2013-02-10T08:28:03Z</time>
      </trkpt>
      <trkpt lat="45.55114" lon="6.76243">
        <ele>1579</ele>
        <time>2013-02-10T08:28:09Z</time>
      </trkpt>
      <trkpt lat="45.55113" lon="6.76275">
        <ele>1595</ele>
        <time>2013-02-10T08:28:18Z</time>
      </trkpt>
      <trkpt lat="45.55116" lon="6.76287">
        <ele>1597</ele>
        <time>2013-02-10T08:28:27Z</time>
      </trkpt>
      <trkpt lat="45.55119" lon="6.7633">
        <ele>1601</ele>
        <time>2013-02-10T08:30:02Z</time>
      </trkpt>
      <trkpt lat="45.55121" lon="6.76363">
        <ele>1614</ele>
        <time>2013-02-10T08:30:22Z</time>
      </trkpt>
      <trkpt lat="45.55109" lon="6.76367">
        <ele>1615</ele>
        <time>2013-02-10T08:30:33Z</time>
      </trkpt>
      <trkpt lat="45.55101" lon="6.76366">
        <ele>1615</ele>
        <time>2013-02-10T08:30:41Z</time>
      </trkpt>
      <trkpt lat="45.55101" lon="6.76366">
        <ele>1615</ele>
        <time>2013-02-10T08:30:49Z</time>
      </trkpt>
      <trkpt lat="45.55101" lon="6.76366">
        <ele>1615</ele>
        <time>2013-02-10T08:33:59Z</time>
      </trkpt>
      <trkpt lat="45.55072" lon="6.76342">
        <ele>1613</ele>
        <time>2013-02-10T08:33:59Z</time>
      </trkpt>
      <trkpt lat="45.55068" lon="6.76366">
        <ele>1617</ele>
        <time>2013-02-10T08:34:10Z</time>
      </trkpt>
      <trkpt lat="45.55063" lon="6.76407">
        <ele>1621</ele>
        <time>2013-02-10T08:34:18Z</time>
      </trkpt>
      <trkpt lat="45.55056" lon="6.76442">
        <ele>1634</ele>
        <time>2013-02-10T08:34:25Z</time>
      </trkpt>
      <trkpt lat="45.55053" lon="6.76464">
        <ele>1637</ele>
        <time>2013-02-10T08:34:30Z</time>
      </trkpt>
      <trkpt lat="45.55052" lon="6.76496">
        <ele>1640</ele>
        <time>2013-02-10T08:34:36Z</time>
      </trkpt>
      <trkpt lat="45.55048" lon="6.76521">
        <ele>1652</ele>
        <time>2013-02-10T08:34:41Z</time>
      </trkpt>
      <trkpt lat="45.55043" lon="6.76551">
        <ele>1655</ele>
        <time>2013-02-10T08:34:47Z</time>
      </trkpt>
      <trkpt lat="45.55039" lon="6.76585">
        <ele>1668</ele>
        <time>2013-02-10T08:34:54Z</time>
      </trkpt>
      <trkpt lat="45.55031" lon="6.76614">
        <ele>1670</ele>
        <time>2013-02-10T08:35:02Z</time>
      </trkpt>
      <trkpt lat="45.55027" lon="6.76639">
        <ele>1672</ele>
        <time>2013-02-10T08:35:08Z</time>
      </trkpt>
      <trkpt lat="45.55021" lon="6.76685">
        <ele>1687</ele>
        <time>2013-02-10T08:35:15Z</time>
      </trkpt>
      <trkpt lat="45.55015" lon="6.76713">
        <ele>1692</ele>
        <time>2013-02-10T08:35:21Z</time>
      </trkpt>
      <trkpt lat="45.55009" lon="6.76752">
        <ele>1705</ele>
        <time>2013-02-10T08:35:29Z</time>
      </trkpt>
      <trkpt lat="45.55005" lon="6.76791">
        <ele>1715</ele>
        <time>2013-02-10T08:35:37Z</time>
      </trkpt>
      <trkpt lat="45.55002" lon="6.76814">
        <ele>1721</ele>
        <time>2013-02-10T08:35:42Z</time>
      </trkpt>
      <trkpt lat="45.54997" lon="6.76844">
        <ele>1729</ele>
        <time>2013-02-10T08:35:49Z</time>
      </trkpt>
      <trkpt lat="45.54991" lon="6.7688">
        <ele>1737</ele>
        <time>2013-02-10T08:35:56Z</time>
      </trkpt>
      <trkpt lat="45.54986" lon="6.76908">
        <ele>1744</ele>
        <time>2013-02-10T08:36:02Z</time>
      </trkpt>
      <trkpt lat="45.54983" lon="6.76936">
        <ele>1760</ele>
        <time>2013-02-10T08:36:07Z</time>
      </trkpt>
      <trkpt lat="45.54983" lon="6.76973">
        <ele>1770</ele>
        <time>2013-02-10T08:36:14Z</time>
      </trkpt>
      <trkpt lat="45.54986" lon="6.77011">
        <ele>1792</ele>
        <time>2013-02-10T08:36:21Z</time>
      </trkpt>
      <trkpt lat="45.54986" lon="6.77058">
        <ele>1801</ele>
        <time>2013-02-10T08:36:27Z</time>
      </trkpt>
      <trkpt lat="45.5498" lon="6.77078">
        <ele>1805</ele>
        <time>2013-02-10T08:36:32Z</time>
      </trkpt>
      <trkpt lat="45.54973" lon="6.77099">
        <ele>1821</ele>
        <time>2013-02-10T08:36:38Z</time>
      </trkpt>
      <trkpt lat="45.54975" lon="6.77153">
        <ele>1831</ele>
        <time>2013-02-10T08:36:46Z</time>
      </trkpt>
      <trkpt lat="45.54977" lon="6.77192">
        <ele>1850</ele>
        <time>2013-02-10T08:36:52Z</time>
      </trkpt>
      <trkpt lat="45.5497" lon="6.77226">
        <ele>1855</ele>
        <time>2013-02-10T08:37:00Z</time>
      </trkpt>
      <trkpt lat="45.54958" lon="6.77249">
        <ele>1856</ele>
        <time>2013-02-10T08:37:09Z</time>
      </trkpt>
      <trkpt lat="45.54947" lon="6.77266">
        <ele>1871</ele>
        <time>2013-02-10T08:37:16Z</time>
      </trkpt>
      <trkpt lat="45.5494" lon="6.7729">
        <ele>1875</ele>
        <time>2013-02-10T08:37:21Z</time>
      </trkpt>
      <trkpt lat="45.54935" lon="6.77324">
        <ele>1880</ele>
        <time>2013-02-10T08:37:28Z</time>
      </trkpt>
      <trkpt lat="45.54923" lon="6.77337">
        <ele>1888</ele>
        <time>2013-02-10T08:37:34Z</time>
      </trkpt>
      <trkpt lat="45.54915" lon="6.77368">
        <ele>1891</ele>
        <time>2013-02-10T08:37:40Z</time>
      </trkpt>
      <trkpt lat="45.54911" lon="6.77388">
        <ele>1895</ele>
        <time>2013-02-10T08:37:45Z</time>
      </trkpt>
      <trkpt lat="45.54905" lon="6.77419">
        <ele>1907</ele>
        <time>2013-02-10T08:37:51Z</time>
      </trkpt>
      <trkpt lat="45.549" lon="6.77447">
        <ele>1910</ele>
        <time>2013-02-10T08:37:56Z</time>
      </trkpt>
      <trkpt lat="45.54896" lon="6.77471">
        <ele>1913</ele>
        <time>2013-02-10T08:38:01Z</time>
      </trkpt>
      <trkpt lat="45.54891" lon="6.77504">
        <ele>1927</ele>
        <time>2013-02-10T08:38:07Z</time>
      </trkpt>
      <trkpt lat="45.54887" lon="6.77529">
        <ele>1930</ele>
        <time>2013-02-10T08:38:12Z</time>
      </trkpt>
      <trkpt lat="45.54882" lon="6.77563">
        <ele>1934</ele>
        <time>2013-02-10T08:38:19Z</time>
      </trkpt>
      <trkpt lat="45.54877" lon="6.77595">
        <ele>1952</ele>
        <time>2013-02-10T08:38:26Z</time>
      </trkpt>
      <trkpt lat="45.54871" lon="6.77629">
        <ele>1957</ele>
        <time>2013-02-10T08:38:33Z</time>
      </trkpt>
      <trkpt lat="45.54866" lon="6.77665">
        <ele>1963</ele>
        <time>2013-02-10T08:38:41Z</time>
      </trkpt>
      <trkpt lat="45.54862" lon="6.77689">
        <ele>1981</ele>
        <time>2013-02-10T08:38:46Z</time>
      </trkpt>
      <trkpt lat="45.54857" lon="6.77722">
        <ele>1987</ele>
        <time>2013-02-10T08:38:53Z</time>
      </trkpt>
      <trkpt lat="45.54852" lon="6.77755">
        <ele>2001</ele>
        <time>2013-02-10T08:39:00Z</time>
      </trkpt>
      <trkpt lat="45.54847" lon="6.77784">
        <ele>2003</ele>
        <time>2013-02-10T08:39:06Z</time>
      </trkpt>
      <trkpt lat="45.54846" lon="6.77798">
        <ele>2005</ele>
        <time>2013-02-10T08:39:09Z</time>
      </trkpt>
      <trkpt lat="45.54841" lon="6.77833">
        <ele>2013</ele>
        <time>2013-02-10T08:39:16Z</time>
      </trkpt>
      <trkpt lat="45.54837" lon="6.77858">
        <ele>2016</ele>
        <time>2013-02-10T08:39:21Z</time>
      </trkpt>
      <trkpt lat="45.54832" lon="6.77892">
        <ele>2021</ele>
        <time>2013-02-10T08:39:28Z</time>
      </trkpt>
      <trkpt lat="45.54826" lon="6.77927">
        <ele>2025</ele>
        <time>2013-02-10T08:39:35Z</time>
      </trkpt>
      <trkpt lat="45.54822" lon="6.77953">
        <ele>2027</ele>
        <time>2013-02-10T08:39:41Z</time>
      </trkpt>
      <trkpt lat="45.54819" lon="6.77982">
        <ele>2029</ele>
        <time>2013-02-10T08:39:46Z</time>
      </trkpt>
      <trkpt lat="45.54813" lon="6.78014">
        <ele>2036</ele>
        <time>2013-02-10T08:39:52Z</time>
      </trkpt>
      <trkpt lat="45.54809" lon="6.78038">
        <ele>2038</ele>
        <time>2013-02-10T08:39:57Z</time>
      </trkpt>
      <trkpt lat="45.54804" lon="6.7807">
        <ele>2041</ele>
        <time>2013-02-10T08:40:04Z</time>
      </trkpt>
      <trkpt lat="45.54801" lon="6.78089">
        <ele>2050</ele>
        <time>2013-02-10T08:40:09Z</time>
      </trkpt>
      <trkpt lat="45.54797" lon="6.78118">
        <ele>2052</ele>
        <time>2013-02-10T08:40:15Z</time>
      </trkpt>
      <trkpt lat="45.54791" lon="6.78158">
        <ele>2056</ele>
        <time>2013-02-10T08:40:22Z</time>
      </trkpt>
      <trkpt lat="45.54787" lon="6.78183">
        <ele>2063</ele>
        <time>2013-02-10T08:40:27Z</time>
      </trkpt>
      <trkpt lat="45.54781" lon="6.78217">
        <ele>2065</ele>
        <time>2013-02-10T08:40:34Z</time>
      </trkpt>
      <trkpt lat="45.54777" lon="6.78249">
        <ele>2067</ele>
        <time>2013-02-10T08:40:40Z</time>
      </trkpt>
      <trkpt lat="45.54772" lon="6.78279">
        <ele>2073</ele>
        <time>2013-02-10T08:40:46Z</time>
      </trkpt>
      <trkpt lat="45.54768" lon="6.78304">
        <ele>2075</ele>
        <time>2013-02-10T08:40:51Z</time>
      </trkpt>
      <trkpt lat="45.54763" lon="6.7833">
        <ele>2078</ele>
        <time>2013-02-10T08:40:57Z</time>
      </trkpt>
      <trkpt lat="45.54764" lon="6.78355">
        <ele>2083</ele>
        <time>2013-02-10T08:41:07Z</time>
      </trkpt>
      <trkpt lat="45.54782" lon="6.78362">
        <ele>2083</ele>
        <time>2013-02-10T08:41:16Z</time>
      </trkpt>
      <trkpt lat="45.54791" lon="6.78356">
        <ele>2082</ele>
        <time>2013-02-10T08:41:23Z</time>
      </trkpt>
      <trkpt lat="45.5482" lon="6.78352">
        <ele>2080</ele>
        <time>2013-02-10T08:41:41Z</time>
      </trkpt>
      <trkpt lat="45.54832" lon="6.78344">
        <ele>2078</ele>
        <time>2013-02-10T08:41:50Z</time>
      </trkpt>
      <trkpt lat="45.54832" lon="6.78344">
        <ele>2078</ele>
        <time>2013-02-10T08:41:58Z</time>
      </trkpt>
      <trkpt lat="45.54832" lon="6.78344">
        <ele>2078</ele>
        <time>2013-02-10T08:42:02Z</time>
      </trkpt>
      <trkpt lat="45.54839" lon="6.78338">
        <ele>2076</ele>
        <time>2013-02-10T08:42:02Z</time>
      </trkpt>
      <trkpt lat="45.54907" lon="6.78278">
        <ele>2063</ele>
        <time>2013-02-10T08:42:16Z</time>
      </trkpt>
      <trkpt lat="45.5497" lon="6.78186">
        <ele>2042</ele>
        <time>2013-02-10T08:42:23Z</time>
      </trkpt>
      <trkpt lat="45.55003" lon="6.78119">
        <ele>2028</ele>
        <time>2013-02-10T08:42:28Z</time>
      </trkpt>
      <trkpt lat="45.55032" lon="6.78039">
        <ele>2018</ele>
        <time>2013-02-10T08:42:34Z</time>
      </trkpt>
      <trkpt lat="45.5506" lon="6.78016">
        <ele>2015</ele>
        <time>2013-02-10T08:42:40Z</time>
      </trkpt>
      <trkpt lat="45.55077" lon="6.77981">
        <ele>2004</ele>
        <time>2013-02-10T08:42:46Z</time>
      </trkpt>
      <trkpt lat="45.55066" lon="6.77985">
        <ele>2005</ele>
        <time>2013-02-10T08:42:51Z</time>
      </trkpt>
      <trkpt lat="45.55066" lon="6.77985">
        <ele>2005</ele>
        <time>2013-02-10T08:42:57Z</time>
      </trkpt>
      <trkpt lat="45.55066" lon="6.77985">
        <ele>2005</ele>
        <time>2013-02-10T08:43:03Z</time>
      </trkpt>
      <trkpt lat="45.55083" lon="6.7799">
        <ele>2006</ele>
        <time>2013-02-10T08:43:03Z</time>
      </trkpt>
      <trkpt lat="45.55119" lon="6.77989">
        <ele>1995</ele>
        <time>2013-02-10T08:43:10Z</time>
      </trkpt>
      <trkpt lat="45.5516" lon="6.77997">
        <ele>1994</ele>
        <time>2013-02-10T08:43:15Z</time>
      </trkpt>
      <trkpt lat="45.55198" lon="6.78005">
        <ele>1996</ele>
        <time>2013-02-10T08:43:21Z</time>
      </trkpt>
      <trkpt lat="45.55224" lon="6.77981">
        <ele>1981</ele>
        <time>2013-02-10T08:43:27Z</time>
      </trkpt>
      <trkpt lat="45.55233" lon="6.77914">
        <ele>1963</ele>
        <time>2013-02-10T08:43:33Z</time>
      </trkpt>
      <trkpt lat="45.55253" lon="6.77833">
        <ele>1948</ele>
        <time>2013-02-10T08:43:38Z</time>
      </trkpt>
      <trkpt lat="45.55316" lon="6.77755">
        <ele>1931</ele>
        <time>2013-02-10T08:43:44Z</time>
      </trkpt>
      <trkpt lat="45.55367" lon="6.77688">
        <ele>1911</ele>
        <time>2013-02-10T08:43:49Z</time>
      </trkpt>
      <trkpt lat="45.5542" lon="6.776">
        <ele>1890</ele>
        <time>2013-02-10T08:43:56Z</time>
      </trkpt>
      <trkpt lat="45.55444" lon="6.77529">
        <ele>1876</ele>
        <time>2013-02-10T08:44:01Z</time>
      </trkpt>
      <trkpt lat="45.5546" lon="6.77443">
        <ele>1857</ele>
        <time>2013-02-10T08:44:07Z</time>
      </trkpt>
      <trkpt lat="45.55478" lon="6.77364">
        <ele>1836</ele>
        <time>2013-02-10T08:44:12Z</time>
      </trkpt>
      <trkpt lat="45.55496" lon="6.7731">
        <ele>1819</ele>
        <time>2013-02-10T08:44:18Z</time>
      </trkpt>
      <trkpt lat="45.55525" lon="6.77245">
        <ele>1790</ele>
        <time>2013-02-10T08:44:24Z</time>
      </trkpt>
      <trkpt lat="45.55559" lon="6.77176">
        <ele>1778</ele>
        <time>2013-02-10T08:44:30Z</time>
      </trkpt>
      <trkpt lat="45.55586" lon="6.77093">
        <ele>1748</ele>
        <time>2013-02-10T08:44:36Z</time>
      </trkpt>
      <trkpt lat="45.55603" lon="6.76997">
        <ele>1721</ele>
        <time>2013-02-10T08:44:43Z</time>
      </trkpt>
      <trkpt lat="45.55572" lon="6.76929">
        <ele>1711</ele>
        <time>2013-02-10T08:44:49Z</time>
      </trkpt>
      <trkpt lat="45.55566" lon="6.76846">
        <ele>1690</ele>
        <time>2013-02-10T08:44:54Z</time>
      </trkpt>
      <trkpt lat="45.55545" lon="6.76765">
        <ele>1672</ele>
        <time>2013-02-10T08:45:00Z</time>
      </trkpt>
      <trkpt lat="45.55544" lon="6.76719">
        <ele>1656</ele>
        <time>2013-02-10T08:45:03Z</time>
      </trkpt>
      <trkpt lat="45.55577" lon="6.76626">
        <ele>1635</ele>
        <time>2013-02-10T08:45:09Z</time>
      </trkpt>
      <trkpt lat="45.55625" lon="6.76543">
        <ele>1615</ele>
        <time>2013-02-10T08:45:15Z</time>
      </trkpt>
      <trkpt lat="45.55597" lon="6.76475">
        <ele>1603</ele>
        <time>2013-02-10T08:45:20Z</time>
      </trkpt>
      <trkpt lat="45.55569" lon="6.76476">
        <ele>1607</ele>
        <time>2013-02-10T08:45:26Z</time>
      </trkpt>
      <trkpt lat="45.55559" lon="6.76491">
        <ele>1608</ele>
        <time>2013-02-10T08:45:37Z</time>
      </trkpt>
      <trkpt lat="45.55558" lon="6.76497">
        <ele>1609</ele>
        <time>2013-02-10T08:45:41Z</time>
      </trkpt>
      <trkpt lat="45.55558" lon="6.76497">
        <ele>1609</ele>
        <time>2013-02-10T08:45:47Z</time>
      </trkpt>
      <trkpt lat="45.55558" lon="6.76497">
        <ele>1609</ele>
        <time>2013-02-10T08:45:57Z</time>
      </trkpt>
      <trkpt lat="45.55539" lon="6.76535">
        <ele>1620</ele>
        <time>2013-02-10T08:45:57Z</time>
      </trkpt>
      <trkpt lat="45.55534" lon="6.7657">
        <ele>1624</ele>
        <time>2013-02-10T08:46:03Z</time>
      </trkpt>
      <trkpt lat="45.55525" lon="6.766">
        <ele>1635</ele>
        <time>2013-02-10T08:46:09Z</time>
      </trkpt>
      <trkpt lat="45.55513" lon="6.76636">
        <ele>1639</ele>
        <time>2013-02-10T08:46:17Z</time>
      </trkpt>
      <trkpt lat="45.55507" lon="6.7666">
        <ele>1645</ele>
        <time>2013-02-10T08:46:23Z</time>
      </trkpt>
      <trkpt lat="45.55499" lon="6.76693">
        <ele>1664</ele>
        <time>2013-02-10T08:46:29Z</time>
      </trkpt>
      <trkpt lat="45.55489" lon="6.76721">
        <ele>1670</ele>
        <time>2013-02-10T08:46:35Z</time>
      </trkpt>
      <trkpt lat="45.5548" lon="6.76764">
        <ele>1684</ele>
        <time>2013-02-10T08:46:43Z</time>
      </trkpt>
      <trkpt lat="45.55473" lon="6.76788">
        <ele>1690</ele>
        <time>2013-02-10T08:46:48Z</time>
      </trkpt>
      <trkpt lat="45.55468" lon="6.76812">
        <ele>1694</ele>
        <time>2013-02-10T08:46:53Z</time>
      </trkpt>
      <trkpt lat="45.55461" lon="6.76836">
        <ele>1711</ele>
        <time>2013-02-10T08:46:58Z</time>
      </trkpt>
      <trkpt lat="45.55452" lon="6.76868">
        <ele>1716</ele>
        <time>2013-02-10T08:47:05Z</time>
      </trkpt>
      <trkpt lat="45.55445" lon="6.76898">
        <ele>1723</ele>
        <time>2013-02-10T08:47:11Z</time>
      </trkpt>
      <trkpt lat="45.55438" lon="6.76927">
        <ele>1740</ele>
        <time>2013-02-10T08:47:17Z</time>
      </trkpt>
      <trkpt lat="45.5543" lon="6.76949">
        <ele>1742</ele>
        <time>2013-02-10T08:47:22Z</time>
      </trkpt>
      <trkpt lat="45.55422" lon="6.76974">
        <ele>1748</ele>
        <time>2013-02-10T08:47:27Z</time>
      </trkpt>
      <trkpt lat="45.55414" lon="6.77006">
        <ele>1770</ele>
        <time>2013-02-10T08:47:33Z</time>
      </trkpt>
      <trkpt lat="45.55404" lon="6.7704">
        <ele>1781</ele>
        <time>2013-02-10T08:47:40Z</time>
      </trkpt>
      <trkpt lat="45.55397" lon="6.7707">
        <ele>1784</ele>
        <time>2013-02-10T08:47:46Z</time>
      </trkpt>
      <trkpt lat="45.55386" lon="6.77106">
        <ele>1798</ele>
        <time>2013-02-10T08:47:53Z</time>
      </trkpt>
      <trkpt lat="45.5538" lon="6.77137">
        <ele>1802</ele>
        <time>2013-02-10T08:47:59Z</time>
      </trkpt>
      <trkpt lat="45.55372" lon="6.77168">
        <ele>1815</ele>
        <time>2013-02-10T08:48:05Z</time>
      </trkpt>
      <trkpt lat="45.55361" lon="6.77207">
        <ele>1819</ele>
        <time>2013-02-10T08:48:13Z</time>
      </trkpt>
      <trkpt lat="45.55355" lon="6.77233">
        <ele>1822</ele>
        <time>2013-02-10T08:48:18Z</time>
      </trkpt>
      <trkpt lat="45.55352" lon="6.77265">
        <ele>1832</ele>
        <time>2013-02-10T08:48:24Z</time>
      </trkpt>
      <trkpt lat="45.55347" lon="6.77301">
        <ele>1835</ele>
        <time>2013-02-10T08:48:30Z</time>
      </trkpt>
      <trkpt lat="45.55342" lon="6.77333">
        <ele>1841</ele>
        <time>2013-02-10T08:48:36Z</time>
      </trkpt>
      <trkpt lat="45.55338" lon="6.77359">
        <ele>1846</ele>
        <time>2013-02-10T08:48:41Z</time>
      </trkpt>
      <trkpt lat="45.55337" lon="6.77386">
        <ele>1849</ele>
        <time>2013-02-10T08:48:46Z</time>
      </trkpt>
      <trkpt lat="45.55332" lon="6.77423">
        <ele>1859</ele>
        <time>2013-02-10T08:48:53Z</time>
      </trkpt>
      <trkpt lat="45.55322" lon="6.77451">
        <ele>1866</ele>
        <time>2013-02-10T08:48:59Z</time>
      </trkpt>
      <trkpt lat="45.5533" lon="6.77485">
        <ele>1871</ele>
        <time>2013-02-10T08:49:04Z</time>
      </trkpt>
      <trkpt lat="45.55319" lon="6.77508">
        <ele>1880</ele>
        <time>2013-02-10T08:49:09Z</time>
      </trkpt>
      <trkpt lat="45.55313" lon="6.77534">
        <ele>1885</ele>
        <time>2013-02-10T08:49:14Z</time>
      </trkpt>
      <trkpt lat="45.553" lon="6.77568">
        <ele>1890</ele>
        <time>2013-02-10T08:49:21Z</time>
      </trkpt>
      <trkpt lat="45.553" lon="6.77599">
        <ele>1903</ele>
        <time>2013-02-10T08:49:27Z</time>
      </trkpt>
      <trkpt lat="45.55296" lon="6.77632">
        <ele>1906</ele>
        <time>2013-02-10T08:49:33Z</time>
      </trkpt>
      <trkpt lat="45.55292" lon="6.77656">
        <ele>1908</ele>
        <time>2013-02-10T08:49:38Z</time>
      </trkpt>
      <trkpt lat="45.55279" lon="6.77698">
        <ele>1921</ele>
        <time>2013-02-10T08:49:46Z</time>
      </trkpt>
      <trkpt lat="45.55272" lon="6.7773">
        <ele>1925</ele>
        <time>2013-02-10T08:49:52Z</time>
      </trkpt>
      <trkpt lat="45.55269" lon="6.77769">
        <ele>1937</ele>
        <time>2013-02-10T08:49:59Z</time>
      </trkpt>
      <trkpt lat="45.55267" lon="6.77801">
        <ele>1940</ele>
        <time>2013-02-10T08:50:05Z</time>
      </trkpt>
      <trkpt lat="45.55259" lon="6.77838">
        <ele>1951</ele>
        <time>2013-02-10T08:50:12Z</time>
      </trkpt>
      <trkpt lat="45.55252" lon="6.77862">
        <ele>1953</ele>
        <time>2013-02-10T08:50:17Z</time>
      </trkpt>
      <trkpt lat="45.5525" lon="6.77895">
        <ele>1962</ele>
        <time>2013-02-10T08:50:23Z</time>
      </trkpt>
      <trkpt lat="45.5523" lon="6.7792">
        <ele>1972</ele>
        <time>2013-02-10T08:50:29Z</time>
      </trkpt>
      <trkpt lat="45.55219" lon="6.77954">
        <ele>1978</ele>
        <time>2013-02-10T08:50:36Z</time>
      </trkpt>
      <trkpt lat="45.55212" lon="6.77979">
        <ele>1981</ele>
        <time>2013-02-10T08:50:41Z</time>
      </trkpt>
      <trkpt lat="45.55198" lon="6.78013">
        <ele>1996</ele>
        <time>2013-02-10T08:50:48Z</time>
      </trkpt>
      <trkpt lat="45.55185" lon="6.78036">
        <ele>1999</ele>
        <time>2013-02-10T08:50:53Z</time>
      </trkpt>
      <trkpt lat="45.55171" lon="6.78065">
        <ele>2005</ele>
        <time>2013-02-10T08:50:59Z</time>
      </trkpt>
      <trkpt lat="45.5516" lon="6.78094">
        <ele>2017</ele>
        <time>2013-02-10T08:51:05Z</time>
      </trkpt>
      <trkpt lat="45.55145" lon="6.78122">
        <ele>2022</ele>
        <time>2013-02-10T08:51:11Z</time>
      </trkpt>
      <trkpt lat="45.55118" lon="6.78147">
        <ele>2024</ele>
        <time>2013-02-10T08:51:17Z</time>
      </trkpt>
      <trkpt lat="45.55106" lon="6.78173">
        <ele>2032</ele>
        <time>2013-02-10T08:51:22Z</time>
      </trkpt>
      <trkpt lat="45.55094" lon="6.78199">
        <ele>2034</ele>
        <time>2013-02-10T08:51:27Z</time>
      </trkpt>
      <trkpt lat="45.55086" lon="6.78223">
        <ele>2037</ele>
        <time>2013-02-10T08:51:32Z</time>
      </trkpt>
      <trkpt lat="45.55077" lon="6.78253">
        <ele>2044</ele>
        <time>2013-02-10T08:51:38Z</time>
      </trkpt>
      <trkpt lat="45.55069" lon="6.78284">
        <ele>2049</ele>
        <time>2013-02-10T08:51:44Z</time>
      </trkpt>
      <trkpt lat="45.55065" lon="6.78317">
        <ele>2052</ele>
        <time>2013-02-10T08:51:50Z</time>
      </trkpt>
      <trkpt lat="45.55051" lon="6.78347">
        <ele>2062</ele>
        <time>2013-02-10T08:51:56Z</time>
      </trkpt>
      <trkpt lat="45.55042" lon="6.78384">
        <ele>2066</ele>
        <time>2013-02-10T08:52:03Z</time>
      </trkpt>
      <trkpt lat="45.55038" lon="6.784">
        <ele>2068</ele>
        <time>2013-02-10T08:52:06Z</time>
      </trkpt>
      <trkpt lat="45.55029" lon="6.78431">
        <ele>2082</ele>
        <time>2013-02-10T08:52:12Z</time>
      </trkpt>
      <trkpt lat="45.55022" lon="6.78462">
        <ele>2086</ele>
        <time>2013-02-10T08:52:18Z</time>
      </trkpt>
      <trkpt lat="45.55016" lon="6.78481">
        <ele>2089</ele>
        <time>2013-02-10T08:52:22Z</time>
      </trkpt>
      <trkpt lat="45.55006" lon="6.78521">
        <ele>2101</ele>
        <time>2013-02-10T08:52:30Z</time>
      </trkpt>
      <trkpt lat="45.54999" lon="6.78547">
        <ele>2108</ele>
        <time>2013-02-10T08:52:35Z</time>
      </trkpt>
      <trkpt lat="45.54989" lon="6.78577">
        <ele>2112</ele>
        <time>2013-02-10T08:52:41Z</time>
      </trkpt>
      <trkpt lat="45.54981" lon="6.78607">
        <ele>2122</ele>
        <time>2013-02-10T08:52:47Z</time>
      </trkpt>
      <trkpt lat="45.54972" lon="6.78638">
        <ele>2125</ele>
        <time>2013-02-10T08:52:53Z</time>
      </trkpt>
      <trkpt lat="45.54964" lon="6.78669">
        <ele>2137</ele>
        <time>2013-02-10T08:52:59Z</time>
      </trkpt>
      <trkpt lat="45.54957" lon="6.78694">
        <ele>2140</ele>
        <time>2013-02-10T08:53:04Z</time>
      </trkpt>
      <trkpt lat="45.54952" lon="6.78709">
        <ele>2141</ele>
        <time>2013-02-10T08:53:07Z</time>
      </trkpt>
      <trkpt lat="45.54944" lon="6.7874">
        <ele>2146</ele>
        <time>2013-02-10T08:53:13Z</time>
      </trkpt>
      <trkpt lat="45.54933" lon="6.78776">
        <ele>2158</ele>
        <time>2013-02-10T08:53:20Z</time>
      </trkpt>
      <trkpt lat="45.54926" lon="6.78801">
        <ele>2162</ele>
        <time>2013-02-10T08:53:25Z</time>
      </trkpt>
      <trkpt lat="45.54919" lon="6.78827">
        <ele>2170</ele>
        <time>2013-02-10T08:53:30Z</time>
      </trkpt>
      <trkpt lat="45.54912" lon="6.78852">
        <ele>2179</ele>
        <time>2013-02-10T08:53:35Z</time>
      </trkpt>
      <trkpt lat="45.54905" lon="6.78877">
        <ele>2183</ele>
        <time>2013-02-10T08:53:40Z</time>
      </trkpt>
      <trkpt lat="45.54899" lon="6.78903">
        <ele>2186</ele>
        <time>2013-02-10T08:53:45Z</time>
      </trkpt>
      <trkpt lat="45.54895" lon="6.78918">
        <ele>2196</ele>
        <time>2013-02-10T08:53:48Z</time>
      </trkpt>
      <trkpt lat="45.54887" lon="6.78944">
        <ele>2199</ele>
        <time>2013-02-10T08:53:53Z</time>
      </trkpt>
      <trkpt lat="45.54879" lon="6.78974">
        <ele>2202</ele>
        <time>2013-02-10T08:53:59Z</time>
      </trkpt>
      <trkpt lat="45.5487" lon="6.7901">
        <ele>2217</ele>
        <time>2013-02-10T08:54:06Z</time>
      </trkpt>
      <trkpt lat="45.5486" lon="6.79044">
        <ele>2221</ele>
        <time>2013-02-10T08:54:13Z</time>
      </trkpt>
      <trkpt lat="45.54851" lon="6.7908">
        <ele>2228</ele>
        <time>2013-02-10T08:54:20Z</time>
      </trkpt>
      <trkpt lat="45.54841" lon="6.79115">
        <ele>2241</ele>
        <time>2013-02-10T08:54:27Z</time>
      </trkpt>
      <trkpt lat="45.54837" lon="6.7913">
        <ele>2245</ele>
        <time>2013-02-10T08:54:30Z</time>
      </trkpt>
      <trkpt lat="45.54829" lon="6.7916">
        <ele>2254</ele>
        <time>2013-02-10T08:54:36Z</time>
      </trkpt>
      <trkpt lat="45.5482" lon="6.7919">
        <ele>2264</ele>
        <time>2013-02-10T08:54:42Z</time>
      </trkpt>
      <trkpt lat="45.54809" lon="6.7922">
        <ele>2268</ele>
        <time>2013-02-10T08:54:48Z</time>
      </trkpt>
      <trkpt lat="45.54812" lon="6.7924">
        <ele>2271</ele>
        <time>2013-02-10T08:54:58Z</time>
      </trkpt>
      <trkpt lat="45.54814" lon="6.79244">
        <ele>2271</ele>
        <time>2013-02-10T08:55:02Z</time>
      </trkpt>
      <trkpt lat="45.54814" lon="6.79244">
        <ele>2271</ele>
        <time>2013-02-10T08:55:10Z</time>
      </trkpt>
      <trkpt lat="45.54814" lon="6.79244">
        <ele>2271</ele>
        <time>2013-02-10T08:55:18Z</time>
      </trkpt>
      <trkpt lat="45.54819" lon="6.79249">
        <ele>2272</ele>
        <time>2013-02-10T08:55:18Z</time>
      </trkpt>
      <trkpt lat="45.54845" lon="6.79238">
        <ele>2268</ele>
        <time>2013-02-10T08:55:26Z</time>
      </trkpt>
      <trkpt lat="45.54866" lon="6.79226">
        <ele>2263</ele>
        <time>2013-02-10T08:55:29Z</time>
      </trkpt>
      <trkpt lat="45.54912" lon="6.79198">
        <ele>2257</ele>
        <time>2013-02-10T08:55:35Z</time>
      </trkpt>
      <trkpt lat="45.54968" lon="6.79138">
        <ele>2228</ele>
        <time>2013-02-10T08:55:41Z</time>
      </trkpt>
      <trkpt lat="45.55041" lon="6.79071">
        <ele>2197</ele>
        <time>2013-02-10T08:55:47Z</time>
      </trkpt>
      <trkpt lat="45.55096" lon="6.79008">
        <ele>2182</ele>
        <time>2013-02-10T08:55:53Z</time>
      </trkpt>
      <trkpt lat="45.55136" lon="6.78943">
        <ele>2163</ele>
        <time>2013-02-10T08:55:59Z</time>
      </trkpt>
      <trkpt lat="45.55171" lon="6.78859">
        <ele>2139</ele>
        <time>2013-02-10T08:56:04Z</time>
      </trkpt>
      <trkpt lat="45.55215" lon="6.78765">
        <ele>2123</ele>
        <time>2013-02-10T08:56:10Z</time>
      </trkpt>
      <trkpt lat="45.5523" lon="6.78713">
        <ele>2110</ele>
        <time>2013-02-10T08:56:13Z</time>
      </trkpt>
      <trkpt lat="45.5527" lon="6.78615">
        <ele>2091</ele>
        <time>2013-02-10T08:56:19Z</time>
      </trkpt>
      <trkpt lat="45.55298" lon="6.7852">
        <ele>2080</ele>
        <time>2013-02-10T08:56:25Z</time>
      </trkpt>
      <trkpt lat="45.55311" lon="6.78465">
        <ele>2072</ele>
        <time>2013-02-10T08:56:30Z</time>
      </trkpt>
      <trkpt lat="45.55312" lon="6.78415">
        <ele>2061</ele>
        <time>2013-02-10T08:56:36Z</time>
      </trkpt>
      <trkpt lat="45.55322" lon="6.78351">
        <ele>2053</ele>
        <time>2013-02-10T08:56:41Z</time>
      </trkpt>
      <trkpt lat="45.55384" lon="6.78294">
        <ele>2031</ele>
        <time>2013-02-10T08:56:46Z</time>
      </trkpt>
      <trkpt lat="45.55415" lon="6.78283">
        <ele>2029</ele>
        <time>2013-02-10T08:56:49Z</time>
      </trkpt>
      <trkpt lat="45.55446" lon="6.78276">
        <ele>2020</ele>
        <time>2013-02-10T08:56:52Z</time>
      </trkpt>
      <trkpt lat="45.55478" lon="6.78278">
        <ele>2018</ele>
        <time>2013-02-10T08:56:55Z</time>
      </trkpt>
      <trkpt lat="45.55542" lon="6.7825">
        <ele>1997</ele>
        <time>2013-02-10T08:57:01Z</time>
      </trkpt>
      <trkpt lat="45.55568" lon="6.782">
        <ele>1992</ele>
        <time>2013-02-10T08:57:05Z</time>
      </trkpt>
      <trkpt lat="45.55636" lon="6.78086">
        <ele>1962</ele>
        <time>2013-02-10T08:57:13Z</time>
      </trkpt>
      <trkpt lat="45.55694" lon="6.77986">
        <ele>1936</ele>
        <time>2013-02-10T08:57:19Z</time>
      </trkpt>
      <trkpt lat="45.55726" lon="6.7795">
        <ele>1933</ele>
        <time>2013-02-10T08:57:24Z</time>
      </trkpt>
      <trkpt lat="45.55717" lon="6.77991">
        <ele>1935</ele>
        <time>2013-02-10T08:58:29Z</time>
      </trkpt>
      <trkpt lat="45.55718" lon="6.78013">
        <ele>1941</ele>
        <time>2013-02-10T08:58:42Z</time>
      </trkpt>
      <trkpt lat="45.55722" lon="6.7805">
        <ele>1942</ele>
        <time>2013-02-10T08:58:48Z</time>
      </trkpt>
      <trkpt lat="45.55719" lon="6.78073">
        <ele>1943</ele>
        <time>2013-02-10T08:58:53Z</time>
      </trkpt>
      <trkpt lat="45.55717" lon="6.78106">
        <ele>1953</ele>
        <time>2013-02-10T08:59:00Z</time>
      </trkpt>
      <trkpt lat="45.55714" lon="6.78146">
        <ele>1958</ele>
        <time>2013-02-10T08:59:08Z</time>
      </trkpt>
      <trkpt lat="45.55712" lon="6.78184">
        <ele>1969</ele>
        <time>2013-02-10T08:59:16Z</time>
      </trkpt>
      <trkpt lat="45.55711" lon="6.78218">
        <ele>1972</ele>
        <time>2013-02-10T08:59:23Z</time>
      </trkpt>
      <trkpt lat="45.5571" lon="6.78248">
        <ele>1974</ele>
        <time>2013-02-10T08:59:29Z</time>
      </trkpt>
      <trkpt lat="45.55709" lon="6.78263">
        <ele>1982</ele>
        <time>2013-02-10T08:59:32Z</time>
      </trkpt>
      <trkpt lat="45.55706" lon="6.78287">
        <ele>1984</ele>
        <time>2013-02-10T08:59:37Z</time>
      </trkpt>
      <trkpt lat="45.55705" lon="6.78317">
        <ele>1986</ele>
        <time>2013-02-10T08:59:43Z</time>
      </trkpt>
      <trkpt lat="45.55704" lon="6.78357">
        <ele>1996</ele>
        <time>2013-02-10T08:59:51Z</time>
      </trkpt>
      <trkpt lat="45.55703" lon="6.78381">
        <ele>1999</ele>
        <time>2013-02-10T08:59:56Z</time>
      </trkpt>
      <trkpt lat="45.55701" lon="6.78401">
        <ele>2001</ele>
        <time>2013-02-10T09:00:00Z</time>
      </trkpt>
      <trkpt lat="45.55699" lon="6.78435">
        <ele>2011</ele>
        <time>2013-02-10T09:00:07Z</time>
      </trkpt>
      <trkpt lat="45.55698" lon="6.78449">
        <ele>2011</ele>
        <time>2013-02-10T09:00:10Z</time>
      </trkpt>
      <trkpt lat="45.55697" lon="6.78463">
        <ele>2012</ele>
        <time>2013-02-10T09:00:13Z</time>
      </trkpt>
      <trkpt lat="45.55695" lon="6.78493">
        <ele>2014</ele>
        <time>2013-02-10T09:00:19Z</time>
      </trkpt>
      <trkpt lat="45.55693" lon="6.78523">
        <ele>2022</ele>
        <time>2013-02-10T09:00:25Z</time>
      </trkpt>
      <trkpt lat="45.55691" lon="6.78559">
        <ele>2024</ele>
        <time>2013-02-10T09:00:32Z</time>
      </trkpt>
      <trkpt lat="45.55689" lon="6.78589">
        <ele>2031</ele>
        <time>2013-02-10T09:00:38Z</time>
      </trkpt>
      <trkpt lat="45.55687" lon="6.78624">
        <ele>2033</ele>
        <time>2013-02-10T09:00:45Z</time>
      </trkpt>
      <trkpt lat="45.55685" lon="6.78654">
        <ele>2036</ele>
        <time>2013-02-10T09:00:51Z</time>
      </trkpt>
      <trkpt lat="45.55684" lon="6.78689">
        <ele>2043</ele>
        <time>2013-02-10T09:00:58Z</time>
      </trkpt>
      <trkpt lat="45.55682" lon="6.78719">
        <ele>2045</ele>
        <time>2013-02-10T09:01:04Z</time>
      </trkpt>
      <trkpt lat="45.55681" lon="6.78734">
        <ele>2047</ele>
        <time>2013-02-10T09:01:07Z</time>
      </trkpt>
      <trkpt lat="45.5568" lon="6.78749">
        <ele>2048</ele>
        <time>2013-02-10T09:01:10Z</time>
      </trkpt>
      <trkpt lat="45.55678" lon="6.78778">
        <ele>2055</ele>
        <time>2013-02-10T09:01:16Z</time>
      </trkpt>
      <trkpt lat="45.55676" lon="6.78813">
        <ele>2059</ele>
        <time>2013-02-10T09:01:23Z</time>
      </trkpt>
      <trkpt lat="45.55674" lon="6.78848">
        <ele>2068</ele>
        <time>2013-02-10T09:01:30Z</time>
      </trkpt>
      <trkpt lat="45.55672" lon="6.78878">
        <ele>2072</ele>
        <time>2013-02-10T09:01:36Z</time>
      </trkpt>
      <trkpt lat="45.55671" lon="6.78906">
        <ele>2078</ele>
        <time>2013-02-10T09:01:42Z</time>
      </trkpt>
      <trkpt lat="45.5567" lon="6.78922">
        <ele>2084</ele>
        <time>2013-02-10T09:01:45Z</time>
      </trkpt>
      <trkpt lat="45.55669" lon="6.78936">
        <ele>2086</ele>
        <time>2013-02-10T09:01:48Z</time>
      </trkpt>
      <trkpt lat="45.55668" lon="6.78965">
        <ele>2091</ele>
        <time>2013-02-10T09:01:54Z</time>
      </trkpt>
      <trkpt lat="45.55666" lon="6.78988">
        <ele>2101</ele>
        <time>2013-02-10T09:01:59Z</time>
      </trkpt>
      <trkpt lat="45.55665" lon="6.79022">
        <ele>2110</ele>
        <time>2013-02-10T09:02:06Z</time>
      </trkpt>
      <trkpt lat="45.55663" lon="6.79045">
        <ele>2114</ele>
        <time>2013-02-10T09:02:11Z</time>
      </trkpt>
      <trkpt lat="45.55661" lon="6.7908">
        <ele>2116</ele>
        <time>2013-02-10T09:02:18Z</time>
      </trkpt>
      <trkpt lat="45.55659" lon="6.79109">
        <ele>2126</ele>
        <time>2013-02-10T09:02:24Z</time>
      </trkpt>
      <trkpt lat="45.55658" lon="6.79143">
        <ele>2131</ele>
        <time>2013-02-10T09:02:31Z</time>
      </trkpt>
      <trkpt lat="45.55656" lon="6.79167">
        <ele>2138</ele>
        <time>2013-02-10T09:02:36Z</time>
      </trkpt>
      <trkpt lat="45.55655" lon="6.79197">
        <ele>2145</ele>
        <time>2013-02-10T09:02:42Z</time>
      </trkpt>
      <trkpt lat="45.55653" lon="6.79221">
        <ele>2149</ele>
        <time>2013-02-10T09:02:47Z</time>
      </trkpt>
      <trkpt lat="45.55651" lon="6.79241">
        <ele>2151</ele>
        <time>2013-02-10T09:02:51Z</time>
      </trkpt>
      <trkpt lat="45.55659" lon="6.79288">
        <ele>2165</ele>
        <time>2013-02-10T09:02:59Z</time>
      </trkpt>
      <trkpt lat="45.55648" lon="6.79312">
        <ele>2168</ele>
        <time>2013-02-10T09:03:05Z</time>
      </trkpt>
      <trkpt lat="45.55645" lon="6.7934">
        <ele>2180</ele>
        <time>2013-02-10T09:03:11Z</time>
      </trkpt>
      <trkpt lat="45.55643" lon="6.79374">
        <ele>2185</ele>
        <time>2013-02-10T09:03:18Z</time>
      </trkpt>
      <trkpt lat="45.55642" lon="6.79408">
        <ele>2188</ele>
        <time>2013-02-10T09:03:25Z</time>
      </trkpt>
      <trkpt lat="45.5564" lon="6.79436">
        <ele>2203</ele>
        <time>2013-02-10T09:03:31Z</time>
      </trkpt>
      <trkpt lat="45.55639" lon="6.79464">
        <ele>2208</ele>
        <time>2013-02-10T09:03:37Z</time>
      </trkpt>
      <trkpt lat="45.55636" lon="6.79503">
        <ele>2226</ele>
        <time>2013-02-10T09:03:45Z</time>
      </trkpt>
      <trkpt lat="45.55635" lon="6.79525">
        <ele>2229</ele>
        <time>2013-02-10T09:03:50Z</time>
      </trkpt>
      <trkpt lat="45.55633" lon="6.79552">
        <ele>2233</ele>
        <time>2013-02-10T09:03:56Z</time>
      </trkpt>
      <trkpt lat="45.55632" lon="6.79575">
        <ele>2236</ele>
        <time>2013-02-10T09:04:01Z</time>
      </trkpt>
      <trkpt lat="45.5563" lon="6.79607">
        <ele>2252</ele>
        <time>2013-02-10T09:04:08Z</time>
      </trkpt>
      <trkpt lat="45.55628" lon="6.7964">
        <ele>2257</ele>
        <time>2013-02-10T09:04:15Z</time>
      </trkpt>
      <trkpt lat="45.55626" lon="6.79673">
        <ele>2275</ele>
        <time>2013-02-10T09:04:22Z</time>
      </trkpt>
      <trkpt lat="45.55626" lon="6.79687">
        <ele>2276</ele>
        <time>2013-02-10T09:04:25Z</time>
      </trkpt>
      <trkpt lat="45.55624" lon="6.79715">
        <ele>2281</ele>
        <time>2013-02-10T09:04:31Z</time>
      </trkpt>
      <trkpt lat="45.55622" lon="6.79748">
        <ele>2285</ele>
        <time>2013-02-10T09:04:38Z</time>
      </trkpt>
      <trkpt lat="45.55621" lon="6.79776">
        <ele>2302</ele>
        <time>2013-02-10T09:04:44Z</time>
      </trkpt>
      <trkpt lat="45.55619" lon="6.79808">
        <ele>2306</ele>
        <time>2013-02-10T09:04:50Z</time>
      </trkpt>
      <trkpt lat="45.55617" lon="6.79825">
        <ele>2308</ele>
        <time>2013-02-10T09:04:57Z</time>
      </trkpt>
      <trkpt lat="45.55621" lon="6.79857">
        <ele>2316</ele>
        <time>2013-02-10T09:05:08Z</time>
      </trkpt>
      <trkpt lat="45.55621" lon="6.79857">
        <ele>2316</ele>
        <time>2013-02-10T09:05:15Z</time>
      </trkpt>
      <trkpt lat="45.55621" lon="6.79857">
        <ele>2316</ele>
        <time>2013-02-10T09:05:20Z</time>
      </trkpt>
      <trkpt lat="45.55633" lon="6.79877">
        <ele>2316</ele>
        <time>2013-02-10T09:05:28Z</time>
      </trkpt>
      <trkpt lat="45.55633" lon="6.79877">
        <ele>2316</ele>
        <time>2013-02-10T09:05:35Z</time>
      </trkpt>
      <trkpt lat="45.55633" lon="6.79877">
        <ele>2316</ele>
        <time>2013-02-10T09:05:35Z</time>
      </trkpt>
      <trkpt lat="45.55633" lon="6.79877">
        <ele>2316</ele>
        <time>2013-02-10T09:05:55Z</time>
      </trkpt>
      <trkpt lat="45.55647" lon="6.79899">
        <ele>2316</ele>
        <time>2013-02-10T09:05:55Z</time>
      </trkpt>
      <trkpt lat="45.55675" lon="6.79951">
        <ele>2312</ele>
        <time>2013-02-10T09:06:01Z</time>
      </trkpt>
      <trkpt lat="45.55749" lon="6.79957">
        <ele>2304</ele>
        <time>2013-02-10T09:06:07Z</time>
      </trkpt>
      <trkpt lat="45.55804" lon="6.79892">
        <ele>2277</ele>
        <time>2013-02-10T09:06:13Z</time>
      </trkpt>
      <trkpt lat="45.55819" lon="6.79834">
        <ele>2267</ele>
        <time>2013-02-10T09:06:18Z</time>
      </trkpt>
      <trkpt lat="45.55852" lon="6.79759">
        <ele>2237</ele>
        <time>2013-02-10T09:06:23Z</time>
      </trkpt>
      <trkpt lat="45.55909" lon="6.79718">
        <ele>2211</ele>
        <time>2013-02-10T09:06:28Z</time>
      </trkpt>
      <trkpt lat="45.55975" lon="6.7971">
        <ele>2193</ele>
        <time>2013-02-10T09:06:34Z</time>
      </trkpt>
      <trkpt lat="45.56" lon="6.79706">
        <ele>2191</ele>
        <time>2013-02-10T09:06:37Z</time>
      </trkpt>
      <trkpt lat="45.56072" lon="6.79704">
        <ele>2173</ele>
        <time>2013-02-10T09:06:43Z</time>
      </trkpt>
      <trkpt lat="45.5614" lon="6.79699">
        <ele>2159</ele>
        <time>2013-02-10T09:06:49Z</time>
      </trkpt>
      <trkpt lat="45.56186" lon="6.79633">
        <ele>2140</ele>
        <time>2013-02-10T09:06:54Z</time>
      </trkpt>
      <trkpt lat="45.56187" lon="6.79555">
        <ele>2126</ele>
        <time>2013-02-10T09:06:59Z</time>
      </trkpt>
      <trkpt lat="45.5622" lon="6.79497">
        <ele>2112</ele>
        <time>2013-02-10T09:07:04Z</time>
      </trkpt>
      <trkpt lat="45.5626" lon="6.79452">
        <ele>2104</ele>
        <time>2013-02-10T09:07:10Z</time>
      </trkpt>
      <trkpt lat="45.56266" lon="6.7945">
        <ele>2104</ele>
        <time>2013-02-10T09:07:12Z</time>
      </trkpt>
      <trkpt lat="45.56266" lon="6.7945">
        <ele>2104</ele>
        <time>2013-02-10T09:07:18Z</time>
      </trkpt>
      <trkpt lat="45.56266" lon="6.7945">
        <ele>2104</ele>
        <time>2013-02-10T09:13:46Z</time>
      </trkpt>
      <trkpt lat="45.56253" lon="6.79484">
        <ele>2107</ele>
        <time>2013-02-10T09:13:46Z</time>
      </trkpt>
      <trkpt lat="45.56237" lon="6.79514">
        <ele>2117</ele>
        <time>2013-02-10T09:13:51Z</time>
      </trkpt>
      <trkpt lat="45.56222" lon="6.79541">
        <ele>2122</ele>
        <time>2013-02-10T09:13:57Z</time>
      </trkpt>
      <trkpt lat="45.56204" lon="6.79562">
        <ele>2125</ele>
        <time>2013-02-10T09:14:03Z</time>
      </trkpt>
      <trkpt lat="45.56182" lon="6.79588">
        <ele>2137</ele>
        <time>2013-02-10T09:14:09Z</time>
      </trkpt>
      <trkpt lat="45.5617" lon="6.79607">
        <ele>2138</ele>
        <time>2013-02-10T09:14:13Z</time>
      </trkpt>
      <trkpt lat="45.56152" lon="6.79631">
        <ele>2150</ele>
        <time>2013-02-10T09:14:19Z</time>
      </trkpt>
      <trkpt lat="45.5614" lon="6.79647">
        <ele>2152</ele>
        <time>2013-02-10T09:14:23Z</time>
      </trkpt>
      <trkpt lat="45.5613" lon="6.7966">
        <ele>2154</ele>
        <time>2013-02-10T09:14:26Z</time>
      </trkpt>
      <trkpt lat="45.56121" lon="6.79674">
        <ele>2160</ele>
        <time>2013-02-10T09:14:29Z</time>
      </trkpt>
      <trkpt lat="45.56106" lon="6.79694">
        <ele>2161</ele>
        <time>2013-02-10T09:14:34Z</time>
      </trkpt>
      <trkpt lat="45.56086" lon="6.79719">
        <ele>2162</ele>
        <time>2013-02-10T09:14:40Z</time>
      </trkpt>
      <trkpt lat="45.56071" lon="6.79741">
        <ele>2171</ele>
        <time>2013-02-10T09:14:45Z</time>
      </trkpt>
      <trkpt lat="45.56055" lon="6.79762">
        <ele>2181</ele>
        <time>2013-02-10T09:14:50Z</time>
      </trkpt>
      <trkpt lat="45.56035" lon="6.79786">
        <ele>2187</ele>
        <time>2013-02-10T09:14:56Z</time>
      </trkpt>
      <trkpt lat="45.56018" lon="6.79808">
        <ele>2194</ele>
        <time>2013-02-10T09:15:01Z</time>
      </trkpt>
      <trkpt lat="45.55999" lon="6.79834">
        <ele>2214</ele>
        <time>2013-02-10T09:15:07Z</time>
      </trkpt>
      <trkpt lat="45.55988" lon="6.79851">
        <ele>2231</ele>
        <time>2013-02-10T09:15:11Z</time>
      </trkpt>
      <trkpt lat="45.55966" lon="6.79882">
        <ele>2245</ele>
        <time>2013-02-10T09:15:18Z</time>
      </trkpt>
      <trkpt lat="45.55948" lon="6.79904">
        <ele>2251</ele>
        <time>2013-02-10T09:15:24Z</time>
      </trkpt>
      <trkpt lat="45.55934" lon="6.7992">
        <ele>2268</ele>
        <time>2013-02-10T09:15:29Z</time>
      </trkpt>
      <trkpt lat="45.5592" lon="6.79935">
        <ele>2269</ele>
        <time>2013-02-10T09:15:33Z</time>
      </trkpt>
      <trkpt lat="45.55911" lon="6.79947">
        <ele>2276</ele>
        <time>2013-02-10T09:15:36Z</time>
      </trkpt>
      <trkpt lat="45.55896" lon="6.79971">
        <ele>2278</ele>
        <time>2013-02-10T09:15:41Z</time>
      </trkpt>
      <trkpt lat="45.55881" lon="6.79997">
        <ele>2280</ele>
        <time>2013-02-10T09:15:46Z</time>
      </trkpt>
      <trkpt lat="45.55863" lon="6.80022">
        <ele>2289</ele>
        <time>2013-02-10T09:15:52Z</time>
      </trkpt>
      <trkpt lat="45.55849" lon="6.80038">
        <ele>2291</ele>
        <time>2013-02-10T09:15:56Z</time>
      </trkpt>
      <trkpt lat="45.5583" lon="6.80058">
        <ele>2299</ele>
        <time>2013-02-10T09:16:01Z</time>
      </trkpt>
      <trkpt lat="45.55814" lon="6.8008">
        <ele>2301</ele>
        <time>2013-02-10T09:16:06Z</time>
      </trkpt>
      <trkpt lat="45.55797" lon="6.80101">
        <ele>2311</ele>
        <time>2013-02-10T09:16:12Z</time>
      </trkpt>
      <trkpt lat="45.55775" lon="6.80125">
        <ele>2315</ele>
        <time>2013-02-10T09:16:18Z</time>
      </trkpt>
      <trkpt lat="45.5576" lon="6.80145">
        <ele>2319</ele>
        <time>2013-02-10T09:16:23Z</time>
      </trkpt>
      <trkpt lat="45.55752" lon="6.80157">
        <ele>2323</ele>
        <time>2013-02-10T09:16:26Z</time>
      </trkpt>
      <trkpt lat="45.55737" lon="6.80176">
        <ele>2346</ele>
        <time>2013-02-10T09:16:31Z</time>
      </trkpt>
      <trkpt lat="45.55717" lon="6.80204">
        <ele>2363</ele>
        <time>2013-02-10T09:16:38Z</time>
      </trkpt>
      <trkpt lat="45.55703" lon="6.80224">
        <ele>2370</ele>
        <time>2013-02-10T09:16:43Z</time>
      </trkpt>
      <trkpt lat="45.55686" lon="6.80246">
        <ele>2381</ele>
        <time>2013-02-10T09:16:49Z</time>
      </trkpt>
      <trkpt lat="45.5567" lon="6.80268">
        <ele>2402</ele>
        <time>2013-02-10T09:16:55Z</time>
      </trkpt>
      <trkpt lat="45.55653" lon="6.80291">
        <ele>2433</ele>
        <time>2013-02-10T09:17:01Z</time>
      </trkpt>
      <trkpt lat="45.55635" lon="6.80308">
        <ele>2440</ele>
        <time>2013-02-10T09:17:06Z</time>
      </trkpt>
      <trkpt lat="45.5562" lon="6.80331">
        <ele>2448</ele>
        <time>2013-02-10T09:17:12Z</time>
      </trkpt>
      <trkpt lat="45.55603" lon="6.8036">
        <ele>2460</ele>
        <time>2013-02-10T09:17:19Z</time>
      </trkpt>
      <trkpt lat="45.55583" lon="6.80379">
        <ele>2478</ele>
        <time>2013-02-10T09:17:25Z</time>
      </trkpt>
      <trkpt lat="45.55563" lon="6.80401">
        <ele>2478</ele>
        <time>2013-02-10T09:17:31Z</time>
      </trkpt>
      <trkpt lat="45.55553" lon="6.80413">
        <ele>2479</ele>
        <time>2013-02-10T09:17:34Z</time>
      </trkpt>
      <trkpt lat="45.55532" lon="6.80437">
        <ele>2471</ele>
        <time>2013-02-10T09:17:40Z</time>
      </trkpt>
      <trkpt lat="45.55523" lon="6.80449">
        <ele>2471</ele>
        <time>2013-02-10T09:17:43Z</time>
      </trkpt>
      <trkpt lat="45.55505" lon="6.80469">
        <ele>2468</ele>
        <time>2013-02-10T09:17:48Z</time>
      </trkpt>
      <trkpt lat="45.55488" lon="6.8049">
        <ele>2477</ele>
        <time>2013-02-10T09:17:53Z</time>
      </trkpt>
      <trkpt lat="45.55468" lon="6.80517">
        <ele>2464</ele>
        <time>2013-02-10T09:17:59Z</time>
      </trkpt>
      <trkpt lat="45.55458" lon="6.8053">
        <ele>2464</ele>
        <time>2013-02-10T09:18:02Z</time>
      </trkpt>
      <trkpt lat="45.55442" lon="6.80547">
        <ele>2463</ele>
        <time>2013-02-10T09:18:07Z</time>
      </trkpt>
      <trkpt lat="45.55423" lon="6.80569">
        <ele>2459</ele>
        <time>2013-02-10T09:18:13Z</time>
      </trkpt>
      <trkpt lat="45.55413" lon="6.80582">
        <ele>2459</ele>
        <time>2013-02-10T09:18:16Z</time>
      </trkpt>
      <trkpt lat="45.55396" lon="6.80602">
        <ele>2462</ele>
        <time>2013-02-10T09:18:21Z</time>
      </trkpt>
      <trkpt lat="45.55376" lon="6.80628">
        <ele>2464</ele>
        <time>2013-02-10T09:18:27Z</time>
      </trkpt>
      <trkpt lat="45.55357" lon="6.80646">
        <ele>2467</ele>
        <time>2013-02-10T09:18:32Z</time>
      </trkpt>
      <trkpt lat="45.55338" lon="6.80674">
        <ele>2471</ele>
        <time>2013-02-10T09:18:38Z</time>
      </trkpt>
      <trkpt lat="45.55318" lon="6.807">
        <ele>2481</ele>
        <time>2013-02-10T09:18:44Z</time>
      </trkpt>
      <trkpt lat="45.55299" lon="6.80728">
        <ele>2483</ele>
        <time>2013-02-10T09:18:50Z</time>
      </trkpt>
      <trkpt lat="45.55282" lon="6.80751">
        <ele>2484</ele>
        <time>2013-02-10T09:18:55Z</time>
      </trkpt>
      <trkpt lat="45.55265" lon="6.80773">
        <ele>2484</ele>
        <time>2013-02-10T09:19:00Z</time>
      </trkpt>
      <trkpt lat="45.55246" lon="6.80797">
        <ele>2490</ele>
        <time>2013-02-10T09:19:06Z</time>
      </trkpt>
      <trkpt lat="45.55227" lon="6.80825">
        <ele>2490</ele>
        <time>2013-02-10T09:19:12Z</time>
      </trkpt>
      <trkpt lat="45.55213" lon="6.80844">
        <ele>2492</ele>
        <time>2013-02-10T09:19:16Z</time>
      </trkpt>
      <trkpt lat="45.55194" lon="6.80872">
        <ele>2495</ele>
        <time>2013-02-10T09:19:22Z</time>
      </trkpt>
      <trkpt lat="45.55179" lon="6.8089">
        <ele>2497</ele>
        <time>2013-02-10T09:19:26Z</time>
      </trkpt>
      <trkpt lat="45.55154" lon="6.80916">
        <ele>2510</ele>
        <time>2013-02-10T09:19:32Z</time>
      </trkpt>
      <trkpt lat="45.55143" lon="6.80929">
        <ele>2518</ele>
        <time>2013-02-10T09:19:35Z</time>
      </trkpt>
      <trkpt lat="45.55126" lon="6.80945">
        <ele>2523</ele>
        <time>2013-02-10T09:19:39Z</time>
      </trkpt>
      <trkpt lat="45.55113" lon="6.8097">
        <ele>2527</ele>
        <time>2013-02-10T09:19:44Z</time>
      </trkpt>
      <trkpt lat="45.55093" lon="6.80999">
        <ele>2537</ele>
        <time>2013-02-10T09:19:51Z</time>
      </trkpt>
      <trkpt lat="45.55084" lon="6.81014">
        <ele>2538</ele>
        <time>2013-02-10T09:19:55Z</time>
      </trkpt>
      <trkpt lat="45.55084" lon="6.81014">
        <ele>2538</ele>
        <time>2013-02-10T09:20:01Z</time>
      </trkpt>
      <trkpt lat="45.55084" lon="6.81014">
        <ele>2538</ele>
        <time>2013-02-10T09:20:56Z</time>
      </trkpt>
      <trkpt lat="45.55069" lon="6.81042">
        <ele>2540</ele>
        <time>2013-02-10T09:20:56Z</time>
      </trkpt>
      <trkpt lat="45.55067" lon="6.81068">
        <ele>2540</ele>
        <time>2013-02-10T09:21:05Z</time>
      </trkpt>
      <trkpt lat="45.55069" lon="6.81073">
        <ele>2541</ele>
        <time>2013-02-10T09:21:11Z</time>
      </trkpt>
      <trkpt lat="45.55069" lon="6.81073">
        <ele>2541</ele>
        <time>2013-02-10T09:21:18Z</time>
      </trkpt>
      <trkpt lat="45.55069" lon="6.81073">
        <ele>2541</ele>
        <time>2013-02-10T09:21:50Z</time>
      </trkpt>
      <trkpt lat="45.55072" lon="6.81101">
        <ele>2536</ele>
        <time>2013-02-10T09:21:50Z</time>
      </trkpt>
      <trkpt lat="45.55079" lon="6.81145">
        <ele>2531</ele>
        <time>2013-02-10T09:21:56Z</time>
      </trkpt>
      <trkpt lat="45.55081" lon="6.81153">
        <ele>2531</ele>
        <time>2013-02-10T09:22:01Z</time>
      </trkpt>
      <trkpt lat="45.55092" lon="6.81188">
        <ele>2520</ele>
        <time>2013-02-10T09:22:10Z</time>
      </trkpt>
      <trkpt lat="45.55109" lon="6.8124">
        <ele>2512</ele>
        <time>2013-02-10T09:22:16Z</time>
      </trkpt>
      <trkpt lat="45.55125" lon="6.81283">
        <ele>2500</ele>
        <time>2013-02-10T09:22:22Z</time>
      </trkpt>
      <trkpt lat="45.55146" lon="6.81315">
        <ele>2495</ele>
        <time>2013-02-10T09:22:28Z</time>
      </trkpt>
      <trkpt lat="45.55167" lon="6.81326">
        <ele>2485</ele>
        <time>2013-02-10T09:22:34Z</time>
      </trkpt>
      <trkpt lat="45.55181" lon="6.81348">
        <ele>2474</ele>
        <time>2013-02-10T09:22:39Z</time>
      </trkpt>
      <trkpt lat="45.55207" lon="6.8136">
        <ele>2467</ele>
        <time>2013-02-10T09:22:46Z</time>
      </trkpt>
      <trkpt lat="45.55233" lon="6.81379">
        <ele>2461</ele>
        <time>2013-02-10T09:22:52Z</time>
      </trkpt>
      <trkpt lat="45.55264" lon="6.81406">
        <ele>2442</ele>
        <time>2013-02-10T09:22:58Z</time>
      </trkpt>
      <trkpt lat="45.55294" lon="6.81458">
        <ele>2425</ele>
        <time>2013-02-10T09:23:06Z</time>
      </trkpt>
      <trkpt lat="45.5531" lon="6.81472">
        <ele>2422</ele>
        <time>2013-02-10T09:23:09Z</time>
      </trkpt>
      <trkpt lat="45.5533" lon="6.81496">
        <ele>2411</ele>
        <time>2013-02-10T09:23:16Z</time>
      </trkpt>
      <trkpt lat="45.55347" lon="6.81513">
        <ele>2397</ele>
        <time>2013-02-10T09:23:21Z</time>
      </trkpt>
      <trkpt lat="45.55364" lon="6.81535">
        <ele>2390</ele>
        <time>2013-02-10T09:23:25Z</time>
      </trkpt>
      <trkpt lat="45.55364" lon="6.81535">
        <ele>2390</ele>
        <time>2013-02-10T09:23:30Z</time>
      </trkpt>
      <trkpt lat="45.55364" lon="6.81535">
        <ele>2390</ele>
        <time>2013-02-10T09:23:34Z</time>
      </trkpt>
      <trkpt lat="45.55382" lon="6.81532">
        <ele>2388</ele>
        <time>2013-02-10T09:23:34Z</time>
      </trkpt>
      <trkpt lat="45.55415" lon="6.8155">
        <ele>2383</ele>
        <time>2013-02-10T09:23:39Z</time>
      </trkpt>
      <trkpt lat="45.5545" lon="6.81563">
        <ele>2366</ele>
        <time>2013-02-10T09:23:45Z</time>
      </trkpt>
      <trkpt lat="45.5548" lon="6.81573">
        <ele>2359</ele>
        <time>2013-02-10T09:23:50Z</time>
      </trkpt>
      <trkpt lat="45.55516" lon="6.81593">
        <ele>2342</ele>
        <time>2013-02-10T09:23:56Z</time>
      </trkpt>
      <trkpt lat="45.55552" lon="6.81631">
        <ele>2337</ele>
        <time>2013-02-10T09:24:01Z</time>
      </trkpt>
      <trkpt lat="45.55588" lon="6.81689">
        <ele>2322</ele>
        <time>2013-02-10T09:24:06Z</time>
      </trkpt>
      <trkpt lat="45.55613" lon="6.81739">
        <ele>2318</ele>
        <time>2013-02-10T09:24:11Z</time>
      </trkpt>
      <trkpt lat="45.55651" lon="6.81806">
        <ele>2309</ele>
        <time>2013-02-10T09:24:17Z</time>
      </trkpt>
      <trkpt lat="45.55698" lon="6.81857">
        <ele>2298</ele>
        <time>2013-02-10T09:24:23Z</time>
      </trkpt>
      <trkpt lat="45.5575" lon="6.81902">
        <ele>2293</ele>
        <time>2013-02-10T09:24:29Z</time>
      </trkpt>
      <trkpt lat="45.55798" lon="6.81952">
        <ele>2281</ele>
        <time>2013-02-10T09:24:34Z</time>
      </trkpt>
      <trkpt lat="45.55866" lon="6.82011">
        <ele>2267</ele>
        <time>2013-02-10T09:24:40Z</time>
      </trkpt>
      <trkpt lat="45.55902" lon="6.82073">
        <ele>2264</ele>
        <time>2013-02-10T09:24:45Z</time>
      </trkpt>
      <trkpt lat="45.55927" lon="6.82115">
        <ele>2258</ele>
        <time>2013-02-10T09:24:50Z</time>
      </trkpt>
      <trkpt lat="45.5594" lon="6.82135">
        <ele>2257</ele>
        <time>2013-02-10T09:24:53Z</time>
      </trkpt>
      <trkpt lat="45.55971" lon="6.8217">
        <ele>2254</ele>
        <time>2013-02-10T09:24:59Z</time>
      </trkpt>
      <trkpt lat="45.56008" lon="6.82219">
        <ele>2243</ele>
        <time>2013-02-10T09:25:05Z</time>
      </trkpt>
      <trkpt lat="45.56037" lon="6.82264">
        <ele>2242</ele>
        <time>2013-02-10T09:25:09Z</time>
      </trkpt>
      <trkpt lat="45.56076" lon="6.82319">
        <ele>2237</ele>
        <time>2013-02-10T09:25:14Z</time>
      </trkpt>
      <trkpt lat="45.56118" lon="6.8238">
        <ele>2222</ele>
        <time>2013-02-10T09:25:20Z</time>
      </trkpt>
      <trkpt lat="45.5617" lon="6.82415">
        <ele>2211</ele>
        <time>2013-02-10T09:25:25Z</time>
      </trkpt>
      <trkpt lat="45.56215" lon="6.82445">
        <ele>2209</ele>
        <time>2013-02-10T09:25:30Z</time>
      </trkpt>
      <trkpt lat="45.56266" lon="6.82455">
        <ele>2202</ele>
        <time>2013-02-10T09:25:35Z</time>
      </trkpt>
      <trkpt lat="45.56316" lon="6.82456">
        <ele>2200</ele>
        <time>2013-02-10T09:25:40Z</time>
      </trkpt>
      <trkpt lat="45.56362" lon="6.82467">
        <ele>2193</ele>
        <time>2013-02-10T09:25:45Z</time>
      </trkpt>
      <trkpt lat="45.56392" lon="6.82483">
        <ele>2192</ele>
        <time>2013-02-10T09:25:50Z</time>
      </trkpt>
      <trkpt lat="45.56431" lon="6.825">
        <ele>2188</ele>
        <time>2013-02-10T09:25:56Z</time>
      </trkpt>
      <trkpt lat="45.56473" lon="6.82524">
        <ele>2188</ele>
        <time>2013-02-10T09:26:02Z</time>
      </trkpt>
      <trkpt lat="45.56498" lon="6.82536">
        <ele>2187</ele>
        <time>2013-02-10T09:26:07Z</time>
      </trkpt>
      <trkpt lat="45.56515" lon="6.82555">
        <ele>2183</ele>
        <time>2013-02-10T09:26:13Z</time>
      </trkpt>
      <trkpt lat="45.56518" lon="6.82563">
        <ele>2183</ele>
        <time>2013-02-10T09:26:16Z</time>
      </trkpt>
      <trkpt lat="45.56518" lon="6.82563">
        <ele>2183</ele>
        <time>2013-02-10T09:26:21Z</time>
      </trkpt>
      <trkpt lat="45.56518" lon="6.82563">
        <ele>2183</ele>
        <time>2013-02-10T09:26:50Z</time>
      </trkpt>
      <trkpt lat="45.56532" lon="6.82588">
        <ele>2187</ele>
        <time>2013-02-10T09:26:50Z</time>
      </trkpt>
      <trkpt lat="45.56544" lon="6.82607">
        <ele>2187</ele>
        <time>2013-02-10T09:27:02Z</time>
      </trkpt>
      <trkpt lat="45.56563" lon="6.82645">
        <ele>2188</ele>
        <time>2013-02-10T09:27:21Z</time>
      </trkpt>
      <trkpt lat="45.56572" lon="6.82656">
        <ele>2187</ele>
        <time>2013-02-10T09:27:30Z</time>
      </trkpt>
      <trkpt lat="45.5658" lon="6.8267">
        <ele>2187</ele>
        <time>2013-02-10T09:27:39Z</time>
      </trkpt>
      <trkpt lat="45.56595" lon="6.82695">
        <ele>2183</ele>
        <time>2013-02-10T09:27:54Z</time>
      </trkpt>
      <trkpt lat="45.56605" lon="6.82701">
        <ele>2182</ele>
        <time>2013-02-10T09:28:02Z</time>
      </trkpt>
      <trkpt lat="45.56611" lon="6.82702">
        <ele>2181</ele>
        <time>2013-02-10T09:28:05Z</time>
      </trkpt>
      <trkpt lat="45.56611" lon="6.82702">
        <ele>2181</ele>
        <time>2013-02-10T09:28:13Z</time>
      </trkpt>
      <trkpt lat="45.56611" lon="6.82702">
        <ele>2181</ele>
        <time>2013-02-10T09:30:21Z</time>
      </trkpt>
      <trkpt lat="45.56633" lon="6.82718">
        <ele>2180</ele>
        <time>2013-02-10T09:30:21Z</time>
      </trkpt>
      <trkpt lat="45.56673" lon="6.8276">
        <ele>2170</ele>
        <time>2013-02-10T09:30:26Z</time>
      </trkpt>
      <trkpt lat="45.56714" lon="6.8283">
        <ele>2166</ele>
        <time>2013-02-10T09:30:32Z</time>
      </trkpt>
      <trkpt lat="45.56768" lon="6.82852">
        <ele>2155</ele>
        <time>2013-02-10T09:30:39Z</time>
      </trkpt>
      <trkpt lat="45.5682" lon="6.8288">
        <ele>2148</ele>
        <time>2013-02-10T09:30:45Z</time>
      </trkpt>
      <trkpt lat="45.56864" lon="6.82871">
        <ele>2135</ele>
        <time>2013-02-10T09:30:50Z</time>
      </trkpt>
      <trkpt lat="45.5688" lon="6.82834">
        <ele>2132</ele>
        <time>2013-02-10T09:30:53Z</time>
      </trkpt>
      <trkpt lat="45.56903" lon="6.82797">
        <ele>2128</ele>
        <time>2013-02-10T09:30:56Z</time>
      </trkpt>
      <trkpt lat="45.56933" lon="6.82768">
        <ele>2117</ele>
        <time>2013-02-10T09:30:59Z</time>
      </trkpt>
      <trkpt lat="45.56946" lon="6.82771">
        <ele>2116</ele>
        <time>2013-02-10T09:31:02Z</time>
      </trkpt>
      <trkpt lat="45.56946" lon="6.82771">
        <ele>2116</ele>
        <time>2013-02-10T09:31:09Z</time>
      </trkpt>
      <trkpt lat="45.56946" lon="6.82771">
        <ele>2116</ele>
        <time>2013-02-10T09:33:16Z</time>
      </trkpt>
      <trkpt lat="45.56934" lon="6.82805">
        <ele>2117</ele>
        <time>2013-02-10T09:33:16Z</time>
      </trkpt>
      <trkpt lat="45.56911" lon="6.82819">
        <ele>2126</ele>
        <time>2013-02-10T09:33:21Z</time>
      </trkpt>
      <trkpt lat="45.56887" lon="6.82836">
        <ele>2131</ele>
        <time>2013-02-10T09:33:27Z</time>
      </trkpt>
      <trkpt lat="45.56861" lon="6.82848">
        <ele>2135</ele>
        <time>2013-02-10T09:33:33Z</time>
      </trkpt>
      <trkpt lat="45.56842" lon="6.82858">
        <ele>2137</ele>
        <time>2013-02-10T09:33:38Z</time>
      </trkpt>
      <trkpt lat="45.56816" lon="6.82868">
        <ele>2149</ele>
        <time>2013-02-10T09:33:44Z</time>
      </trkpt>
      <trkpt lat="45.568" lon="6.82879">
        <ele>2151</ele>
        <time>2013-02-10T09:33:48Z</time>
      </trkpt>
      <trkpt lat="45.56779" lon="6.82891">
        <ele>2153</ele>
        <time>2013-02-10T09:33:53Z</time>
      </trkpt>
      <trkpt lat="45.56765" lon="6.82902">
        <ele>2156</ele>
        <time>2013-02-10T09:33:57Z</time>
      </trkpt>
      <trkpt lat="45.56751" lon="6.82909">
        <ele>2159</ele>
        <time>2013-02-10T09:34:00Z</time>
      </trkpt>
      <trkpt lat="45.56735" lon="6.82917">
        <ele>2165</ele>
        <time>2013-02-10T09:34:04Z</time>
      </trkpt>
      <trkpt lat="45.56713" lon="6.8293">
        <ele>2169</ele>
        <time>2013-02-10T09:34:10Z</time>
      </trkpt>
      <trkpt lat="45.56688" lon="6.82943">
        <ele>2171</ele>
        <time>2013-02-10T09:34:16Z</time>
      </trkpt>
      <trkpt lat="45.5667" lon="6.82956">
        <ele>2172</ele>
        <time>2013-02-10T09:34:21Z</time>
      </trkpt>
      <trkpt lat="45.56648" lon="6.82965">
        <ele>2177</ele>
        <time>2013-02-10T09:34:26Z</time>
      </trkpt>
      <trkpt lat="45.56628" lon="6.82978">
        <ele>2177</ele>
        <time>2013-02-10T09:34:31Z</time>
      </trkpt>
      <trkpt lat="45.56608" lon="6.82985">
        <ele>2177</ele>
        <time>2013-02-10T09:34:35Z</time>
      </trkpt>
      <trkpt lat="45.56588" lon="6.82994">
        <ele>2177</ele>
        <time>2013-02-10T09:34:40Z</time>
      </trkpt>
      <trkpt lat="45.56562" lon="6.83005">
        <ele>2180</ele>
        <time>2013-02-10T09:34:46Z</time>
      </trkpt>
      <trkpt lat="45.56537" lon="6.8302">
        <ele>2182</ele>
        <time>2013-02-10T09:34:52Z</time>
      </trkpt>
      <trkpt lat="45.56517" lon="6.83031">
        <ele>2184</ele>
        <time>2013-02-10T09:34:57Z</time>
      </trkpt>
      <trkpt lat="45.56492" lon="6.83043">
        <ele>2197</ele>
        <time>2013-02-10T09:35:03Z</time>
      </trkpt>
      <trkpt lat="45.56471" lon="6.83054">
        <ele>2199</ele>
        <time>2013-02-10T09:35:08Z</time>
      </trkpt>
      <trkpt lat="45.56446" lon="6.83066">
        <ele>2204</ele>
        <time>2013-02-10T09:35:14Z</time>
      </trkpt>
      <trkpt lat="45.56422" lon="6.8308">
        <ele>2213</ele>
        <time>2013-02-10T09:35:20Z</time>
      </trkpt>
      <trkpt lat="45.56399" lon="6.83094">
        <ele>2220</ele>
        <time>2013-02-10T09:35:26Z</time>
      </trkpt>
      <trkpt lat="45.56387" lon="6.83099">
        <ele>2222</ele>
        <time>2013-02-10T09:35:29Z</time>
      </trkpt>
      <trkpt lat="45.56362" lon="6.83113">
        <ele>2224</ele>
        <time>2013-02-10T09:35:35Z</time>
      </trkpt>
      <trkpt lat="45.56342" lon="6.83123">
        <ele>2225</ele>
        <time>2013-02-10T09:35:40Z</time>
      </trkpt>
      <trkpt lat="45.56318" lon="6.83139">
        <ele>2231</ele>
        <time>2013-02-10T09:35:46Z</time>
      </trkpt>
      <trkpt lat="45.56298" lon="6.83148">
        <ele>2232</ele>
        <time>2013-02-10T09:35:51Z</time>
      </trkpt>
      <trkpt lat="45.56282" lon="6.83153">
        <ele>2233</ele>
        <time>2013-02-10T09:35:55Z</time>
      </trkpt>
      <trkpt lat="45.56254" lon="6.83165">
        <ele>2235</ele>
        <time>2013-02-10T09:36:01Z</time>
      </trkpt>
      <trkpt lat="45.56229" lon="6.8318">
        <ele>2244</ele>
        <time>2013-02-10T09:36:07Z</time>
      </trkpt>
      <trkpt lat="45.56208" lon="6.8319">
        <ele>2249</ele>
        <time>2013-02-10T09:36:12Z</time>
      </trkpt>
      <trkpt lat="45.56183" lon="6.832">
        <ele>2253</ele>
        <time>2013-02-10T09:36:18Z</time>
      </trkpt>
      <trkpt lat="45.5616" lon="6.8321">
        <ele>2280</ele>
        <time>2013-02-10T09:36:24Z</time>
      </trkpt>
      <trkpt lat="45.56137" lon="6.83223">
        <ele>2285</ele>
        <time>2013-02-10T09:36:30Z</time>
      </trkpt>
      <trkpt lat="45.56111" lon="6.83237">
        <ele>2295</ele>
        <time>2013-02-10T09:36:37Z</time>
      </trkpt>
      <trkpt lat="45.56086" lon="6.83256">
        <ele>2306</ele>
        <time>2013-02-10T09:36:45Z</time>
      </trkpt>
      <trkpt lat="45.56065" lon="6.83268">
        <ele>2327</ele>
        <time>2013-02-10T09:36:51Z</time>
      </trkpt>
      <trkpt lat="45.56047" lon="6.83281">
        <ele>2333</ele>
        <time>2013-02-10T09:36:56Z</time>
      </trkpt>
      <trkpt lat="45.56024" lon="6.83296">
        <ele>2340</ele>
        <time>2013-02-10T09:37:02Z</time>
      </trkpt>
      <trkpt lat="45.56001" lon="6.83312">
        <ele>2346</ele>
        <time>2013-02-10T09:37:08Z</time>
      </trkpt>
      <trkpt lat="45.55984" lon="6.83322">
        <ele>2372</ele>
        <time>2013-02-10T09:37:13Z</time>
      </trkpt>
      <trkpt lat="45.55953" lon="6.83336">
        <ele>2387</ele>
        <time>2013-02-10T09:37:21Z</time>
      </trkpt>
      <trkpt lat="45.5593" lon="6.83355">
        <ele>2394</ele>
        <time>2013-02-10T09:37:26Z</time>
      </trkpt>
      <trkpt lat="45.55915" lon="6.83363">
        <ele>2426</ele>
        <time>2013-02-10T09:37:30Z</time>
      </trkpt>
      <trkpt lat="45.55885" lon="6.83379">
        <ele>2435</ele>
        <time>2013-02-10T09:37:37Z</time>
      </trkpt>
      <trkpt lat="45.55869" lon="6.83387">
        <ele>2441</ele>
        <time>2013-02-10T09:37:42Z</time>
      </trkpt>
      <trkpt lat="45.55842" lon="6.83401">
        <ele>2454</ele>
        <time>2013-02-10T09:37:49Z</time>
      </trkpt>
      <trkpt lat="45.55822" lon="6.83412">
        <ele>2475</ele>
        <time>2013-02-10T09:37:54Z</time>
      </trkpt>
      <trkpt lat="45.55799" lon="6.83425">
        <ele>2490</ele>
        <time>2013-02-10T09:38:00Z</time>
      </trkpt>
      <trkpt lat="45.55779" lon="6.83437">
        <ele>2498</ele>
        <time>2013-02-10T09:38:05Z</time>
      </trkpt>
      <trkpt lat="45.55759" lon="6.83443">
        <ele>2502</ele>
        <time>2013-02-10T09:38:10Z</time>
      </trkpt>
      <trkpt lat="45.55735" lon="6.8345">
        <ele>2525</ele>
        <time>2013-02-10T09:38:16Z</time>
      </trkpt>
      <trkpt lat="45.55714" lon="6.83462">
        <ele>2528</ele>
        <time>2013-02-10T09:38:21Z</time>
      </trkpt>
      <trkpt lat="45.557" lon="6.83468">
        <ele>2530</ele>
        <time>2013-02-10T09:38:24Z</time>
      </trkpt>
      <trkpt lat="45.55686" lon="6.83476">
        <ele>2531</ele>
        <time>2013-02-10T09:38:27Z</time>
      </trkpt>
      <trkpt lat="45.55669" lon="6.83482">
        <ele>2532</ele>
        <time>2013-02-10T09:38:31Z</time>
      </trkpt>
      <trkpt lat="45.55649" lon="6.8349">
        <ele>2551</ele>
        <time>2013-02-10T09:38:36Z</time>
      </trkpt>
      <trkpt lat="45.55628" lon="6.835">
        <ele>2551</ele>
        <time>2013-02-10T09:38:41Z</time>
      </trkpt>
      <trkpt lat="45.55602" lon="6.83513">
        <ele>2607.8</ele>
        <time>2013-02-10T09:38:47Z</time>
      </trkpt>
      <trkpt lat="45.5558" lon="6.83521">
        <ele>2622.5</ele>
        <time>2013-02-10T09:38:52Z</time>
      </trkpt>
      <trkpt lat="45.55565" lon="6.83524">
        <ele>2631.5</ele>
        <time>2013-02-10T09:38:56Z</time>
      </trkpt>
      <trkpt lat="45.55547" lon="6.8353">
        <ele>2642.8</ele>
        <time>2013-02-10T09:39:00Z</time>
      </trkpt>
      <trkpt lat="45.55519" lon="6.83538">
        <ele>2661.7</ele>
        <time>2013-02-10T09:39:07Z</time>
      </trkpt>
      <trkpt lat="45.55499" lon="6.83544">
        <ele>2672.5</ele>
        <time>2013-02-10T09:39:13Z</time>
      </trkpt>
      <trkpt lat="45.5548" lon="6.83551">
        <ele>2675.9</ele>
        <time>2013-02-10T09:39:21Z</time>
      </trkpt>
      <trkpt lat="45.55488" lon="6.83572">
        <ele>2677.3</ele>
        <time>2013-02-10T09:39:31Z</time>
      </trkpt>
      <trkpt lat="45.55478" lon="6.83587">
        <ele>2679.2</ele>
        <time>2013-02-10T09:39:42Z</time>
      </trkpt>
      <trkpt lat="45.55467" lon="6.83597">
        <ele>2679</ele>
        <time>2013-02-10T09:39:55Z</time>
      </trkpt>
      <trkpt lat="45.55463" lon="6.83607">
        <ele>2679.1</ele>
        <time>2013-02-10T09:40:04Z</time>
      </trkpt>
      <trkpt lat="45.55463" lon="6.83607">
        <ele>2679.1</ele>
        <time>2013-02-10T09:40:11Z</time>
      </trkpt>
      <trkpt lat="45.55463" lon="6.83607">
        <ele>2679.1</ele>
        <time>2013-02-10T09:40:51Z</time>
      </trkpt>
      <trkpt lat="45.55478" lon="6.83629">
        <ele>2684.2</ele>
        <time>2013-02-10T09:40:51Z</time>
      </trkpt>
      <trkpt lat="45.55482" lon="6.8363">
        <ele>2685.6</ele>
        <time>2013-02-10T09:40:52Z</time>
      </trkpt>
      <trkpt lat="45.55482" lon="6.8363">
        <ele>2685.6</ele>
        <time>2013-02-10T09:40:57Z</time>
      </trkpt>
      <trkpt lat="45.55482" lon="6.8363">
        <ele>2685.6</ele>
        <time>2013-02-10T09:41:50Z</time>
      </trkpt>
      <trkpt lat="45.55515" lon="6.83643">
        <ele>2681.4</ele>
        <time>2013-02-10T09:41:50Z</time>
      </trkpt>
      <trkpt lat="45.55469" lon="6.83597">
        <ele>2679.6</ele>
        <time>2013-02-10T09:42:03Z</time>
      </trkpt>
      <trkpt lat="45.55476" lon="6.83634">
        <ele>2684.2</ele>
        <time>2013-02-10T09:42:10Z</time>
      </trkpt>
      <trkpt lat="45.55445" lon="6.83603">
        <ele>2674</ele>
        <time>2013-02-10T09:42:32Z</time>
      </trkpt>
      <trkpt lat="45.55439" lon="6.83595">
        <ele>2667.8</ele>
        <time>2013-02-10T09:42:34Z</time>
      </trkpt>
      <trkpt lat="45.55439" lon="6.83595">
        <ele>2667.8</ele>
        <time>2013-02-10T09:42:43Z</time>
      </trkpt>
      <trkpt lat="45.55439" lon="6.83595">
        <ele>2667.8</ele>
        <time>2013-02-10T09:45:18Z</time>
      </trkpt>
      <trkpt lat="45.55441" lon="6.83634">
        <ele>2671.4</ele>
        <time>2013-02-10T09:45:18Z</time>
      </trkpt>
      <trkpt lat="45.55441" lon="6.83634">
        <ele>2671.4</ele>
        <time>2013-02-10T09:50:02Z</time>
      </trkpt>
      <trkpt lat="45.55284" lon="6.84792">
        <ele>3153</ele>
        <time>2013-02-10T09:51:44Z</time>
      </trkpt>
      <trkpt lat="45.55287" lon="6.84755">
        <ele>3149</ele>
        <time>2013-02-10T09:51:50Z</time>
      </trkpt>
      <trkpt lat="45.55269" lon="6.847">
        <ele>3129</ele>
        <time>2013-02-10T09:51:56Z</time>
      </trkpt>
      <trkpt lat="45.55293" lon="6.84709">
        <ele>3127</ele>
        <time>2013-02-10T09:52:01Z</time>
      </trkpt>
      <trkpt lat="45.55339" lon="6.84753">
        <ele>3117</ele>
        <time>2013-02-10T09:52:09Z</time>
      </trkpt>
      <trkpt lat="45.55361" lon="6.84786">
        <ele>3108</ele>
        <time>2013-02-10T09:52:15Z</time>
      </trkpt>
      <trkpt lat="45.55374" lon="6.84804">
        <ele>3105</ele>
        <time>2013-02-10T09:52:22Z</time>
      </trkpt>
      <trkpt lat="45.55415" lon="6.84813">
        <ele>3092</ele>
        <time>2013-02-10T09:52:32Z</time>
      </trkpt>
      <trkpt lat="45.55436" lon="6.84862">
        <ele>3065</ele>
        <time>2013-02-10T09:52:38Z</time>
      </trkpt>
      <trkpt lat="45.55447" lon="6.84908">
        <ele>3062</ele>
        <time>2013-02-10T09:52:43Z</time>
      </trkpt>
      <trkpt lat="45.55454" lon="6.84939">
        <ele>3056</ele>
        <time>2013-02-10T09:52:48Z</time>
      </trkpt>
      <trkpt lat="45.55469" lon="6.8499">
        <ele>3052</ele>
        <time>2013-02-10T09:52:54Z</time>
      </trkpt>
      <trkpt lat="45.5553" lon="6.85064">
        <ele>3030</ele>
        <time>2013-02-10T09:53:03Z</time>
      </trkpt>
      <trkpt lat="45.55581" lon="6.85073">
        <ele>3019</ele>
        <time>2013-02-10T09:53:08Z</time>
      </trkpt>
      <trkpt lat="45.55637" lon="6.8505">
        <ele>2999</ele>
        <time>2013-02-10T09:53:14Z</time>
      </trkpt>
      <trkpt lat="45.55697" lon="6.85025">
        <ele>2978</ele>
        <time>2013-02-10T09:53:20Z</time>
      </trkpt>
      <trkpt lat="45.5575" lon="6.85002">
        <ele>2954</ele>
        <time>2013-02-10T09:53:26Z</time>
      </trkpt>
      <trkpt lat="45.55788" lon="6.84966">
        <ele>2929</ele>
        <time>2013-02-10T09:53:31Z</time>
      </trkpt>
      <trkpt lat="45.55832" lon="6.84909">
        <ele>2898</ele>
        <time>2013-02-10T09:53:37Z</time>
      </trkpt>
      <trkpt lat="45.5588" lon="6.84837">
        <ele>2871</ele>
        <time>2013-02-10T09:53:43Z</time>
      </trkpt>
      <trkpt lat="45.5593" lon="6.84856">
        <ele>2858</ele>
        <time>2013-02-10T09:53:48Z</time>
      </trkpt>
      <trkpt lat="45.55979" lon="6.84861">
        <ele>2854</ele>
        <time>2013-02-10T09:53:54Z</time>
      </trkpt>
      <trkpt lat="45.56027" lon="6.84842">
        <ele>2847</ele>
        <time>2013-02-10T09:53:59Z</time>
      </trkpt>
      <trkpt lat="45.56055" lon="6.84818">
        <ele>2832</ele>
        <time>2013-02-10T09:54:02Z</time>
      </trkpt>
      <trkpt lat="45.56079" lon="6.84795">
        <ele>2832</ele>
        <time>2013-02-10T09:54:05Z</time>
      </trkpt>
      <trkpt lat="45.56103" lon="6.84772">
        <ele>2831</ele>
        <time>2013-02-10T09:54:08Z</time>
      </trkpt>
      <trkpt lat="45.56145" lon="6.8471">
        <ele>2782.2</ele>
        <time>2013-02-10T09:54:14Z</time>
      </trkpt>
      <trkpt lat="45.56169" lon="6.84695">
        <ele>2778</ele>
        <time>2013-02-10T09:54:17Z</time>
      </trkpt>
      <trkpt lat="45.56192" lon="6.84688">
        <ele>2778</ele>
        <time>2013-02-10T09:54:20Z</time>
      </trkpt>
      <trkpt lat="45.5622" lon="6.84772">
        <ele>2832</ele>
        <time>2013-02-10T09:54:26Z</time>
      </trkpt>
      <trkpt lat="45.56237" lon="6.84826">
        <ele>2832</ele>
        <time>2013-02-10T09:54:31Z</time>
      </trkpt>
      <trkpt lat="45.56253" lon="6.84862">
        <ele>2775.1</ele>
        <time>2013-02-10T09:54:34Z</time>
      </trkpt>
      <trkpt lat="45.56275" lon="6.84891">
        <ele>2766.2</ele>
        <time>2013-02-10T09:54:37Z</time>
      </trkpt>
      <trkpt lat="45.5632" lon="6.84922">
        <ele>2747.1</ele>
        <time>2013-02-10T09:54:43Z</time>
      </trkpt>
      <trkpt lat="45.56379" lon="6.84916">
        <ele>2720.8</ele>
        <time>2013-02-10T09:54:49Z</time>
      </trkpt>
      <trkpt lat="45.56434" lon="6.84893">
        <ele>2696.1</ele>
        <time>2013-02-10T09:54:54Z</time>
      </trkpt>
      <trkpt lat="45.56472" lon="6.84899">
        <ele>2685.4</ele>
        <time>2013-02-10T09:54:57Z</time>
      </trkpt>
      <trkpt lat="45.56536" lon="6.84904">
        <ele>2664.8</ele>
        <time>2013-02-10T09:55:02Z</time>
      </trkpt>
      <trkpt lat="45.566" lon="6.84872">
        <ele>2640.1</ele>
        <time>2013-02-10T09:55:08Z</time>
      </trkpt>
      <trkpt lat="45.56644" lon="6.84833">
        <ele>2623.8</ele>
        <time>2013-02-10T09:55:14Z</time>
      </trkpt>
      <trkpt lat="45.56709" lon="6.84779">
        <ele>2601.9</ele>
        <time>2013-02-10T09:55:20Z</time>
      </trkpt>
      <trkpt lat="45.56745" lon="6.84724">
        <ele>2548</ele>
        <time>2013-02-10T09:55:24Z</time>
      </trkpt>
      <trkpt lat="45.56772" lon="6.84692">
        <ele>2596.6</ele>
        <time>2013-02-10T09:55:27Z</time>
      </trkpt>
      <trkpt lat="45.56822" lon="6.84651">
        <ele>2542</ele>
        <time>2013-02-10T09:55:33Z</time>
      </trkpt>
      <trkpt lat="45.56895" lon="6.84617">
        <ele>2545</ele>
        <time>2013-02-10T09:55:40Z</time>
      </trkpt>
      <trkpt lat="45.56972" lon="6.84603">
        <ele>2544</ele>
        <time>2013-02-10T09:55:46Z</time>
      </trkpt>
      <trkpt lat="45.57017" lon="6.84544">
        <ele>2521</ele>
        <time>2013-02-10T09:55:52Z</time>
      </trkpt>
      <trkpt lat="45.57041" lon="6.84482">
        <ele>2506</ele>
        <time>2013-02-10T09:55:57Z</time>
      </trkpt>
      <trkpt lat="45.57074" lon="6.844">
        <ele>2489</ele>
        <time>2013-02-10T09:56:03Z</time>
      </trkpt>
      <trkpt lat="45.57118" lon="6.84342">
        <ele>2476</ele>
        <time>2013-02-10T09:56:09Z</time>
      </trkpt>
      <trkpt lat="45.57166" lon="6.84273">
        <ele>2454</ele>
        <time>2013-02-10T09:56:15Z</time>
      </trkpt>
      <trkpt lat="45.57201" lon="6.84203">
        <ele>2426</ele>
        <time>2013-02-10T09:56:21Z</time>
      </trkpt>
      <trkpt lat="45.57243" lon="6.84183">
        <ele>2416</ele>
        <time>2013-02-10T09:56:25Z</time>
      </trkpt>
      <trkpt lat="45.57303" lon="6.84182">
        <ele>2403</ele>
        <time>2013-02-10T09:56:31Z</time>
      </trkpt>
      <trkpt lat="45.57354" lon="6.84184">
        <ele>2382</ele>
        <time>2013-02-10T09:56:36Z</time>
      </trkpt>
      <trkpt lat="45.57419" lon="6.84201">
        <ele>2354</ele>
        <time>2013-02-10T09:56:42Z</time>
      </trkpt>
      <trkpt lat="45.57497" lon="6.84218">
        <ele>2346</ele>
        <time>2013-02-10T09:56:50Z</time>
      </trkpt>
      <trkpt lat="45.57555" lon="6.84223">
        <ele>2316</ele>
        <time>2013-02-10T09:56:56Z</time>
      </trkpt>
      <trkpt lat="45.57619" lon="6.84231">
        <ele>2290</ele>
        <time>2013-02-10T09:57:01Z</time>
      </trkpt>
      <trkpt lat="45.5772" lon="6.84212">
        <ele>2267</ele>
        <time>2013-02-10T09:57:07Z</time>
      </trkpt>
      <trkpt lat="45.5778" lon="6.84206">
        <ele>2259</ele>
        <time>2013-02-10T09:57:11Z</time>
      </trkpt>
      <trkpt lat="45.57811" lon="6.8421">
        <ele>2259</ele>
        <time>2013-02-10T09:57:14Z</time>
      </trkpt>
      <trkpt lat="45.57857" lon="6.84215">
        <ele>2253</ele>
        <time>2013-02-10T09:57:20Z</time>
      </trkpt>
      <trkpt lat="45.5789" lon="6.84223">
        <ele>2252</ele>
        <time>2013-02-10T09:57:25Z</time>
      </trkpt>
      <trkpt lat="45.57958" lon="6.84226">
        <ele>2235</ele>
        <time>2013-02-10T09:57:32Z</time>
      </trkpt>
      <trkpt lat="45.58031" lon="6.84246">
        <ele>2217</ele>
        <time>2013-02-10T09:57:38Z</time>
      </trkpt>
      <trkpt lat="45.58093" lon="6.84273">
        <ele>2203</ele>
        <time>2013-02-10T09:57:44Z</time>
      </trkpt>
      <trkpt lat="45.5817" lon="6.84297">
        <ele>2170</ele>
        <time>2013-02-10T09:57:51Z</time>
      </trkpt>
      <trkpt lat="45.58197" lon="6.84302">
        <ele>2166</ele>
        <time>2013-02-10T09:57:54Z</time>
      </trkpt>
      <trkpt lat="45.58258" lon="6.84308">
        <ele>2140</ele>
        <time>2013-02-10T09:58:00Z</time>
      </trkpt>
      <trkpt lat="45.58316" lon="6.84323">
        <ele>2130</ele>
        <time>2013-02-10T09:58:05Z</time>
      </trkpt>
      <trkpt lat="45.58345" lon="6.84396">
        <ele>2111</ele>
        <time>2013-02-10T09:58:11Z</time>
      </trkpt>
      <trkpt lat="45.5838" lon="6.8445">
        <ele>2097</ele>
        <time>2013-02-10T09:58:16Z</time>
      </trkpt>
      <trkpt lat="45.58407" lon="6.8453">
        <ele>2077</ele>
        <time>2013-02-10T09:58:22Z</time>
      </trkpt>
      <trkpt lat="45.58418" lon="6.8459">
        <ele>2047</ele>
        <time>2013-02-10T09:58:26Z</time>
      </trkpt>
      <trkpt lat="45.58406" lon="6.8462">
        <ele>2057</ele>
        <time>2013-02-10T09:58:33Z</time>
      </trkpt>
      <trkpt lat="45.58407" lon="6.8464">
        <ele>2052</ele>
        <time>2013-02-10T09:58:41Z</time>
      </trkpt>
      <trkpt lat="45.58412" lon="6.84662">
        <ele>2038</ele>
        <time>2013-02-10T09:58:47Z</time>
      </trkpt>
      <trkpt lat="45.58423" lon="6.84699">
        <ele>2012</ele>
        <time>2013-02-10T09:58:55Z</time>
      </trkpt>
      <trkpt lat="45.58426" lon="6.84727">
        <ele>2006</ele>
        <time>2013-02-10T09:59:03Z</time>
      </trkpt>
      <trkpt lat="45.58438" lon="6.84745">
        <ele>2004</ele>
        <time>2013-02-10T09:59:10Z</time>
      </trkpt>
      <trkpt lat="45.58453" lon="6.84761">
        <ele>1985</ele>
        <time>2013-02-10T09:59:21Z</time>
      </trkpt>
      <trkpt lat="45.58467" lon="6.848">
        <ele>1977</ele>
        <time>2013-02-10T09:59:32Z</time>
      </trkpt>
      <trkpt lat="45.58486" lon="6.84815">
        <ele>1969</ele>
        <time>2013-02-10T09:59:40Z</time>
      </trkpt>
      <trkpt lat="45.58497" lon="6.84839">
        <ele>1953</ele>
        <time>2013-02-10T09:59:48Z</time>
      </trkpt>
      <trkpt lat="45.58519" lon="6.84828">
        <ele>1951</ele>
        <time>2013-02-10T09:59:58Z</time>
      </trkpt>
      <trkpt lat="45.58548" lon="6.84826">
        <ele>1945</ele>
        <time>2013-02-10T10:00:05Z</time>
      </trkpt>
      <trkpt lat="45.58575" lon="6.84859">
        <ele>1922</ele>
        <time>2013-02-10T10:00:13Z</time>
      </trkpt>
      <trkpt lat="45.58561" lon="6.849">
        <ele>1916</ele>
        <time>2013-02-10T10:00:18Z</time>
      </trkpt>
      <trkpt lat="45.58532" lon="6.85011">
        <ele>1882</ele>
        <time>2013-02-10T10:00:26Z</time>
      </trkpt>
      <trkpt lat="45.58521" lon="6.85116">
        <ele>1857</ele>
        <time>2013-02-10T10:00:32Z</time>
      </trkpt>
      <trkpt lat="45.58492" lon="6.85195">
        <ele>1861</ele>
        <time>2013-02-10T10:00:37Z</time>
      </trkpt>
      <trkpt lat="45.5849" lon="6.85265">
        <ele>1842</ele>
        <time>2013-02-10T10:00:42Z</time>
      </trkpt>
      <trkpt lat="45.58478" lon="6.85298">
        <ele>1843</ele>
        <time>2013-02-10T10:00:45Z</time>
      </trkpt>
      <trkpt lat="45.5856" lon="6.85337">
        <ele>1800</ele>
        <time>2013-02-10T10:00:54Z</time>
      </trkpt>
      <trkpt lat="45.58649" lon="6.85352">
        <ele>1766</ele>
        <time>2013-02-10T10:01:01Z</time>
      </trkpt>
      <trkpt lat="45.58712" lon="6.85336">
        <ele>1738</ele>
        <time>2013-02-10T10:01:07Z</time>
      </trkpt>
      <trkpt lat="45.58732" lon="6.85281">
        <ele>1743</ele>
        <time>2013-02-10T10:01:12Z</time>
      </trkpt>
      <trkpt lat="45.58752" lon="6.85247">
        <ele>1734</ele>
        <time>2013-02-10T10:01:15Z</time>
      </trkpt>
      <trkpt lat="45.58815" lon="6.85216">
        <ele>1726</ele>
        <time>2013-02-10T10:01:21Z</time>
      </trkpt>
      <trkpt lat="45.58858" lon="6.8518">
        <ele>1708</ele>
        <time>2013-02-10T10:01:26Z</time>
      </trkpt>
      <trkpt lat="45.58905" lon="6.85159">
        <ele>1700</ele>
        <time>2013-02-10T10:01:33Z</time>
      </trkpt>
      <trkpt lat="45.58936" lon="6.85135">
        <ele>1680</ele>
        <time>2013-02-10T10:01:38Z</time>
      </trkpt>
      <trkpt lat="45.58962" lon="6.85125">
        <ele>1675</ele>
        <time>2013-02-10T10:01:42Z</time>
      </trkpt>
      <trkpt lat="45.58999" lon="6.85126">
        <ele>1669</ele>
        <time>2013-02-10T10:01:48Z</time>
      </trkpt>
      <trkpt lat="45.5903" lon="6.8515">
        <ele>1641</ele>
        <time>2013-02-10T10:01:54Z</time>
      </trkpt>
      <trkpt lat="45.5906" lon="6.85162">
        <ele>1630</ele>
        <time>2013-02-10T10:02:00Z</time>
      </trkpt>
      <trkpt lat="45.59091" lon="6.85172">
        <ele>1606</ele>
        <time>2013-02-10T10:02:06Z</time>
      </trkpt>
      <trkpt lat="45.59108" lon="6.85181">
        <ele>1595</ele>
        <time>2013-02-10T10:02:11Z</time>
      </trkpt>
      <trkpt lat="45.59142" lon="6.8521">
        <ele>1583</ele>
        <time>2013-02-10T10:02:18Z</time>
      </trkpt>
      <trkpt lat="45.59166" lon="6.85225">
        <ele>1575</ele>
        <time>2013-02-10T10:02:25Z</time>
      </trkpt>
      <trkpt lat="45.59198" lon="6.8526">
        <ele>1546</ele>
        <time>2013-02-10T10:02:31Z</time>
      </trkpt>
      <trkpt lat="45.59213" lon="6.85282">
        <ele>1541</ele>
        <time>2013-02-10T10:02:36Z</time>
      </trkpt>
      <trkpt lat="45.59243" lon="6.8529">
        <ele>1537</ele>
        <time>2013-02-10T10:02:43Z</time>
      </trkpt>
      <trkpt lat="45.59283" lon="6.8531">
        <ele>1507</ele>
        <time>2013-02-10T10:02:50Z</time>
      </trkpt>
      <trkpt lat="45.59309" lon="6.85352">
        <ele>1492</ele>
        <time>2013-02-10T10:02:56Z</time>
      </trkpt>
      <trkpt lat="45.59328" lon="6.85385">
        <ele>1486</ele>
        <time>2013-02-10T10:03:01Z</time>
      </trkpt>
      <trkpt lat="45.59344" lon="6.8542">
        <ele>1461</ele>
        <time>2013-02-10T10:03:07Z</time>
      </trkpt>
      <trkpt lat="45.59357" lon="6.85459">
        <ele>1450</ele>
        <time>2013-02-10T10:03:12Z</time>
      </trkpt>
      <trkpt lat="45.59389" lon="6.85453">
        <ele>1444</ele>
        <time>2013-02-10T10:03:18Z</time>
      </trkpt>
      <trkpt lat="45.59413" lon="6.85464">
        <ele>1440</ele>
        <time>2013-02-10T10:03:37Z</time>
      </trkpt>
      <trkpt lat="45.59468" lon="6.85456">
        <ele>1408</ele>
        <time>2013-02-10T10:03:45Z</time>
      </trkpt>
      <trkpt lat="45.59494" lon="6.85495">
        <ele>1392</ele>
        <time>2013-02-10T10:03:52Z</time>
      </trkpt>
      <trkpt lat="45.59511" lon="6.85536">
        <ele>1369</ele>
        <time>2013-02-10T10:03:57Z</time>
      </trkpt>
      <trkpt lat="45.59515" lon="6.85591">
        <ele>1360</ele>
        <time>2013-02-10T10:04:02Z</time>
      </trkpt>
      <trkpt lat="45.59505" lon="6.85663">
        <ele>1354</ele>
        <time>2013-02-10T10:04:07Z</time>
      </trkpt>
      <trkpt lat="45.59486" lon="6.85734">
        <ele>1351</ele>
        <time>2013-02-10T10:04:13Z</time>
      </trkpt>
      <trkpt lat="45.59462" lon="6.85789">
        <ele>1341</ele>
        <time>2013-02-10T10:04:18Z</time>
      </trkpt>
      <trkpt lat="45.59436" lon="6.85839">
        <ele>1331</ele>
        <time>2013-02-10T10:04:23Z</time>
      </trkpt>
      <trkpt lat="45.59412" lon="6.85882">
        <ele>1345</ele>
        <time>2013-02-10T10:04:29Z</time>
      </trkpt>
      <trkpt lat="45.59397" lon="6.85917">
        <ele>1327</ele>
        <time>2013-02-10T10:04:34Z</time>
      </trkpt>
      <trkpt lat="45.5937" lon="6.85949">
        <ele>1330</ele>
        <time>2013-02-10T10:04:40Z</time>
      </trkpt>
      <trkpt lat="45.59349" lon="6.85991">
        <ele>1332</ele>
        <time>2013-02-10T10:04:46Z</time>
      </trkpt>
      <trkpt lat="45.59348" lon="6.8604">
        <ele>1316</ele>
        <time>2013-02-10T10:04:52Z</time>
      </trkpt>
      <trkpt lat="45.59335" lon="6.86088">
        <ele>1317</ele>
        <time>2013-02-10T10:04:57Z</time>
      </trkpt>
      <trkpt lat="45.59321" lon="6.8615">
        <ele>1316</ele>
        <time>2013-02-10T10:05:03Z</time>
      </trkpt>
      <trkpt lat="45.59303" lon="6.86201">
        <ele>1307</ele>
        <time>2013-02-10T10:05:08Z</time>
      </trkpt>
      <trkpt lat="45.59275" lon="6.86261">
        <ele>1296</ele>
        <time>2013-02-10T10:05:14Z</time>
      </trkpt>
      <trkpt lat="45.59248" lon="6.86321">
        <ele>1305</ele>
        <time>2013-02-10T10:05:20Z</time>
      </trkpt>
      <trkpt lat="45.5923" lon="6.8638">
        <ele>1298</ele>
        <time>2013-02-10T10:05:25Z</time>
      </trkpt>
      <trkpt lat="45.5921" lon="6.86446">
        <ele>1283</ele>
        <time>2013-02-10T10:05:31Z</time>
      </trkpt>
      <trkpt lat="45.5921" lon="6.86486">
        <ele>1279</ele>
        <time>2013-02-10T10:05:34Z</time>
      </trkpt>
      <trkpt lat="45.59207" lon="6.86522">
        <ele>1266</ele>
        <time>2013-02-10T10:05:37Z</time>
      </trkpt>
      <trkpt lat="45.59191" lon="6.86582">
        <ele>1266</ele>
        <time>2013-02-10T10:05:42Z</time>
      </trkpt>
      <trkpt lat="45.59217" lon="6.86576">
        <ele>1258</ele>
        <time>2013-02-10T10:05:47Z</time>
      </trkpt>
      <trkpt lat="45.59243" lon="6.86533">
        <ele>1258</ele>
        <time>2013-02-10T10:05:52Z</time>
      </trkpt>
      <trkpt lat="45.59265" lon="6.86473">
        <ele>1248</ele>
        <time>2013-02-10T10:05:58Z</time>
      </trkpt>
      <trkpt lat="45.5929" lon="6.86439">
        <ele>1247</ele>
        <time>2013-02-10T10:06:03Z</time>
      </trkpt>
      <trkpt lat="45.59307" lon="6.86424">
        <ele>1244</ele>
        <time>2013-02-10T10:06:06Z</time>
      </trkpt>
      <trkpt lat="45.59343" lon="6.8639">
        <ele>1236</ele>
        <time>2013-02-10T10:06:11Z</time>
      </trkpt>
      <trkpt lat="45.59383" lon="6.86349">
        <ele>1233</ele>
        <time>2013-02-10T10:06:17Z</time>
      </trkpt>
      <trkpt lat="45.59444" lon="6.86422">
        <ele>1205</ele>
        <time>2013-02-10T10:06:24Z</time>
      </trkpt>
      <trkpt lat="45.59456" lon="6.86472">
        <ele>1202</ele>
        <time>2013-02-10T10:06:29Z</time>
      </trkpt>
      <trkpt lat="45.59456" lon="6.86472">
        <ele>1202</ele>
        <time>2013-02-10T10:06:34Z</time>
      </trkpt>
      <trkpt lat="45.59456" lon="6.86472">
        <ele>1202</ele>
        <time>2013-02-10T10:06:53Z</time>
      </trkpt>
      <trkpt lat="45.59436" lon="6.86459">
        <ele>1203</ele>
        <time>2013-02-10T10:06:53Z</time>
      </trkpt>
      <trkpt lat="45.59419" lon="6.86429">
        <ele>1208</ele>
        <time>2013-02-10T10:08:47Z</time>
      </trkpt>
      <trkpt lat="45.5941" lon="6.86414">
        <ele>1217</ele>
        <time>2013-02-10T10:08:53Z</time>
      </trkpt>
      <trkpt lat="45.59398" lon="6.86394">
        <ele>1226</ele>
        <time>2013-02-10T10:09:03Z</time>
      </trkpt>
      <trkpt lat="45.59391" lon="6.86381">
        <ele>1229</ele>
        <time>2013-02-10T10:09:10Z</time>
      </trkpt>
      <trkpt lat="45.5938" lon="6.86358">
        <ele>1233</ele>
        <time>2013-02-10T10:09:23Z</time>
      </trkpt>
      <trkpt lat="45.59373" lon="6.86342">
        <ele>1236</ele>
        <time>2013-02-10T10:09:33Z</time>
      </trkpt>
      <trkpt lat="45.59354" lon="6.86316">
        <ele>1252</ele>
        <time>2013-02-10T10:09:45Z</time>
      </trkpt>
      <trkpt lat="45.59347" lon="6.86304">
        <ele>1253</ele>
        <time>2013-02-10T10:09:51Z</time>
      </trkpt>
      <trkpt lat="45.59344" lon="6.86294">
        <ele>1255</ele>
        <time>2013-02-10T10:09:57Z</time>
      </trkpt>
      <trkpt lat="45.5933" lon="6.86269">
        <ele>1280</ele>
        <time>2013-02-10T10:10:10Z</time>
      </trkpt>
      <trkpt lat="45.59322" lon="6.86254">
        <ele>1280</ele>
        <time>2013-02-10T10:10:19Z</time>
      </trkpt>
      <trkpt lat="45.5931" lon="6.86233">
        <ele>1299</ele>
        <time>2013-02-10T10:10:31Z</time>
      </trkpt>
      <trkpt lat="45.593" lon="6.86216">
        <ele>1306</ele>
        <time>2013-02-10T10:10:42Z</time>
      </trkpt>
      <trkpt lat="45.59293" lon="6.86203">
        <ele>1309</ele>
        <time>2013-02-10T10:10:48Z</time>
      </trkpt>
      <trkpt lat="45.59293" lon="6.86203">
        <ele>1309</ele>
        <time>2013-02-10T10:10:55Z</time>
      </trkpt>
      <trkpt lat="45.59293" lon="6.86203">
        <ele>1309</ele>
        <time>2013-02-10T10:10:59Z</time>
      </trkpt>
      <trkpt lat="45.59284" lon="6.86191">
        <ele>1313</ele>
        <time>2013-02-10T10:10:59Z</time>
      </trkpt>
      <trkpt lat="45.59275" lon="6.86169">
        <ele>1321</ele>
        <time>2013-02-10T10:11:08Z</time>
      </trkpt>
      <trkpt lat="45.59262" lon="6.86148">
        <ele>1337</ele>
        <time>2013-02-10T10:11:20Z</time>
      </trkpt>
      <trkpt lat="45.59247" lon="6.86118">
        <ele>1370</ele>
        <time>2013-02-10T10:11:35Z</time>
      </trkpt>
      <trkpt lat="45.59233" lon="6.86092">
        <ele>1372</ele>
        <time>2013-02-10T10:11:50Z</time>
      </trkpt>
      <trkpt lat="45.59222" lon="6.86073">
        <ele>1388</ele>
        <time>2013-02-10T10:12:04Z</time>
      </trkpt>
      <trkpt lat="45.59208" lon="6.86049">
        <ele>1395</ele>
        <time>2013-02-10T10:12:18Z</time>
      </trkpt>
      <trkpt lat="45.59196" lon="6.86029">
        <ele>1401</ele>
        <time>2013-02-10T10:12:30Z</time>
      </trkpt>
      <trkpt lat="45.59189" lon="6.86016">
        <ele>1406</ele>
        <time>2013-02-10T10:12:38Z</time>
      </trkpt>
      <trkpt lat="45.59181" lon="6.86001">
        <ele>1413</ele>
        <time>2013-02-10T10:12:45Z</time>
      </trkpt>
      <trkpt lat="45.5917" lon="6.85981">
        <ele>1417</ele>
        <time>2013-02-10T10:12:55Z</time>
      </trkpt>
      <trkpt lat="45.59162" lon="6.85958">
        <ele>1437</ele>
        <time>2013-02-10T10:13:05Z</time>
      </trkpt>
      <trkpt lat="45.59171" lon="6.85915">
        <ele>1428</ele>
        <time>2013-02-10T10:13:19Z</time>
      </trkpt>
      <trkpt lat="45.59183" lon="6.85871">
        <ele>1420</ele>
        <time>2013-02-10T10:13:35Z</time>
      </trkpt>
      <trkpt lat="45.59189" lon="6.85816">
        <ele>1430</ele>
        <time>2013-02-10T10:13:44Z</time>
      </trkpt>
      <trkpt lat="45.59226" lon="6.85806">
        <ele>1425</ele>
        <time>2013-02-10T10:13:49Z</time>
      </trkpt>
      <trkpt lat="45.59261" lon="6.85802">
        <ele>1407</ele>
        <time>2013-02-10T10:13:54Z</time>
      </trkpt>
      <trkpt lat="45.59293" lon="6.85773">
        <ele>1407</ele>
        <time>2013-02-10T10:13:59Z</time>
      </trkpt>
      <trkpt lat="45.5933" lon="6.85736">
        <ele>1412</ele>
        <time>2013-02-10T10:14:04Z</time>
      </trkpt>
      <trkpt lat="45.5935" lon="6.85716">
        <ele>1402</ele>
        <time>2013-02-10T10:14:07Z</time>
      </trkpt>
      <trkpt lat="45.59345" lon="6.85702">
        <ele>1404</ele>
        <time>2013-02-10T10:14:13Z</time>
      </trkpt>
      <trkpt lat="45.5934" lon="6.85704">
        <ele>1404</ele>
        <time>2013-02-10T10:14:18Z</time>
      </trkpt>
      <trkpt lat="45.5934" lon="6.85704">
        <ele>1404</ele>
        <time>2013-02-10T10:14:25Z</time>
      </trkpt>
      <trkpt lat="45.5934" lon="6.85704">
        <ele>1404</ele>
        <time>2013-02-10T10:14:30Z</time>
      </trkpt>
      <trkpt lat="45.59336" lon="6.85715">
        <ele>1403</ele>
        <time>2013-02-10T10:14:30Z</time>
      </trkpt>
      <trkpt lat="45.59335" lon="6.85718">
        <ele>1403</ele>
        <time>2013-02-10T10:14:33Z</time>
      </trkpt>
      <trkpt lat="45.59335" lon="6.85718">
        <ele>1403</ele>
        <time>2013-02-10T10:14:40Z</time>
      </trkpt>
      <trkpt lat="45.59335" lon="6.85718">
        <ele>1403</ele>
        <time>2013-02-10T10:15:11Z</time>
      </trkpt>
      <trkpt lat="45.59325" lon="6.85704">
        <ele>1420</ele>
        <time>2013-02-10T10:15:11Z</time>
      </trkpt>
      <trkpt lat="45.59312" lon="6.85681">
        <ele>1422</ele>
        <time>2013-02-10T10:15:20Z</time>
      </trkpt>
      <trkpt lat="45.59301" lon="6.85669">
        <ele>1425</ele>
        <time>2013-02-10T10:15:25Z</time>
      </trkpt>
      <trkpt lat="45.59293" lon="6.85651">
        <ele>1442</ele>
        <time>2013-02-10T10:15:34Z</time>
      </trkpt>
      <trkpt lat="45.59277" lon="6.85625">
        <ele>1448</ele>
        <time>2013-02-10T10:15:46Z</time>
      </trkpt>
      <trkpt lat="45.5927" lon="6.85612">
        <ele>1453</ele>
        <time>2013-02-10T10:15:55Z</time>
      </trkpt>
      <trkpt lat="45.59246" lon="6.85586">
        <ele>1478</ele>
        <time>2013-02-10T10:16:10Z</time>
      </trkpt>
      <trkpt lat="45.59242" lon="6.85577">
        <ele>1487</ele>
        <time>2013-02-10T10:16:16Z</time>
      </trkpt>
      <trkpt lat="45.59224" lon="6.85547">
        <ele>1503</ele>
        <time>2013-02-10T10:16:31Z</time>
      </trkpt>
      <trkpt lat="45.59209" lon="6.85522">
        <ele>1509</ele>
        <time>2013-02-10T10:16:43Z</time>
      </trkpt>
      <trkpt lat="45.59196" lon="6.85506">
        <ele>1516</ele>
        <time>2013-02-10T10:16:53Z</time>
      </trkpt>
      <trkpt lat="45.59185" lon="6.85488">
        <ele>1528</ele>
        <time>2013-02-10T10:17:01Z</time>
      </trkpt>
      <trkpt lat="45.59173" lon="6.85467">
        <ele>1529</ele>
        <time>2013-02-10T10:17:11Z</time>
      </trkpt>
      <trkpt lat="45.59159" lon="6.85451">
        <ele>1558</ele>
        <time>2013-02-10T10:17:20Z</time>
      </trkpt>
      <trkpt lat="45.59149" lon="6.85433">
        <ele>1559</ele>
        <time>2013-02-10T10:17:30Z</time>
      </trkpt>
      <trkpt lat="45.59137" lon="6.8541">
        <ele>1566</ele>
        <time>2013-02-10T10:17:41Z</time>
      </trkpt>
      <trkpt lat="45.59122" lon="6.85401">
        <ele>1572</ele>
        <time>2013-02-10T10:17:48Z</time>
      </trkpt>
      <trkpt lat="45.59111" lon="6.85377">
        <ele>1575</ele>
        <time>2013-02-10T10:17:58Z</time>
      </trkpt>
      <trkpt lat="45.59094" lon="6.85356">
        <ele>1580</ele>
        <time>2013-02-10T10:18:10Z</time>
      </trkpt>
      <trkpt lat="45.5908" lon="6.85331">
        <ele>1596</ele>
        <time>2013-02-10T10:18:21Z</time>
      </trkpt>
      <trkpt lat="45.59068" lon="6.85315">
        <ele>1609</ele>
        <time>2013-02-10T10:18:29Z</time>
      </trkpt>
      <trkpt lat="45.59056" lon="6.85294">
        <ele>1616</ele>
        <time>2013-02-10T10:18:40Z</time>
      </trkpt>
      <trkpt lat="45.59045" lon="6.85276">
        <ele>1620</ele>
        <time>2013-02-10T10:18:49Z</time>
      </trkpt>
      <trkpt lat="45.5904" lon="6.85264">
        <ele>1622</ele>
        <time>2013-02-10T10:18:54Z</time>
      </trkpt>
      <trkpt lat="45.59027" lon="6.85246">
        <ele>1633</ele>
        <time>2013-02-10T10:19:04Z</time>
      </trkpt>
      <trkpt lat="45.59017" lon="6.85232">
        <ele>1635</ele>
        <time>2013-02-10T10:19:11Z</time>
      </trkpt>
      <trkpt lat="45.59001" lon="6.85211">
        <ele>1637</ele>
        <time>2013-02-10T10:19:21Z</time>
      </trkpt>
      <trkpt lat="45.58991" lon="6.85193">
        <ele>1661</ele>
        <time>2013-02-10T10:19:30Z</time>
      </trkpt>
      <trkpt lat="45.58974" lon="6.8517">
        <ele>1664</ele>
        <time>2013-02-10T10:19:41Z</time>
      </trkpt>
      <trkpt lat="45.58964" lon="6.8516">
        <ele>1673</ele>
        <time>2013-02-10T10:19:49Z</time>
      </trkpt>
      <trkpt lat="45.58946" lon="6.85133">
        <ele>1678</ele>
        <time>2013-02-10T10:20:01Z</time>
      </trkpt>
      <trkpt lat="45.5894" lon="6.85119">
        <ele>1680</ele>
        <time>2013-02-10T10:20:06Z</time>
      </trkpt>
      <trkpt lat="45.58918" lon="6.85084">
        <ele>1699</ele>
        <time>2013-02-10T10:20:16Z</time>
      </trkpt>
      <trkpt lat="45.589" lon="6.85059">
        <ele>1724</ele>
        <time>2013-02-10T10:20:22Z</time>
      </trkpt>
      <trkpt lat="45.589" lon="6.85059">
        <ele>1724</ele>
        <time>2013-02-10T10:20:27Z</time>
      </trkpt>
      <trkpt lat="45.589" lon="6.85059">
        <ele>1724</ele>
        <time>2013-02-10T10:20:30Z</time>
      </trkpt>
      <trkpt lat="45.58896" lon="6.85055">
        <ele>1726</ele>
        <time>2013-02-10T10:20:30Z</time>
      </trkpt>
      <trkpt lat="45.58893" lon="6.85049">
        <ele>1728</ele>
        <time>2013-02-10T10:20:32Z</time>
      </trkpt>
      <trkpt lat="45.58893" lon="6.85049">
        <ele>1728</ele>
        <time>2013-02-10T10:20:40Z</time>
      </trkpt>
      <trkpt lat="45.58893" lon="6.85049">
        <ele>1728</ele>
        <time>2013-02-10T10:20:48Z</time>
      </trkpt>
      <trkpt lat="45.58883" lon="6.85033">
        <ele>1733</ele>
        <time>2013-02-10T10:20:48Z</time>
      </trkpt>
      <trkpt lat="45.58861" lon="6.85004">
        <ele>1745</ele>
        <time>2013-02-10T10:21:05Z</time>
      </trkpt>
      <trkpt lat="45.58844" lon="6.84984">
        <ele>1766</ele>
        <time>2013-02-10T10:21:15Z</time>
      </trkpt>
      <trkpt lat="45.58834" lon="6.84963">
        <ele>1769</ele>
        <time>2013-02-10T10:21:27Z</time>
      </trkpt>
      <trkpt lat="45.5882" lon="6.84939">
        <ele>1803</ele>
        <time>2013-02-10T10:21:40Z</time>
      </trkpt>
      <trkpt lat="45.58808" lon="6.84919">
        <ele>1807</ele>
        <time>2013-02-10T10:21:51Z</time>
      </trkpt>
      <trkpt lat="45.58801" lon="6.84909">
        <ele>1829</ele>
        <time>2013-02-10T10:21:59Z</time>
      </trkpt>
      <trkpt lat="45.58775" lon="6.84877">
        <ele>1842</ele>
        <time>2013-02-10T10:22:16Z</time>
      </trkpt>
      <trkpt lat="45.58767" lon="6.84866">
        <ele>1847</ele>
        <time>2013-02-10T10:22:20Z</time>
      </trkpt>
      <trkpt lat="45.58767" lon="6.84866">
        <ele>1847</ele>
        <time>2013-02-10T10:22:25Z</time>
      </trkpt>
      <trkpt lat="45.58767" lon="6.84866">
        <ele>1847</ele>
        <time>2013-02-10T10:22:28Z</time>
      </trkpt>
      <trkpt lat="45.58764" lon="6.84857">
        <ele>1851</ele>
        <time>2013-02-10T10:22:28Z</time>
      </trkpt>
      <trkpt lat="45.58746" lon="6.84836">
        <ele>1874</ele>
        <time>2013-02-10T10:22:42Z</time>
      </trkpt>
      <trkpt lat="45.5874" lon="6.84823">
        <ele>1885</ele>
        <time>2013-02-10T10:22:50Z</time>
      </trkpt>
      <trkpt lat="45.58718" lon="6.84784">
        <ele>1899</ele>
        <time>2013-02-10T10:23:03Z</time>
      </trkpt>
      <trkpt lat="45.58708" lon="6.84763">
        <ele>1904</ele>
        <time>2013-02-10T10:23:08Z</time>
      </trkpt>
      <trkpt lat="45.58708" lon="6.84763">
        <ele>1904</ele>
        <time>2013-02-10T10:23:15Z</time>
      </trkpt>
      <trkpt lat="45.58708" lon="6.84763">
        <ele>1904</ele>
        <time>2013-02-10T10:23:18Z</time>
      </trkpt>
      <trkpt lat="45.58704" lon="6.84761">
        <ele>1905</ele>
        <time>2013-02-10T10:23:18Z</time>
      </trkpt>
      <trkpt lat="45.58688" lon="6.84739">
        <ele>1925</ele>
        <time>2013-02-10T10:23:25Z</time>
      </trkpt>
      <trkpt lat="45.58681" lon="6.84729">
        <ele>1926</ele>
        <time>2013-02-10T10:23:31Z</time>
      </trkpt>
      <trkpt lat="45.58661" lon="6.84698">
        <ele>1948</ele>
        <time>2013-02-10T10:23:46Z</time>
      </trkpt>
      <trkpt lat="45.58639" lon="6.84668">
        <ele>1952</ele>
        <time>2013-02-10T10:23:58Z</time>
      </trkpt>
      <trkpt lat="45.58629" lon="6.84658">
        <ele>1970</ele>
        <time>2013-02-10T10:24:04Z</time>
      </trkpt>
      <trkpt lat="45.58629" lon="6.84658">
        <ele>1970</ele>
        <time>2013-02-10T10:24:11Z</time>
      </trkpt>
      <trkpt lat="45.58629" lon="6.84658">
        <ele>1970</ele>
        <time>2013-02-10T10:24:14Z</time>
      </trkpt>
      <trkpt lat="45.58624" lon="6.84643">
        <ele>1973</ele>
        <time>2013-02-10T10:24:14Z</time>
      </trkpt>
      <trkpt lat="45.58617" lon="6.84633">
        <ele>1976</ele>
        <time>2013-02-10T10:24:23Z</time>
      </trkpt>
      <trkpt lat="45.58602" lon="6.846">
        <ele>1985</ele>
        <time>2013-02-10T10:24:36Z</time>
      </trkpt>
      <trkpt lat="45.58594" lon="6.8459">
        <ele>1991</ele>
        <time>2013-02-10T10:24:44Z</time>
      </trkpt>
      <trkpt lat="45.58584" lon="6.84566">
        <ele>2004</ele>
        <time>2013-02-10T10:24:57Z</time>
      </trkpt>
      <trkpt lat="45.58575" lon="6.84548">
        <ele>2025</ele>
        <time>2013-02-10T10:25:08Z</time>
      </trkpt>
      <trkpt lat="45.58548" lon="6.84533">
        <ele>2032</ele>
        <time>2013-02-10T10:25:18Z</time>
      </trkpt>
      <trkpt lat="45.58534" lon="6.84505">
        <ele>2038</ele>
        <time>2013-02-10T10:25:28Z</time>
      </trkpt>
      <trkpt lat="45.58526" lon="6.84487">
        <ele>2057</ele>
        <time>2013-02-10T10:25:37Z</time>
      </trkpt>
      <trkpt lat="45.58507" lon="6.84466">
        <ele>2062</ele>
        <time>2013-02-10T10:25:48Z</time>
      </trkpt>
      <trkpt lat="45.5849" lon="6.84442">
        <ele>2080</ele>
        <time>2013-02-10T10:25:57Z</time>
      </trkpt>
      <trkpt lat="45.5849" lon="6.84442">
        <ele>2080</ele>
        <time>2013-02-10T10:26:04Z</time>
      </trkpt>
      <trkpt lat="45.5849" lon="6.84442">
        <ele>2080</ele>
        <time>2013-02-10T10:26:07Z</time>
      </trkpt>
      <trkpt lat="45.58483" lon="6.84432">
        <ele>2082</ele>
        <time>2013-02-10T10:26:07Z</time>
      </trkpt>
      <trkpt lat="45.58473" lon="6.84413">
        <ele>2095</ele>
        <time>2013-02-10T10:26:11Z</time>
      </trkpt>
      <trkpt lat="45.58473" lon="6.84413">
        <ele>2095</ele>
        <time>2013-02-10T10:26:16Z</time>
      </trkpt>
      <trkpt lat="45.58473" lon="6.84413">
        <ele>2095</ele>
        <time>2013-02-10T10:26:22Z</time>
      </trkpt>
      <trkpt lat="45.58471" lon="6.84419">
        <ele>2083</ele>
        <time>2013-02-10T10:26:22Z</time>
      </trkpt>
      <trkpt lat="45.58455" lon="6.84384">
        <ele>2099</ele>
        <time>2013-02-10T10:26:36Z</time>
      </trkpt>
      <trkpt lat="45.58424" lon="6.84338">
        <ele>2109</ele>
        <time>2013-02-10T10:26:49Z</time>
      </trkpt>
      <trkpt lat="45.58424" lon="6.84338">
        <ele>2109</ele>
        <time>2013-02-10T10:26:54Z</time>
      </trkpt>
      <trkpt lat="45.58424" lon="6.84338">
        <ele>2109</ele>
        <time>2013-02-10T10:26:54Z</time>
      </trkpt>
      <trkpt lat="45.58424" lon="6.84338">
        <ele>2109</ele>
        <time>2013-02-10T10:27:03Z</time>
      </trkpt>
      <trkpt lat="45.58417" lon="6.84325">
        <ele>2115</ele>
        <time>2013-02-10T10:27:03Z</time>
      </trkpt>
      <trkpt lat="45.58408" lon="6.84309">
        <ele>2117</ele>
        <time>2013-02-10T10:27:13Z</time>
      </trkpt>
      <trkpt lat="45.58399" lon="6.84288">
        <ele>2119</ele>
        <time>2013-02-10T10:27:21Z</time>
      </trkpt>
      <trkpt lat="45.5839" lon="6.84273">
        <ele>2119</ele>
        <time>2013-02-10T10:27:34Z</time>
      </trkpt>
      <trkpt lat="45.58366" lon="6.84269">
        <ele>2121</ele>
        <time>2013-02-10T10:27:58Z</time>
      </trkpt>
      <trkpt lat="45.58356" lon="6.84268">
        <ele>2122</ele>
        <time>2013-02-10T10:28:04Z</time>
      </trkpt>
      <trkpt lat="45.58331" lon="6.84267">
        <ele>2131</ele>
        <time>2013-02-10T10:28:16Z</time>
      </trkpt>
      <trkpt lat="45.5831" lon="6.84267">
        <ele>2134</ele>
        <time>2013-02-10T10:28:27Z</time>
      </trkpt>
      <trkpt lat="45.58297" lon="6.84267">
        <ele>2136</ele>
        <time>2013-02-10T10:28:34Z</time>
      </trkpt>
      <trkpt lat="45.58285" lon="6.84265">
        <ele>2138</ele>
        <time>2013-02-10T10:28:41Z</time>
      </trkpt>
      <trkpt lat="45.58271" lon="6.84262">
        <ele>2141</ele>
        <time>2013-02-10T10:28:49Z</time>
      </trkpt>
      <trkpt lat="45.58255" lon="6.8426">
        <ele>2145</ele>
        <time>2013-02-10T10:28:58Z</time>
      </trkpt>
      <trkpt lat="45.58246" lon="6.84259">
        <ele>2154</ele>
        <time>2013-02-10T10:29:03Z</time>
      </trkpt>
      <trkpt lat="45.58225" lon="6.84256">
        <ele>2159</ele>
        <time>2013-02-10T10:29:14Z</time>
      </trkpt>
      <trkpt lat="45.58205" lon="6.84256">
        <ele>2164</ele>
        <time>2013-02-10T10:29:25Z</time>
      </trkpt>
      <trkpt lat="45.5818" lon="6.84253">
        <ele>2170</ele>
        <time>2013-02-10T10:29:39Z</time>
      </trkpt>
      <trkpt lat="45.58155" lon="6.84253">
        <ele>2184</ele>
        <time>2013-02-10T10:29:53Z</time>
      </trkpt>
      <trkpt lat="45.58134" lon="6.84252">
        <ele>2193</ele>
        <time>2013-02-10T10:30:05Z</time>
      </trkpt>
      <trkpt lat="45.58113" lon="6.84251">
        <ele>2199</ele>
        <time>2013-02-10T10:30:16Z</time>
      </trkpt>
      <trkpt lat="45.58088" lon="6.84248">
        <ele>2204</ele>
        <time>2013-02-10T10:30:31Z</time>
      </trkpt>
      <trkpt lat="45.5806" lon="6.84237">
        <ele>2210</ele>
        <time>2013-02-10T10:30:44Z</time>
      </trkpt>
      <trkpt lat="45.58049" lon="6.84241">
        <ele>2212</ele>
        <time>2013-02-10T10:30:51Z</time>
      </trkpt>
      <trkpt lat="45.58038" lon="6.84241">
        <ele>2214</ele>
        <time>2013-02-10T10:30:58Z</time>
      </trkpt>
      <trkpt lat="45.58019" lon="6.84239">
        <ele>2220</ele>
        <time>2013-02-10T10:31:11Z</time>
      </trkpt>
      <trkpt lat="45.58008" lon="6.84238">
        <ele>2224</ele>
        <time>2013-02-10T10:31:20Z</time>
      </trkpt>
      <trkpt lat="45.57992" lon="6.84239">
        <ele>2234</ele>
        <time>2013-02-10T10:31:29Z</time>
      </trkpt>
      <trkpt lat="45.5797" lon="6.84236">
        <ele>2235</ele>
        <time>2013-02-10T10:31:41Z</time>
      </trkpt>
      <trkpt lat="45.57951" lon="6.84235">
        <ele>2238</ele>
        <time>2013-02-10T10:31:52Z</time>
      </trkpt>
      <trkpt lat="45.57932" lon="6.84234">
        <ele>2243</ele>
        <time>2013-02-10T10:32:07Z</time>
      </trkpt>
      <trkpt lat="45.57904" lon="6.84232">
        <ele>2254</ele>
        <time>2013-02-10T10:32:22Z</time>
      </trkpt>
      <trkpt lat="45.57892" lon="6.84233">
        <ele>2253</ele>
        <time>2013-02-10T10:32:29Z</time>
      </trkpt>
      <trkpt lat="45.57876" lon="6.84231">
        <ele>2254</ele>
        <time>2013-02-10T10:32:37Z</time>
      </trkpt>
      <trkpt lat="45.57857" lon="6.84229">
        <ele>2256</ele>
        <time>2013-02-10T10:32:47Z</time>
      </trkpt>
      <trkpt lat="45.57834" lon="6.84229">
        <ele>2259</ele>
        <time>2013-02-10T10:32:59Z</time>
      </trkpt>
      <trkpt lat="45.57825" lon="6.84227">
        <ele>2263</ele>
        <time>2013-02-10T10:33:04Z</time>
      </trkpt>
      <trkpt lat="45.57809" lon="6.84226">
        <ele>2262</ele>
        <time>2013-02-10T10:33:13Z</time>
      </trkpt>
      <trkpt lat="45.57797" lon="6.84225">
        <ele>2262</ele>
        <time>2013-02-10T10:33:19Z</time>
      </trkpt>
      <trkpt lat="45.57779" lon="6.84224">
        <ele>2262</ele>
        <time>2013-02-10T10:33:28Z</time>
      </trkpt>
      <trkpt lat="45.5776" lon="6.84222">
        <ele>2263</ele>
        <time>2013-02-10T10:33:38Z</time>
      </trkpt>
      <trkpt lat="45.5774" lon="6.84219">
        <ele>2268</ele>
        <time>2013-02-10T10:33:48Z</time>
      </trkpt>
      <trkpt lat="45.57723" lon="6.84218">
        <ele>2268</ele>
        <time>2013-02-10T10:33:57Z</time>
      </trkpt>
      <trkpt lat="45.57701" lon="6.84217">
        <ele>2269</ele>
        <time>2013-02-10T10:34:08Z</time>
      </trkpt>
      <trkpt lat="45.57686" lon="6.84217">
        <ele>2270</ele>
        <time>2013-02-10T10:34:16Z</time>
      </trkpt>
      <trkpt lat="45.57667" lon="6.84215">
        <ele>2271</ele>
        <time>2013-02-10T10:34:26Z</time>
      </trkpt>
      <trkpt lat="45.57654" lon="6.84215">
        <ele>2283</ele>
        <time>2013-02-10T10:34:33Z</time>
      </trkpt>
      <trkpt lat="45.57635" lon="6.84217">
        <ele>2286</ele>
        <time>2013-02-10T10:34:43Z</time>
      </trkpt>
      <trkpt lat="45.5762" lon="6.84215">
        <ele>2288</ele>
        <time>2013-02-10T10:34:51Z</time>
      </trkpt>
      <trkpt lat="45.57602" lon="6.84212">
        <ele>2290</ele>
        <time>2013-02-10T10:35:01Z</time>
      </trkpt>
      <trkpt lat="45.57579" lon="6.84212">
        <ele>2311</ele>
        <time>2013-02-10T10:35:14Z</time>
      </trkpt>
      <trkpt lat="45.57556" lon="6.84207">
        <ele>2313</ele>
        <time>2013-02-10T10:35:26Z</time>
      </trkpt>
      <trkpt lat="45.57538" lon="6.84206">
        <ele>2317</ele>
        <time>2013-02-10T10:35:36Z</time>
      </trkpt>
      <trkpt lat="45.57526" lon="6.84207">
        <ele>2320</ele>
        <time>2013-02-10T10:35:44Z</time>
      </trkpt>
      <trkpt lat="45.57507" lon="6.84203">
        <ele>2322</ele>
        <time>2013-02-10T10:35:55Z</time>
      </trkpt>
      <trkpt lat="45.57483" lon="6.84199">
        <ele>2344</ele>
        <time>2013-02-10T10:36:08Z</time>
      </trkpt>
      <trkpt lat="45.57465" lon="6.84195">
        <ele>2346</ele>
        <time>2013-02-10T10:36:17Z</time>
      </trkpt>
      <trkpt lat="45.57452" lon="6.84191">
        <ele>2348</ele>
        <time>2013-02-10T10:36:21Z</time>
      </trkpt>
      <trkpt lat="45.57452" lon="6.84191">
        <ele>2348</ele>
        <time>2013-02-10T10:36:27Z</time>
      </trkpt>
      <trkpt lat="45.57452" lon="6.84191">
        <ele>2348</ele>
        <time>2013-02-10T10:38:37Z</time>
      </trkpt>
      <trkpt lat="45.57451" lon="6.84161">
        <ele>2329</ele>
        <time>2013-02-10T10:38:37Z</time>
      </trkpt>
      <trkpt lat="45.57446" lon="6.84138">
        <ele>2326</ele>
        <time>2013-02-10T10:38:40Z</time>
      </trkpt>
      <trkpt lat="45.57426" lon="6.84091">
        <ele>2322</ele>
        <time>2013-02-10T10:38:44Z</time>
      </trkpt>
      <trkpt lat="45.57404" lon="6.83986">
        <ele>2293</ele>
        <time>2013-02-10T10:38:50Z</time>
      </trkpt>
      <trkpt lat="45.57355" lon="6.83899">
        <ele>2271</ele>
        <time>2013-02-10T10:38:56Z</time>
      </trkpt>
      <trkpt lat="45.57299" lon="6.83839">
        <ele>2271</ele>
        <time>2013-02-10T10:39:01Z</time>
      </trkpt>
      <trkpt lat="45.5727" lon="6.838">
        <ele>2249</ele>
        <time>2013-02-10T10:39:04Z</time>
      </trkpt>
      <trkpt lat="45.57211" lon="6.83765">
        <ele>2253</ele>
        <time>2013-02-10T10:39:09Z</time>
      </trkpt>
      <trkpt lat="45.5715" lon="6.83718">
        <ele>2237</ele>
        <time>2013-02-10T10:39:15Z</time>
      </trkpt>
      <trkpt lat="45.57092" lon="6.83681">
        <ele>2229</ele>
        <time>2013-02-10T10:39:21Z</time>
      </trkpt>
      <trkpt lat="45.57061" lon="6.83678">
        <ele>2232</ele>
        <time>2013-02-10T10:39:24Z</time>
      </trkpt>
      <trkpt lat="45.57031" lon="6.83681">
        <ele>2232</ele>
        <time>2013-02-10T10:39:27Z</time>
      </trkpt>
      <trkpt lat="45.56972" lon="6.83672">
        <ele>2227</ele>
        <time>2013-02-10T10:39:33Z</time>
      </trkpt>
      <trkpt lat="45.56964" lon="6.8359">
        <ele>2198</ele>
        <time>2013-02-10T10:39:38Z</time>
      </trkpt>
      <trkpt lat="45.57008" lon="6.83497">
        <ele>2165</ele>
        <time>2013-02-10T10:39:43Z</time>
      </trkpt>
      <trkpt lat="45.56966" lon="6.83367">
        <ele>2154</ele>
        <time>2013-02-10T10:39:49Z</time>
      </trkpt>
      <trkpt lat="45.56954" lon="6.83314">
        <ele>2151</ele>
        <time>2013-02-10T10:39:52Z</time>
      </trkpt>
      <trkpt lat="45.56936" lon="6.83278">
        <ele>2150</ele>
        <time>2013-02-10T10:39:55Z</time>
      </trkpt>
      <trkpt lat="45.5692" lon="6.83219">
        <ele>2147</ele>
        <time>2013-02-10T10:40:00Z</time>
      </trkpt>
      <trkpt lat="45.5692" lon="6.83183">
        <ele>2145</ele>
        <time>2013-02-10T10:40:03Z</time>
      </trkpt>
      <trkpt lat="45.56924" lon="6.8316">
        <ele>2143</ele>
        <time>2013-02-10T10:40:06Z</time>
      </trkpt>
      <trkpt lat="45.56936" lon="6.83126">
        <ele>2140</ele>
        <time>2013-02-10T10:40:14Z</time>
      </trkpt>
      <trkpt lat="45.56937" lon="6.83114">
        <ele>2140</ele>
        <time>2013-02-10T10:40:20Z</time>
      </trkpt>
      <trkpt lat="45.56937" lon="6.83114">
        <ele>2140</ele>
        <time>2013-02-10T10:40:27Z</time>
      </trkpt>
      <trkpt lat="45.56937" lon="6.83114">
        <ele>2140</ele>
        <time>2013-02-10T10:40:30Z</time>
      </trkpt>
      <trkpt lat="45.56944" lon="6.831">
        <ele>2139</ele>
        <time>2013-02-10T10:40:30Z</time>
      </trkpt>
      <trkpt lat="45.56963" lon="6.8307">
        <ele>2134</ele>
        <time>2013-02-10T10:40:35Z</time>
      </trkpt>
      <trkpt lat="45.56976" lon="6.83045">
        <ele>2133</ele>
        <time>2013-02-10T10:40:38Z</time>
      </trkpt>
      <trkpt lat="45.56998" lon="6.83016">
        <ele>2130</ele>
        <time>2013-02-10T10:40:44Z</time>
      </trkpt>
      <trkpt lat="45.56995" lon="6.82987">
        <ele>2127</ele>
        <time>2013-02-10T10:40:49Z</time>
      </trkpt>
      <trkpt lat="45.56981" lon="6.82934">
        <ele>2123</ele>
        <time>2013-02-10T10:40:55Z</time>
      </trkpt>
      <trkpt lat="45.5699" lon="6.82889">
        <ele>2118</ele>
        <time>2013-02-10T10:41:00Z</time>
      </trkpt>
      <trkpt lat="45.56984" lon="6.8285">
        <ele>2116</ele>
        <time>2013-02-10T10:41:07Z</time>
      </trkpt>
      <trkpt lat="45.56975" lon="6.82833">
        <ele>2117</ele>
        <time>2013-02-10T10:41:12Z</time>
      </trkpt>
      <trkpt lat="45.56966" lon="6.82815">
        <ele>2115</ele>
        <time>2013-02-10T10:41:20Z</time>
      </trkpt>
      <trkpt lat="45.56954" lon="6.82789">
        <ele>2115</ele>
        <time>2013-02-10T10:41:38Z</time>
      </trkpt>
      <trkpt lat="45.56954" lon="6.82789">
        <ele>2115</ele>
        <time>2013-02-10T10:44:13Z</time>
      </trkpt>
      <trkpt lat="45.56938" lon="6.82796">
        <ele>2117</ele>
        <time>2013-02-10T10:45:20Z</time>
      </trkpt>
      <trkpt lat="45.56913" lon="6.82814">
        <ele>2127</ele>
        <time>2013-02-10T10:45:25Z</time>
      </trkpt>
      <trkpt lat="45.56892" lon="6.8283">
        <ele>2128</ele>
        <time>2013-02-10T10:45:30Z</time>
      </trkpt>
      <trkpt lat="45.56866" lon="6.82845">
        <ele>2135</ele>
        <time>2013-02-10T10:45:36Z</time>
      </trkpt>
      <trkpt lat="45.56844" lon="6.82857">
        <ele>2137</ele>
        <time>2013-02-10T10:45:41Z</time>
      </trkpt>
      <trkpt lat="45.56821" lon="6.82868">
        <ele>2148</ele>
        <time>2013-02-10T10:45:46Z</time>
      </trkpt>
      <trkpt lat="45.56806" lon="6.82876">
        <ele>2150</ele>
        <time>2013-02-10T10:45:49Z</time>
      </trkpt>
      <trkpt lat="45.56783" lon="6.82887">
        <ele>2153</ele>
        <time>2013-02-10T10:45:54Z</time>
      </trkpt>
      <trkpt lat="45.56762" lon="6.82899">
        <ele>2156</ele>
        <time>2013-02-10T10:45:59Z</time>
      </trkpt>
      <trkpt lat="45.5674" lon="6.82913">
        <ele>2164</ele>
        <time>2013-02-10T10:46:04Z</time>
      </trkpt>
      <trkpt lat="45.56725" lon="6.82921">
        <ele>2167</ele>
        <time>2013-02-10T10:46:07Z</time>
      </trkpt>
      <trkpt lat="45.56703" lon="6.82934">
        <ele>2170</ele>
        <time>2013-02-10T10:46:12Z</time>
      </trkpt>
      <trkpt lat="45.56677" lon="6.8295">
        <ele>2172</ele>
        <time>2013-02-10T10:46:18Z</time>
      </trkpt>
      <trkpt lat="45.56663" lon="6.82957">
        <ele>2177</ele>
        <time>2013-02-10T10:46:21Z</time>
      </trkpt>
      <trkpt lat="45.56649" lon="6.82964">
        <ele>2177</ele>
        <time>2013-02-10T10:46:24Z</time>
      </trkpt>
      <trkpt lat="45.56624" lon="6.82977">
        <ele>2177</ele>
        <time>2013-02-10T10:46:29Z</time>
      </trkpt>
      <trkpt lat="45.56601" lon="6.8299">
        <ele>2177</ele>
        <time>2013-02-10T10:46:34Z</time>
      </trkpt>
      <trkpt lat="45.56577" lon="6.83003">
        <ele>2178</ele>
        <time>2013-02-10T10:46:39Z</time>
      </trkpt>
      <trkpt lat="45.56554" lon="6.83016">
        <ele>2181</ele>
        <time>2013-02-10T10:46:44Z</time>
      </trkpt>
      <trkpt lat="45.5653" lon="6.83027">
        <ele>2183</ele>
        <time>2013-02-10T10:46:49Z</time>
      </trkpt>
      <trkpt lat="45.56507" lon="6.83039">
        <ele>2184</ele>
        <time>2013-02-10T10:46:54Z</time>
      </trkpt>
      <trkpt lat="45.56476" lon="6.83058">
        <ele>2198</ele>
        <time>2013-02-10T10:47:01Z</time>
      </trkpt>
      <trkpt lat="45.56454" lon="6.8307">
        <ele>2202</ele>
        <time>2013-02-10T10:47:06Z</time>
      </trkpt>
      <trkpt lat="45.5643" lon="6.83079">
        <ele>2209</ele>
        <time>2013-02-10T10:47:11Z</time>
      </trkpt>
      <trkpt lat="45.56413" lon="6.83089">
        <ele>2218</ele>
        <time>2013-02-10T10:47:15Z</time>
      </trkpt>
      <trkpt lat="45.56392" lon="6.83102">
        <ele>2222</ele>
        <time>2013-02-10T10:47:20Z</time>
      </trkpt>
      <trkpt lat="45.56365" lon="6.83115">
        <ele>2224</ele>
        <time>2013-02-10T10:47:26Z</time>
      </trkpt>
      <trkpt lat="45.56336" lon="6.83127">
        <ele>2226</ele>
        <time>2013-02-10T10:47:32Z</time>
      </trkpt>
      <trkpt lat="45.56315" lon="6.83141">
        <ele>2231</ele>
        <time>2013-02-10T10:47:37Z</time>
      </trkpt>
      <trkpt lat="45.56292" lon="6.83155">
        <ele>2232</ele>
        <time>2013-02-10T10:47:42Z</time>
      </trkpt>
      <trkpt lat="45.56277" lon="6.8316">
        <ele>2233</ele>
        <time>2013-02-10T10:47:45Z</time>
      </trkpt>
      <trkpt lat="45.56252" lon="6.83174">
        <ele>2234</ele>
        <time>2013-02-10T10:47:50Z</time>
      </trkpt>
      <trkpt lat="45.56223" lon="6.83191">
        <ele>2246</ele>
        <time>2013-02-10T10:47:56Z</time>
      </trkpt>
      <trkpt lat="45.56191" lon="6.83205">
        <ele>2251</ele>
        <time>2013-02-10T10:48:03Z</time>
      </trkpt>
      <trkpt lat="45.56164" lon="6.83221">
        <ele>2278</ele>
        <time>2013-02-10T10:48:09Z</time>
      </trkpt>
      <trkpt lat="45.56136" lon="6.83235">
        <ele>2284</ele>
        <time>2013-02-10T10:48:16Z</time>
      </trkpt>
      <trkpt lat="45.56115" lon="6.83247">
        <ele>2293</ele>
        <time>2013-02-10T10:48:21Z</time>
      </trkpt>
      <trkpt lat="45.5609" lon="6.83258">
        <ele>2303</ele>
        <time>2013-02-10T10:48:27Z</time>
      </trkpt>
      <trkpt lat="45.56079" lon="6.83264">
        <ele>2322</ele>
        <time>2013-02-10T10:48:30Z</time>
      </trkpt>
      <trkpt lat="45.56047" lon="6.83282">
        <ele>2334</ele>
        <time>2013-02-10T10:48:38Z</time>
      </trkpt>
      <trkpt lat="45.56019" lon="6.83298">
        <ele>2341</ele>
        <time>2013-02-10T10:48:44Z</time>
      </trkpt>
      <trkpt lat="45.55999" lon="6.83309">
        <ele>2372</ele>
        <time>2013-02-10T10:48:49Z</time>
      </trkpt>
      <trkpt lat="45.55978" lon="6.8332">
        <ele>2375</ele>
        <time>2013-02-10T10:48:54Z</time>
      </trkpt>
      <trkpt lat="45.55955" lon="6.8333">
        <ele>2385</ele>
        <time>2013-02-10T10:48:59Z</time>
      </trkpt>
      <trkpt lat="45.55934" lon="6.83341">
        <ele>2395</ele>
        <time>2013-02-10T10:49:04Z</time>
      </trkpt>
      <trkpt lat="45.55917" lon="6.83351">
        <ele>2398</ele>
        <time>2013-02-10T10:49:08Z</time>
      </trkpt>
      <trkpt lat="45.55892" lon="6.83363">
        <ele>2432</ele>
        <time>2013-02-10T10:49:13Z</time>
      </trkpt>
      <trkpt lat="45.55866" lon="6.83378">
        <ele>2441</ele>
        <time>2013-02-10T10:49:19Z</time>
      </trkpt>
      <trkpt lat="45.55844" lon="6.83387">
        <ele>2448</ele>
        <time>2013-02-10T10:49:24Z</time>
      </trkpt>
      <trkpt lat="45.55831" lon="6.83397">
        <ele>2475</ele>
        <time>2013-02-10T10:49:29Z</time>
      </trkpt>
      <trkpt lat="45.55809" lon="6.83408">
        <ele>2480</ele>
        <time>2013-02-10T10:49:35Z</time>
      </trkpt>
      <trkpt lat="45.55787" lon="6.83421">
        <ele>2495</ele>
        <time>2013-02-10T10:49:40Z</time>
      </trkpt>
      <trkpt lat="45.55768" lon="6.83432">
        <ele>2502</ele>
        <time>2013-02-10T10:49:45Z</time>
      </trkpt>
      <trkpt lat="45.55743" lon="6.83444">
        <ele>2523</ele>
        <time>2013-02-10T10:49:51Z</time>
      </trkpt>
      <trkpt lat="45.55729" lon="6.83452">
        <ele>2526</ele>
        <time>2013-02-10T10:49:54Z</time>
      </trkpt>
      <trkpt lat="45.55706" lon="6.83462">
        <ele>2530</ele>
        <time>2013-02-10T10:49:59Z</time>
      </trkpt>
      <trkpt lat="45.55684" lon="6.83476">
        <ele>2532</ele>
        <time>2013-02-10T10:50:05Z</time>
      </trkpt>
      <trkpt lat="45.5566" lon="6.83489">
        <ele>2551</ele>
        <time>2013-02-10T10:50:11Z</time>
      </trkpt>
      <trkpt lat="45.55631" lon="6.83503">
        <ele>2588.7</ele>
        <time>2013-02-10T10:50:18Z</time>
      </trkpt>
      <trkpt lat="45.55611" lon="6.83515">
        <ele>2602.3</ele>
        <time>2013-02-10T10:50:23Z</time>
      </trkpt>
      <trkpt lat="45.55581" lon="6.83529">
        <ele>2622.1</ele>
        <time>2013-02-10T10:50:30Z</time>
      </trkpt>
      <trkpt lat="45.55558" lon="6.83539">
        <ele>2635.7</ele>
        <time>2013-02-10T10:50:35Z</time>
      </trkpt>
      <trkpt lat="45.55521" lon="6.83562">
        <ele>2663.3</ele>
        <time>2013-02-10T10:50:44Z</time>
      </trkpt>
      <trkpt lat="45.55485" lon="6.8358">
        <ele>2678.3</ele>
        <time>2013-02-10T10:50:52Z</time>
      </trkpt>
      <trkpt lat="45.55485" lon="6.8358">
        <ele>2678.3</ele>
        <time>2013-02-10T10:50:57Z</time>
      </trkpt>
      <trkpt lat="45.55485" lon="6.8358">
        <ele>2678.3</ele>
        <time>2013-02-10T10:50:57Z</time>
      </trkpt>
      <trkpt lat="45.55485" lon="6.8358">
        <ele>2678.3</ele>
        <time>2013-02-10T10:53:32Z</time>
      </trkpt>
      <trkpt lat="45.55495" lon="6.83565">
        <ele>2675.9</ele>
        <time>2013-02-10T10:53:32Z</time>
      </trkpt>
      <trkpt lat="45.55513" lon="6.83582">
        <ele>2669.7</ele>
        <time>2013-02-10T10:53:40Z</time>
      </trkpt>
      <trkpt lat="45.55525" lon="6.83595">
        <ele>2664.4</ele>
        <time>2013-02-10T10:53:46Z</time>
      </trkpt>
      <trkpt lat="45.55548" lon="6.8364">
        <ele>2653.1</ele>
        <time>2013-02-10T10:53:57Z</time>
      </trkpt>
      <trkpt lat="45.55555" lon="6.83657">
        <ele>2651.8</ele>
        <time>2013-02-10T10:54:04Z</time>
      </trkpt>
      <trkpt lat="45.55595" lon="6.83661">
        <ele>2630.4</ele>
        <time>2013-02-10T10:54:18Z</time>
      </trkpt>
      <trkpt lat="45.55613" lon="6.83648">
        <ele>2618.7</ele>
        <time>2013-02-10T10:54:23Z</time>
      </trkpt>
      <trkpt lat="45.55627" lon="6.83628">
        <ele>2606.2</ele>
        <time>2013-02-10T10:54:30Z</time>
      </trkpt>
      <trkpt lat="45.55648" lon="6.83612">
        <ele>2590</ele>
        <time>2013-02-10T10:54:37Z</time>
      </trkpt>
      <trkpt lat="45.55664" lon="6.83613">
        <ele>2581.1</ele>
        <time>2013-02-10T10:54:43Z</time>
      </trkpt>
      <trkpt lat="45.55676" lon="6.83593">
        <ele>2530</ele>
        <time>2013-02-10T10:54:49Z</time>
      </trkpt>
      <trkpt lat="45.55692" lon="6.83577">
        <ele>2524</ele>
        <time>2013-02-10T10:54:56Z</time>
      </trkpt>
      <trkpt lat="45.55713" lon="6.83571">
        <ele>2524</ele>
        <time>2013-02-10T10:55:02Z</time>
      </trkpt>
      <trkpt lat="45.55739" lon="6.83576">
        <ele>2524</ele>
        <time>2013-02-10T10:55:08Z</time>
      </trkpt>
      <trkpt lat="45.55754" lon="6.83568">
        <ele>2512</ele>
        <time>2013-02-10T10:55:13Z</time>
      </trkpt>
      <trkpt lat="45.55765" lon="6.83589">
        <ele>2515</ele>
        <time>2013-02-10T10:55:20Z</time>
      </trkpt>
      <trkpt lat="45.55779" lon="6.83613">
        <ele>2508</ele>
        <time>2013-02-10T10:55:28Z</time>
      </trkpt>
      <trkpt lat="45.55791" lon="6.83633">
        <ele>2506</ele>
        <time>2013-02-10T10:55:35Z</time>
      </trkpt>
      <trkpt lat="45.55797" lon="6.83648">
        <ele>2505</ele>
        <time>2013-02-10T10:55:40Z</time>
      </trkpt>
      <trkpt lat="45.55797" lon="6.83648">
        <ele>2505</ele>
        <time>2013-02-10T10:55:45Z</time>
      </trkpt>
      <trkpt lat="45.55797" lon="6.83648">
        <ele>2505</ele>
        <time>2013-02-10T10:55:56Z</time>
      </trkpt>
      <trkpt lat="45.55812" lon="6.83658">
        <ele>2499</ele>
        <time>2013-02-10T10:55:56Z</time>
      </trkpt>
      <trkpt lat="45.55824" lon="6.83651">
        <ele>2495</ele>
        <time>2013-02-10T10:56:01Z</time>
      </trkpt>
      <trkpt lat="45.55841" lon="6.83643">
        <ele>2467</ele>
        <time>2013-02-10T10:56:09Z</time>
      </trkpt>
      <trkpt lat="45.55858" lon="6.83651">
        <ele>2463</ele>
        <time>2013-02-10T10:56:17Z</time>
      </trkpt>
      <trkpt lat="45.55871" lon="6.8366">
        <ele>2458</ele>
        <time>2013-02-10T10:56:22Z</time>
      </trkpt>
      <trkpt lat="45.55889" lon="6.83664">
        <ele>2451</ele>
        <time>2013-02-10T10:56:28Z</time>
      </trkpt>
      <trkpt lat="45.55895" lon="6.83672">
        <ele>2459</ele>
        <time>2013-02-10T10:56:33Z</time>
      </trkpt>
      <trkpt lat="45.55911" lon="6.83665">
        <ele>2441</ele>
        <time>2013-02-10T10:56:44Z</time>
      </trkpt>
      <trkpt lat="45.55927" lon="6.83662">
        <ele>2426</ele>
        <time>2013-02-10T10:56:50Z</time>
      </trkpt>
      <trkpt lat="45.55943" lon="6.83673">
        <ele>2430</ele>
        <time>2013-02-10T10:56:55Z</time>
      </trkpt>
      <trkpt lat="45.5596" lon="6.83646">
        <ele>2407</ele>
        <time>2013-02-10T10:57:01Z</time>
      </trkpt>
      <trkpt lat="45.55985" lon="6.8364">
        <ele>2400</ele>
        <time>2013-02-10T10:57:08Z</time>
      </trkpt>
      <trkpt lat="45.55996" lon="6.83642">
        <ele>2398</ele>
        <time>2013-02-10T10:57:15Z</time>
      </trkpt>
      <trkpt lat="45.56" lon="6.83645">
        <ele>2375</ele>
        <time>2013-02-10T10:57:18Z</time>
      </trkpt>
      <trkpt lat="45.56" lon="6.83645">
        <ele>2375</ele>
        <time>2013-02-10T10:57:26Z</time>
      </trkpt>
      <trkpt lat="45.56" lon="6.83645">
        <ele>2375</ele>
        <time>2013-02-10T10:57:29Z</time>
      </trkpt>
      <trkpt lat="45.56007" lon="6.83651">
        <ele>2377</ele>
        <time>2013-02-10T10:57:29Z</time>
      </trkpt>
      <trkpt lat="45.56035" lon="6.8365">
        <ele>2366</ele>
        <time>2013-02-10T10:57:37Z</time>
      </trkpt>
      <trkpt lat="45.56047" lon="6.83634">
        <ele>2360</ele>
        <time>2013-02-10T10:57:42Z</time>
      </trkpt>
      <trkpt lat="45.56065" lon="6.83639">
        <ele>2357</ele>
        <time>2013-02-10T10:57:48Z</time>
      </trkpt>
      <trkpt lat="45.5608" lon="6.83654">
        <ele>2354</ele>
        <time>2013-02-10T10:57:55Z</time>
      </trkpt>
      <trkpt lat="45.56088" lon="6.83668">
        <ele>2348</ele>
        <time>2013-02-10T10:58:00Z</time>
      </trkpt>
      <trkpt lat="45.56096" lon="6.83677">
        <ele>2342</ele>
        <time>2013-02-10T10:58:05Z</time>
      </trkpt>
      <trkpt lat="45.56096" lon="6.83677">
        <ele>2342</ele>
        <time>2013-02-10T10:58:13Z</time>
      </trkpt>
      <trkpt lat="45.56096" lon="6.83677">
        <ele>2342</ele>
        <time>2013-02-10T10:58:19Z</time>
      </trkpt>
      <trkpt lat="45.56104" lon="6.83683">
        <ele>2339</ele>
        <time>2013-02-10T10:58:19Z</time>
      </trkpt>
      <trkpt lat="45.5613" lon="6.83676">
        <ele>2328</ele>
        <time>2013-02-10T10:58:30Z</time>
      </trkpt>
      <trkpt lat="45.56136" lon="6.83664">
        <ele>2314</ele>
        <time>2013-02-10T10:58:35Z</time>
      </trkpt>
      <trkpt lat="45.56166" lon="6.83684">
        <ele>2315</ele>
        <time>2013-02-10T10:58:44Z</time>
      </trkpt>
      <trkpt lat="45.5619" lon="6.83688">
        <ele>2292</ele>
        <time>2013-02-10T10:58:50Z</time>
      </trkpt>
      <trkpt lat="45.56194" lon="6.83653">
        <ele>2280</ele>
        <time>2013-02-10T10:58:56Z</time>
      </trkpt>
      <trkpt lat="45.56231" lon="6.83678">
        <ele>2279</ele>
        <time>2013-02-10T10:59:01Z</time>
      </trkpt>
      <trkpt lat="45.56263" lon="6.83689">
        <ele>2264</ele>
        <time>2013-02-10T10:59:06Z</time>
      </trkpt>
      <trkpt lat="45.56292" lon="6.8369">
        <ele>2261</ele>
        <time>2013-02-10T10:59:12Z</time>
      </trkpt>
      <trkpt lat="45.56328" lon="6.83683">
        <ele>2255</ele>
        <time>2013-02-10T10:59:18Z</time>
      </trkpt>
      <trkpt lat="45.56364" lon="6.83634">
        <ele>2235</ele>
        <time>2013-02-10T10:59:24Z</time>
      </trkpt>
      <trkpt lat="45.56417" lon="6.83574">
        <ele>2222</ele>
        <time>2013-02-10T10:59:31Z</time>
      </trkpt>
      <trkpt lat="45.56464" lon="6.83528">
        <ele>2210</ele>
        <time>2013-02-10T10:59:37Z</time>
      </trkpt>
      <trkpt lat="45.56501" lon="6.83498">
        <ele>2200</ele>
        <time>2013-02-10T10:59:42Z</time>
      </trkpt>
      <trkpt lat="45.5655" lon="6.83452">
        <ele>2191</ele>
        <time>2013-02-10T10:59:49Z</time>
      </trkpt>
      <trkpt lat="45.56576" lon="6.83425">
        <ele>2186</ele>
        <time>2013-02-10T10:59:54Z</time>
      </trkpt>
      <trkpt lat="45.56601" lon="6.83392">
        <ele>2176</ele>
        <time>2013-02-10T11:00:00Z</time>
      </trkpt>
      <trkpt lat="45.56619" lon="6.83376">
        <ele>2174</ele>
        <time>2013-02-10T11:00:05Z</time>
      </trkpt>
      <trkpt lat="45.56634" lon="6.83358">
        <ele>2172</ele>
        <time>2013-02-10T11:00:14Z</time>
      </trkpt>
      <trkpt lat="45.56688" lon="6.83313">
        <ele>2161</ele>
        <time>2013-02-10T11:00:31Z</time>
      </trkpt>
      <trkpt lat="45.56712" lon="6.8329">
        <ele>2159</ele>
        <time>2013-02-10T11:00:37Z</time>
      </trkpt>
      <trkpt lat="45.56739" lon="6.83281">
        <ele>2158</ele>
        <time>2013-02-10T11:00:42Z</time>
      </trkpt>
      <trkpt lat="45.56764" lon="6.83271">
        <ele>2154</ele>
        <time>2013-02-10T11:00:49Z</time>
      </trkpt>
      <trkpt lat="45.5679" lon="6.83253">
        <ele>2153</ele>
        <time>2013-02-10T11:00:56Z</time>
      </trkpt>
      <trkpt lat="45.5681" lon="6.83241">
        <ele>2150</ele>
        <time>2013-02-10T11:01:01Z</time>
      </trkpt>
      <trkpt lat="45.56832" lon="6.83231">
        <ele>2150</ele>
        <time>2013-02-10T11:01:06Z</time>
      </trkpt>
      <trkpt lat="45.56855" lon="6.83214">
        <ele>2148</ele>
        <time>2013-02-10T11:01:13Z</time>
      </trkpt>
      <trkpt lat="45.56873" lon="6.83198">
        <ele>2147</ele>
        <time>2013-02-10T11:01:21Z</time>
      </trkpt>
      <trkpt lat="45.56898" lon="6.83174">
        <ele>2146</ele>
        <time>2013-02-10T11:01:28Z</time>
      </trkpt>
      <trkpt lat="45.56908" lon="6.83162">
        <ele>2145</ele>
        <time>2013-02-10T11:01:36Z</time>
      </trkpt>
      <trkpt lat="45.56924" lon="6.83143">
        <ele>2141</ele>
        <time>2013-02-10T11:01:51Z</time>
      </trkpt>
      <trkpt lat="45.5693" lon="6.83135">
        <ele>2141</ele>
        <time>2013-02-10T11:01:57Z</time>
      </trkpt>
      <trkpt lat="45.5693" lon="6.83135">
        <ele>2141</ele>
        <time>2013-02-10T11:02:02Z</time>
      </trkpt>
      <trkpt lat="45.5693" lon="6.83135">
        <ele>2141</ele>
        <time>2013-02-10T11:02:54Z</time>
      </trkpt>
      <trkpt lat="45.56942" lon="6.83111">
        <ele>2139</ele>
        <time>2013-02-10T11:02:54Z</time>
      </trkpt>
      <trkpt lat="45.56961" lon="6.83071">
        <ele>2134</ele>
        <time>2013-02-10T11:03:00Z</time>
      </trkpt>
      <trkpt lat="45.56974" lon="6.83046">
        <ele>2133</ele>
        <time>2013-02-10T11:03:03Z</time>
      </trkpt>
      <trkpt lat="45.56986" lon="6.83028">
        <ele>2132</ele>
        <time>2013-02-10T11:03:06Z</time>
      </trkpt>
      <trkpt lat="45.56997" lon="6.83011">
        <ele>2129</ele>
        <time>2013-02-10T11:03:11Z</time>
      </trkpt>
      <trkpt lat="45.56992" lon="6.82975">
        <ele>2127</ele>
        <time>2013-02-10T11:03:18Z</time>
      </trkpt>
      <trkpt lat="45.56983" lon="6.82917">
        <ele>2121</ele>
        <time>2013-02-10T11:03:25Z</time>
      </trkpt>
      <trkpt lat="45.56992" lon="6.82866">
        <ele>2117</ele>
        <time>2013-02-10T11:03:31Z</time>
      </trkpt>
      <trkpt lat="45.56977" lon="6.82842">
        <ele>2117</ele>
        <time>2013-02-10T11:03:39Z</time>
      </trkpt>
      <trkpt lat="45.56967" lon="6.82808">
        <ele>2115</ele>
        <time>2013-02-10T11:03:50Z</time>
      </trkpt>
      <trkpt lat="45.56958" lon="6.82791">
        <ele>2115</ele>
        <time>2013-02-10T11:03:58Z</time>
      </trkpt>
      <trkpt lat="45.56954" lon="6.82788">
        <ele>2115</ele>
        <time>2013-02-10T11:04:03Z</time>
      </trkpt>
      <trkpt lat="45.56954" lon="6.82788">
        <ele>2115</ele>
        <time>2013-02-10T11:04:11Z</time>
      </trkpt>
      <trkpt lat="45.56954" lon="6.82788">
        <ele>2115</ele>
        <time>2013-02-10T11:06:38Z</time>
      </trkpt>
      <trkpt lat="45.56915" lon="6.82826">
        <ele>2125</ele>
        <time>2013-02-10T11:06:38Z</time>
      </trkpt>
      <trkpt lat="45.56889" lon="6.82839">
        <ele>2131</ele>
        <time>2013-02-10T11:06:43Z</time>
      </trkpt>
      <trkpt lat="45.56863" lon="6.82851">
        <ele>2135</ele>
        <time>2013-02-10T11:06:49Z</time>
      </trkpt>
      <trkpt lat="45.56836" lon="6.82863">
        <ele>2137</ele>
        <time>2013-02-10T11:06:55Z</time>
      </trkpt>
      <trkpt lat="45.56809" lon="6.82877">
        <ele>2149</ele>
        <time>2013-02-10T11:07:01Z</time>
      </trkpt>
      <trkpt lat="45.56782" lon="6.82892">
        <ele>2153</ele>
        <time>2013-02-10T11:07:07Z</time>
      </trkpt>
      <trkpt lat="45.56769" lon="6.82899">
        <ele>2155</ele>
        <time>2013-02-10T11:07:10Z</time>
      </trkpt>
      <trkpt lat="45.56755" lon="6.82906">
        <ele>2158</ele>
        <time>2013-02-10T11:07:13Z</time>
      </trkpt>
      <trkpt lat="45.56732" lon="6.82919">
        <ele>2166</ele>
        <time>2013-02-10T11:07:18Z</time>
      </trkpt>
      <trkpt lat="45.56718" lon="6.82925">
        <ele>2168</ele>
        <time>2013-02-10T11:07:21Z</time>
      </trkpt>
      <trkpt lat="45.56692" lon="6.82939">
        <ele>2171</ele>
        <time>2013-02-10T11:07:27Z</time>
      </trkpt>
      <trkpt lat="45.56665" lon="6.82954">
        <ele>2177</ele>
        <time>2013-02-10T11:07:33Z</time>
      </trkpt>
      <trkpt lat="45.56651" lon="6.82961">
        <ele>2177</ele>
        <time>2013-02-10T11:07:36Z</time>
      </trkpt>
      <trkpt lat="45.56637" lon="6.82969">
        <ele>2177</ele>
        <time>2013-02-10T11:07:39Z</time>
      </trkpt>
      <trkpt lat="45.56609" lon="6.82984">
        <ele>2177</ele>
        <time>2013-02-10T11:07:45Z</time>
      </trkpt>
      <trkpt lat="45.56586" lon="6.82996">
        <ele>2177</ele>
        <time>2013-02-10T11:07:50Z</time>
      </trkpt>
      <trkpt lat="45.56571" lon="6.83003">
        <ele>2179</ele>
        <time>2013-02-10T11:07:53Z</time>
      </trkpt>
      <trkpt lat="45.56557" lon="6.83008">
        <ele>2180</ele>
        <time>2013-02-10T11:07:56Z</time>
      </trkpt>
      <trkpt lat="45.56534" lon="6.83023">
        <ele>2182</ele>
        <time>2013-02-10T11:08:01Z</time>
      </trkpt>
      <trkpt lat="45.56505" lon="6.8304">
        <ele>2184</ele>
        <time>2013-02-10T11:08:07Z</time>
      </trkpt>
      <trkpt lat="45.56482" lon="6.83053">
        <ele>2198</ele>
        <time>2013-02-10T11:08:12Z</time>
      </trkpt>
      <trkpt lat="45.5646" lon="6.83065">
        <ele>2201</ele>
        <time>2013-02-10T11:08:17Z</time>
      </trkpt>
      <trkpt lat="45.56447" lon="6.83073">
        <ele>2204</ele>
        <time>2013-02-10T11:08:20Z</time>
      </trkpt>
      <trkpt lat="45.56426" lon="6.83085">
        <ele>2213</ele>
        <time>2013-02-10T11:08:25Z</time>
      </trkpt>
      <trkpt lat="45.56413" lon="6.83092">
        <ele>2218</ele>
        <time>2013-02-10T11:08:28Z</time>
      </trkpt>
      <trkpt lat="45.56384" lon="6.83107">
        <ele>2223</ele>
        <time>2013-02-10T11:08:34Z</time>
      </trkpt>
      <trkpt lat="45.5636" lon="6.83118">
        <ele>2224</ele>
        <time>2013-02-10T11:08:39Z</time>
      </trkpt>
      <trkpt lat="45.56347" lon="6.83127">
        <ele>2225</ele>
        <time>2013-02-10T11:08:42Z</time>
      </trkpt>
      <trkpt lat="45.5632" lon="6.8314">
        <ele>2231</ele>
        <time>2013-02-10T11:08:48Z</time>
      </trkpt>
      <trkpt lat="45.56296" lon="6.83152">
        <ele>2232</ele>
        <time>2013-02-10T11:08:53Z</time>
      </trkpt>
      <trkpt lat="45.56268" lon="6.83167">
        <ele>2234</ele>
        <time>2013-02-10T11:08:59Z</time>
      </trkpt>
      <trkpt lat="45.56244" lon="6.83178">
        <ele>2240</ele>
        <time>2013-02-10T11:09:04Z</time>
      </trkpt>
      <trkpt lat="45.56221" lon="6.8319">
        <ele>2246</ele>
        <time>2013-02-10T11:09:09Z</time>
      </trkpt>
      <trkpt lat="45.56196" lon="6.83203">
        <ele>2250</ele>
        <time>2013-02-10T11:09:14Z</time>
      </trkpt>
      <trkpt lat="45.56175" lon="6.83214">
        <ele>2253</ele>
        <time>2013-02-10T11:09:19Z</time>
      </trkpt>
      <trkpt lat="45.5615" lon="6.83227">
        <ele>2279</ele>
        <time>2013-02-10T11:09:25Z</time>
      </trkpt>
      <trkpt lat="45.56136" lon="6.83233">
        <ele>2284</ele>
        <time>2013-02-10T11:09:28Z</time>
      </trkpt>
      <trkpt lat="45.56116" lon="6.83245">
        <ele>2293</ele>
        <time>2013-02-10T11:09:33Z</time>
      </trkpt>
      <trkpt lat="45.56116" lon="6.83245">
        <ele>2293</ele>
        <time>2013-02-10T11:20:09Z</time>
      </trkpt>
      <trkpt lat="45.55805" lon="6.82354">
        <ele>2307</ele>
        <time>2013-02-10T11:20:09Z</time>
      </trkpt>
      <trkpt lat="45.55818" lon="6.8234">
        <ele>2299</ele>
        <time>2013-02-10T11:20:14Z</time>
      </trkpt>
      <trkpt lat="45.55842" lon="6.82299">
        <ele>2278</ele>
        <time>2013-02-10T11:20:20Z</time>
      </trkpt>
      <trkpt lat="45.5587" lon="6.82279">
        <ele>2276</ele>
        <time>2013-02-10T11:20:25Z</time>
      </trkpt>
      <trkpt lat="45.55899" lon="6.8229">
        <ele>2273</ele>
        <time>2013-02-10T11:20:32Z</time>
      </trkpt>
      <trkpt lat="45.55922" lon="6.82298">
        <ele>2261</ele>
        <time>2013-02-10T11:20:39Z</time>
      </trkpt>
      <trkpt lat="45.55947" lon="6.82307">
        <ele>2259</ele>
        <time>2013-02-10T11:20:45Z</time>
      </trkpt>
      <trkpt lat="45.55976" lon="6.82312">
        <ele>2256</ele>
        <time>2013-02-10T11:20:50Z</time>
      </trkpt>
      <trkpt lat="45.56011" lon="6.8232">
        <ele>2246</ele>
        <time>2013-02-10T11:20:55Z</time>
      </trkpt>
      <trkpt lat="45.56059" lon="6.82372">
        <ele>2238</ele>
        <time>2013-02-10T11:21:01Z</time>
      </trkpt>
      <trkpt lat="45.56119" lon="6.82417">
        <ele>2221</ele>
        <time>2013-02-10T11:21:07Z</time>
      </trkpt>
      <trkpt lat="45.56172" lon="6.82449">
        <ele>2211</ele>
        <time>2013-02-10T11:21:12Z</time>
      </trkpt>
      <trkpt lat="45.56222" lon="6.82453">
        <ele>2209</ele>
        <time>2013-02-10T11:21:17Z</time>
      </trkpt>
      <trkpt lat="45.5628" lon="6.82466">
        <ele>2202</ele>
        <time>2013-02-10T11:21:23Z</time>
      </trkpt>
      <trkpt lat="45.5631" lon="6.82471">
        <ele>2200</ele>
        <time>2013-02-10T11:21:26Z</time>
      </trkpt>
      <trkpt lat="45.5634" lon="6.82466">
        <ele>2194</ele>
        <time>2013-02-10T11:21:29Z</time>
      </trkpt>
      <trkpt lat="45.56387" lon="6.82475">
        <ele>2192</ele>
        <time>2013-02-10T11:21:35Z</time>
      </trkpt>
      <trkpt lat="45.56411" lon="6.82472">
        <ele>2191</ele>
        <time>2013-02-10T11:21:38Z</time>
      </trkpt>
      <trkpt lat="45.56433" lon="6.82473">
        <ele>2187</ele>
        <time>2013-02-10T11:21:41Z</time>
      </trkpt>
      <trkpt lat="45.56484" lon="6.82471">
        <ele>2184</ele>
        <time>2013-02-10T11:21:47Z</time>
      </trkpt>
      <trkpt lat="45.5652" lon="6.82451">
        <ele>2181</ele>
        <time>2013-02-10T11:21:53Z</time>
      </trkpt>
      <trkpt lat="45.56542" lon="6.82453">
        <ele>2180</ele>
        <time>2013-02-10T11:21:59Z</time>
      </trkpt>
      <trkpt lat="45.56564" lon="6.82468">
        <ele>2179</ele>
        <time>2013-02-10T11:22:05Z</time>
      </trkpt>
      <trkpt lat="45.56577" lon="6.82472">
        <ele>2179</ele>
        <time>2013-02-10T11:22:12Z</time>
      </trkpt>
      <trkpt lat="45.56584" lon="6.82476">
        <ele>2177</ele>
        <time>2013-02-10T11:22:20Z</time>
      </trkpt>
      <trkpt lat="45.56599" lon="6.82484">
        <ele>2177</ele>
        <time>2013-02-10T11:22:29Z</time>
      </trkpt>
      <trkpt lat="45.5661" lon="6.82494">
        <ele>2176</ele>
        <time>2013-02-10T11:22:36Z</time>
      </trkpt>
      <trkpt lat="45.56627" lon="6.82502">
        <ele>2174</ele>
        <time>2013-02-10T11:22:46Z</time>
      </trkpt>
      <trkpt lat="45.56642" lon="6.825">
        <ele>2175</ele>
        <time>2013-02-10T11:22:54Z</time>
      </trkpt>
      <trkpt lat="45.56667" lon="6.8251">
        <ele>2169</ele>
        <time>2013-02-10T11:23:04Z</time>
      </trkpt>
      <trkpt lat="45.56683" lon="6.82508">
        <ele>2167</ele>
        <time>2013-02-10T11:23:09Z</time>
      </trkpt>
      <trkpt lat="45.56683" lon="6.82508">
        <ele>2167</ele>
        <time>2013-02-10T11:23:14Z</time>
      </trkpt>
      <trkpt lat="45.56683" lon="6.82508">
        <ele>2167</ele>
        <time>2013-02-10T11:23:36Z</time>
      </trkpt>
      <trkpt lat="45.56706" lon="6.82505">
        <ele>2164</ele>
        <time>2013-02-10T11:23:36Z</time>
      </trkpt>
      <trkpt lat="45.56737" lon="6.82491">
        <ele>2164</ele>
        <time>2013-02-10T11:23:42Z</time>
      </trkpt>
      <trkpt lat="45.56777" lon="6.82481">
        <ele>2154</ele>
        <time>2013-02-10T11:23:47Z</time>
      </trkpt>
      <trkpt lat="45.56839" lon="6.82486">
        <ele>2135</ele>
        <time>2013-02-10T11:23:53Z</time>
      </trkpt>
      <trkpt lat="45.5689" lon="6.82507">
        <ele>2125</ele>
        <time>2013-02-10T11:23:58Z</time>
      </trkpt>
      <trkpt lat="45.56918" lon="6.82523">
        <ele>2111</ele>
        <time>2013-02-10T11:24:01Z</time>
      </trkpt>
      <trkpt lat="45.56964" lon="6.82543">
        <ele>2099</ele>
        <time>2013-02-10T11:24:06Z</time>
      </trkpt>
      <trkpt lat="45.57014" lon="6.82528">
        <ele>2075</ele>
        <time>2013-02-10T11:24:11Z</time>
      </trkpt>
      <trkpt lat="45.57085" lon="6.82501">
        <ele>2058</ele>
        <time>2013-02-10T11:24:17Z</time>
      </trkpt>
      <trkpt lat="45.57144" lon="6.82436">
        <ele>2047</ele>
        <time>2013-02-10T11:24:23Z</time>
      </trkpt>
      <trkpt lat="45.57171" lon="6.82412">
        <ele>2042</ele>
        <time>2013-02-10T11:24:26Z</time>
      </trkpt>
      <trkpt lat="45.57216" lon="6.82389">
        <ele>2038</ele>
        <time>2013-02-10T11:24:31Z</time>
      </trkpt>
      <trkpt lat="45.57251" lon="6.82391">
        <ele>2028</ele>
        <time>2013-02-10T11:24:37Z</time>
      </trkpt>
      <trkpt lat="45.57277" lon="6.82408">
        <ele>2027</ele>
        <time>2013-02-10T11:24:42Z</time>
      </trkpt>
      <trkpt lat="45.57294" lon="6.82425">
        <ele>2023</ele>
        <time>2013-02-10T11:24:45Z</time>
      </trkpt>
      <trkpt lat="45.57309" lon="6.82462">
        <ele>2022</ele>
        <time>2013-02-10T11:24:50Z</time>
      </trkpt>
      <trkpt lat="45.57315" lon="6.8248">
        <ele>2021</ele>
        <time>2013-02-10T11:24:54Z</time>
      </trkpt>
      <trkpt lat="45.57315" lon="6.8248">
        <ele>2021</ele>
        <time>2013-02-10T11:24:59Z</time>
      </trkpt>
      <trkpt lat="45.57315" lon="6.8248">
        <ele>2021</ele>
        <time>2013-02-10T11:26:19Z</time>
      </trkpt>
      <trkpt lat="45.57316" lon="6.82411">
        <ele>2022</ele>
        <time>2013-02-10T11:26:19Z</time>
      </trkpt>
      <trkpt lat="45.57302" lon="6.82347">
        <ele>2027</ele>
        <time>2013-02-10T11:26:31Z</time>
      </trkpt>
      <trkpt lat="45.57299" lon="6.8232">
        <ele>2037</ele>
        <time>2013-02-10T11:26:37Z</time>
      </trkpt>
      <trkpt lat="45.57293" lon="6.82287">
        <ele>2041</ele>
        <time>2013-02-10T11:26:44Z</time>
      </trkpt>
      <trkpt lat="45.57289" lon="6.82264">
        <ele>2044</ele>
        <time>2013-02-10T11:26:50Z</time>
      </trkpt>
      <trkpt lat="45.57283" lon="6.82219">
        <ele>2066</ele>
        <time>2013-02-10T11:26:57Z</time>
      </trkpt>
      <trkpt lat="45.57283" lon="6.82186">
        <ele>2073</ele>
        <time>2013-02-10T11:27:04Z</time>
      </trkpt>
      <trkpt lat="45.57281" lon="6.82155">
        <ele>2099</ele>
        <time>2013-02-10T11:27:11Z</time>
      </trkpt>
      <trkpt lat="45.57279" lon="6.8212">
        <ele>2107</ele>
        <time>2013-02-10T11:27:19Z</time>
      </trkpt>
      <trkpt lat="45.57277" lon="6.82099">
        <ele>2112</ele>
        <time>2013-02-10T11:27:24Z</time>
      </trkpt>
      <trkpt lat="45.57276" lon="6.82068">
        <ele>2138</ele>
        <time>2013-02-10T11:27:31Z</time>
      </trkpt>
      <trkpt lat="45.57272" lon="6.82033">
        <ele>2146</ele>
        <time>2013-02-10T11:27:40Z</time>
      </trkpt>
      <trkpt lat="45.57268" lon="6.8199">
        <ele>2170</ele>
        <time>2013-02-10T11:27:50Z</time>
      </trkpt>
      <trkpt lat="45.57266" lon="6.81962">
        <ele>2178</ele>
        <time>2013-02-10T11:27:56Z</time>
      </trkpt>
      <trkpt lat="45.57264" lon="6.81932">
        <ele>2185</ele>
        <time>2013-02-10T11:28:03Z</time>
      </trkpt>
      <trkpt lat="45.57261" lon="6.81905">
        <ele>2203</ele>
        <time>2013-02-10T11:28:09Z</time>
      </trkpt>
      <trkpt lat="45.57259" lon="6.81878">
        <ele>2213</ele>
        <time>2013-02-10T11:28:15Z</time>
      </trkpt>
      <trkpt lat="45.57259" lon="6.81849">
        <ele>2221</ele>
        <time>2013-02-10T11:28:21Z</time>
      </trkpt>
      <trkpt lat="45.57253" lon="6.81812">
        <ele>2241</ele>
        <time>2013-02-10T11:28:30Z</time>
      </trkpt>
      <trkpt lat="45.57253" lon="6.81787">
        <ele>2249</ele>
        <time>2013-02-10T11:28:35Z</time>
      </trkpt>
      <trkpt lat="45.57251" lon="6.81762">
        <ele>2255</ele>
        <time>2013-02-10T11:28:40Z</time>
      </trkpt>
      <trkpt lat="45.57248" lon="6.8173">
        <ele>2257</ele>
        <time>2013-02-10T11:28:47Z</time>
      </trkpt>
      <trkpt lat="45.57244" lon="6.81696">
        <ele>2261</ele>
        <time>2013-02-10T11:28:55Z</time>
      </trkpt>
      <trkpt lat="45.57242" lon="6.81658">
        <ele>2273</ele>
        <time>2013-02-10T11:29:03Z</time>
      </trkpt>
      <trkpt lat="45.57235" lon="6.81617">
        <ele>2274</ele>
        <time>2013-02-10T11:29:10Z</time>
      </trkpt>
      <trkpt lat="45.57231" lon="6.81584">
        <ele>2277</ele>
        <time>2013-02-10T11:29:16Z</time>
      </trkpt>
      <trkpt lat="45.57228" lon="6.8156">
        <ele>2287</ele>
        <time>2013-02-10T11:29:21Z</time>
      </trkpt>
      <trkpt lat="45.57224" lon="6.81522">
        <ele>2292</ele>
        <time>2013-02-10T11:29:28Z</time>
      </trkpt>
      <trkpt lat="45.5722" lon="6.81492">
        <ele>2310</ele>
        <time>2013-02-10T11:29:34Z</time>
      </trkpt>
      <trkpt lat="45.57216" lon="6.81451">
        <ele>2319</ele>
        <time>2013-02-10T11:29:43Z</time>
      </trkpt>
      <trkpt lat="45.57213" lon="6.81429">
        <ele>2323</ele>
        <time>2013-02-10T11:29:48Z</time>
      </trkpt>
      <trkpt lat="45.57208" lon="6.81394">
        <ele>2349</ele>
        <time>2013-02-10T11:29:56Z</time>
      </trkpt>
      <trkpt lat="45.57205" lon="6.81367">
        <ele>2355</ele>
        <time>2013-02-10T11:30:03Z</time>
      </trkpt>
      <trkpt lat="45.57202" lon="6.81339">
        <ele>2360</ele>
        <time>2013-02-10T11:30:10Z</time>
      </trkpt>
      <trkpt lat="45.57203" lon="6.81312">
        <ele>2375</ele>
        <time>2013-02-10T11:30:19Z</time>
      </trkpt>
      <trkpt lat="45.57201" lon="6.81272">
        <ele>2377</ele>
        <time>2013-02-10T11:30:27Z</time>
      </trkpt>
      <trkpt lat="45.57202" lon="6.81243">
        <ele>2384</ele>
        <time>2013-02-10T11:30:33Z</time>
      </trkpt>
      <trkpt lat="45.57199" lon="6.81204">
        <ele>2386</ele>
        <time>2013-02-10T11:30:41Z</time>
      </trkpt>
      <trkpt lat="45.57195" lon="6.81184">
        <ele>2388</ele>
        <time>2013-02-10T11:30:51Z</time>
      </trkpt>
      <trkpt lat="45.57175" lon="6.81162">
        <ele>2392</ele>
        <time>2013-02-10T11:31:10Z</time>
      </trkpt>
      <trkpt lat="45.57175" lon="6.81162">
        <ele>2392</ele>
        <time>2013-02-10T11:31:18Z</time>
      </trkpt>
      <trkpt lat="45.57175" lon="6.81162">
        <ele>2392</ele>
        <time>2013-02-10T11:31:18Z</time>
      </trkpt>
      <trkpt lat="45.57175" lon="6.81162">
        <ele>2392</ele>
        <time>2013-02-10T11:33:05Z</time>
      </trkpt>
      <trkpt lat="45.57163" lon="6.81129">
        <ele>2387</ele>
        <time>2013-02-10T11:33:05Z</time>
      </trkpt>
      <trkpt lat="45.57163" lon="6.81129">
        <ele>2387</ele>
        <time>2013-02-10T11:33:12Z</time>
      </trkpt>
      <trkpt lat="45.57163" lon="6.81129">
        <ele>2387</ele>
        <time>2013-02-10T11:33:12Z</time>
      </trkpt>
      <trkpt lat="45.57163" lon="6.81129">
        <ele>2387</ele>
        <time>2013-02-10T11:33:57Z</time>
      </trkpt>
      <trkpt lat="45.57174" lon="6.81127">
        <ele>2389</ele>
        <time>2013-02-10T11:33:57Z</time>
      </trkpt>
      <trkpt lat="45.57193" lon="6.81108">
        <ele>2388</ele>
        <time>2013-02-10T11:34:08Z</time>
      </trkpt>
      <trkpt lat="45.57197" lon="6.81086">
        <ele>2387</ele>
        <time>2013-02-10T11:34:16Z</time>
      </trkpt>
      <trkpt lat="45.57193" lon="6.81061">
        <ele>2374</ele>
        <time>2013-02-10T11:34:25Z</time>
      </trkpt>
      <trkpt lat="45.57199" lon="6.81027">
        <ele>2366</ele>
        <time>2013-02-10T11:34:36Z</time>
      </trkpt>
      <trkpt lat="45.57197" lon="6.81009">
        <ele>2364</ele>
        <time>2013-02-10T11:34:44Z</time>
      </trkpt>
      <trkpt lat="45.57224" lon="6.80951">
        <ele>2334</ele>
        <time>2013-02-10T11:35:00Z</time>
      </trkpt>
      <trkpt lat="45.57224" lon="6.80914">
        <ele>2314</ele>
        <time>2013-02-10T11:35:05Z</time>
      </trkpt>
      <trkpt lat="45.57238" lon="6.80883">
        <ele>2310</ele>
        <time>2013-02-10T11:35:10Z</time>
      </trkpt>
      <trkpt lat="45.57281" lon="6.80885">
        <ele>2292</ele>
        <time>2013-02-10T11:35:17Z</time>
      </trkpt>
      <trkpt lat="45.57317" lon="6.80881">
        <ele>2288</ele>
        <time>2013-02-10T11:35:22Z</time>
      </trkpt>
      <trkpt lat="45.57357" lon="6.80879">
        <ele>2274</ele>
        <time>2013-02-10T11:35:28Z</time>
      </trkpt>
      <trkpt lat="45.57382" lon="6.80899">
        <ele>2273</ele>
        <time>2013-02-10T11:35:33Z</time>
      </trkpt>
      <trkpt lat="45.57418" lon="6.80907">
        <ele>2265</ele>
        <time>2013-02-10T11:35:38Z</time>
      </trkpt>
      <trkpt lat="45.57455" lon="6.8091">
        <ele>2256</ele>
        <time>2013-02-10T11:35:44Z</time>
      </trkpt>
      <trkpt lat="45.57484" lon="6.80916">
        <ele>2253</ele>
        <time>2013-02-10T11:35:50Z</time>
      </trkpt>
      <trkpt lat="45.57523" lon="6.80901">
        <ele>2245</ele>
        <time>2013-02-10T11:35:55Z</time>
      </trkpt>
      <trkpt lat="45.57517" lon="6.80804">
        <ele>2233</ele>
        <time>2013-02-10T11:36:02Z</time>
      </trkpt>
      <trkpt lat="45.57538" lon="6.80743">
        <ele>2223</ele>
        <time>2013-02-10T11:36:09Z</time>
      </trkpt>
      <trkpt lat="45.57549" lon="6.80696">
        <ele>2219</ele>
        <time>2013-02-10T11:36:14Z</time>
      </trkpt>
      <trkpt lat="45.57537" lon="6.80677">
        <ele>2218</ele>
        <time>2013-02-10T11:36:18Z</time>
      </trkpt>
      <trkpt lat="45.57568" lon="6.80643">
        <ele>2207</ele>
        <time>2013-02-10T11:36:23Z</time>
      </trkpt>
      <trkpt lat="45.57618" lon="6.8062">
        <ele>2199</ele>
        <time>2013-02-10T11:36:29Z</time>
      </trkpt>
      <trkpt lat="45.57632" lon="6.80613">
        <ele>2197</ele>
        <time>2013-02-10T11:36:32Z</time>
      </trkpt>
      <trkpt lat="45.57632" lon="6.80613">
        <ele>2197</ele>
        <time>2013-02-10T11:36:37Z</time>
      </trkpt>
      <trkpt lat="45.57632" lon="6.80613">
        <ele>2197</ele>
        <time>2013-02-10T11:37:20Z</time>
      </trkpt>
      <trkpt lat="45.57669" lon="6.8057">
        <ele>2183</ele>
        <time>2013-02-10T11:37:20Z</time>
      </trkpt>
      <trkpt lat="45.57705" lon="6.80493">
        <ele>2170</ele>
        <time>2013-02-10T11:37:26Z</time>
      </trkpt>
      <trkpt lat="45.5772" lon="6.80462">
        <ele>2167</ele>
        <time>2013-02-10T11:37:29Z</time>
      </trkpt>
      <trkpt lat="45.57743" lon="6.80417">
        <ele>2161</ele>
        <time>2013-02-10T11:37:33Z</time>
      </trkpt>
      <trkpt lat="45.57775" lon="6.80343">
        <ele>2153</ele>
        <time>2013-02-10T11:37:39Z</time>
      </trkpt>
      <trkpt lat="45.57787" lon="6.80308">
        <ele>2147</ele>
        <time>2013-02-10T11:37:42Z</time>
      </trkpt>
      <trkpt lat="45.57804" lon="6.80299">
        <ele>2147</ele>
        <time>2013-02-10T11:37:45Z</time>
      </trkpt>
      <trkpt lat="45.57804" lon="6.80299">
        <ele>2147</ele>
        <time>2013-02-10T11:37:51Z</time>
      </trkpt>
      <trkpt lat="45.57804" lon="6.80299">
        <ele>2147</ele>
        <time>2013-02-10T11:37:51Z</time>
      </trkpt>
      <trkpt lat="45.57804" lon="6.80299">
        <ele>2147</ele>
        <time>2013-02-10T11:37:54Z</time>
      </trkpt>
      <trkpt lat="45.57808" lon="6.80286">
        <ele>2146</ele>
        <time>2013-02-10T11:37:54Z</time>
      </trkpt>
      <trkpt lat="45.57835" lon="6.80233">
        <ele>2137</ele>
        <time>2013-02-10T11:38:02Z</time>
      </trkpt>
      <trkpt lat="45.57826" lon="6.80166">
        <ele>2123</ele>
        <time>2013-02-10T11:38:08Z</time>
      </trkpt>
      <trkpt lat="45.57826" lon="6.80124">
        <ele>2115</ele>
        <time>2013-02-10T11:38:11Z</time>
      </trkpt>
      <trkpt lat="45.57828" lon="6.80085">
        <ele>2106</ele>
        <time>2013-02-10T11:38:14Z</time>
      </trkpt>
      <trkpt lat="45.57848" lon="6.80075">
        <ele>2098</ele>
        <time>2013-02-10T11:38:17Z</time>
      </trkpt>
      <trkpt lat="45.57845" lon="6.80028">
        <ele>2090</ele>
        <time>2013-02-10T11:38:22Z</time>
      </trkpt>
      <trkpt lat="45.57874" lon="6.80019">
        <ele>2089</ele>
        <time>2013-02-10T11:38:27Z</time>
      </trkpt>
      <trkpt lat="45.57871" lon="6.79987">
        <ele>2076</ele>
        <time>2013-02-10T11:38:31Z</time>
      </trkpt>
      <trkpt lat="45.57886" lon="6.79945">
        <ele>2071</ele>
        <time>2013-02-10T11:38:38Z</time>
      </trkpt>
      <trkpt lat="45.57969" lon="6.79861">
        <ele>2044</ele>
        <time>2013-02-10T11:38:51Z</time>
      </trkpt>
      <trkpt lat="45.57982" lon="6.79818">
        <ele>2031</ele>
        <time>2013-02-10T11:38:54Z</time>
      </trkpt>
      <trkpt lat="45.58048" lon="6.79766">
        <ele>2017</ele>
        <time>2013-02-10T11:39:00Z</time>
      </trkpt>
      <trkpt lat="45.58088" lon="6.79766">
        <ele>2010</ele>
        <time>2013-02-10T11:39:03Z</time>
      </trkpt>
      <trkpt lat="45.58125" lon="6.79757">
        <ele>2010</ele>
        <time>2013-02-10T11:39:06Z</time>
      </trkpt>
      <trkpt lat="45.58178" lon="6.79739">
        <ele>1989</ele>
        <time>2013-02-10T11:39:12Z</time>
      </trkpt>
      <trkpt lat="45.58221" lon="6.79734">
        <ele>1984</ele>
        <time>2013-02-10T11:39:17Z</time>
      </trkpt>
      <trkpt lat="45.58247" lon="6.79738">
        <ele>1987</ele>
        <time>2013-02-10T11:39:20Z</time>
      </trkpt>
      <trkpt lat="45.58292" lon="6.79746">
        <ele>1973</ele>
        <time>2013-02-10T11:39:25Z</time>
      </trkpt>
      <trkpt lat="45.58333" lon="6.79767">
        <ele>1982</ele>
        <time>2013-02-10T11:39:30Z</time>
      </trkpt>
      <trkpt lat="45.58382" lon="6.79783">
        <ele>1972</ele>
        <time>2013-02-10T11:39:36Z</time>
      </trkpt>
      <trkpt lat="45.58423" lon="6.798">
        <ele>1961</ele>
        <time>2013-02-10T11:39:41Z</time>
      </trkpt>
      <trkpt lat="45.58449" lon="6.79812">
        <ele>1961</ele>
        <time>2013-02-10T11:39:44Z</time>
      </trkpt>
      <trkpt lat="45.5847" lon="6.79819">
        <ele>1959</ele>
        <time>2013-02-10T11:39:47Z</time>
      </trkpt>
      <trkpt lat="45.58515" lon="6.79829">
        <ele>1953</ele>
        <time>2013-02-10T11:39:53Z</time>
      </trkpt>
      <trkpt lat="45.58565" lon="6.7984">
        <ele>1956</ele>
        <time>2013-02-10T11:39:59Z</time>
      </trkpt>
      <trkpt lat="45.58586" lon="6.79848">
        <ele>1943</ele>
        <time>2013-02-10T11:40:02Z</time>
      </trkpt>
      <trkpt lat="45.5862" lon="6.79874">
        <ele>1939</ele>
        <time>2013-02-10T11:40:07Z</time>
      </trkpt>
      <trkpt lat="45.58638" lon="6.79894">
        <ele>1938</ele>
        <time>2013-02-10T11:40:10Z</time>
      </trkpt>
      <trkpt lat="45.58661" lon="6.79937">
        <ele>1946</ele>
        <time>2013-02-10T11:40:15Z</time>
      </trkpt>
      <trkpt lat="45.58685" lon="6.79976">
        <ele>1931</ele>
        <time>2013-02-10T11:40:20Z</time>
      </trkpt>
      <trkpt lat="45.58718" lon="6.80011">
        <ele>1940</ele>
        <time>2013-02-10T11:40:26Z</time>
      </trkpt>
      <trkpt lat="45.58754" lon="6.80037">
        <ele>1927</ele>
        <time>2013-02-10T11:40:31Z</time>
      </trkpt>
      <trkpt lat="45.58807" lon="6.80038">
        <ele>1924</ele>
        <time>2013-02-10T11:40:37Z</time>
      </trkpt>
      <trkpt lat="45.58856" lon="6.8003">
        <ele>1912</ele>
        <time>2013-02-10T11:40:42Z</time>
      </trkpt>
      <trkpt lat="45.58899" lon="6.8003">
        <ele>1909</ele>
        <time>2013-02-10T11:40:47Z</time>
      </trkpt>
      <trkpt lat="45.58942" lon="6.80031">
        <ele>1896</ele>
        <time>2013-02-10T11:40:52Z</time>
      </trkpt>
      <trkpt lat="45.58962" lon="6.8003">
        <ele>1893</ele>
        <time>2013-02-10T11:40:58Z</time>
      </trkpt>
      <trkpt lat="45.58962" lon="6.8003">
        <ele>1893</ele>
        <time>2013-02-10T11:41:05Z</time>
      </trkpt>
      <trkpt lat="45.58962" lon="6.8003">
        <ele>1893</ele>
        <time>2013-02-10T11:41:05Z</time>
      </trkpt>
      <trkpt lat="45.58962" lon="6.8003">
        <ele>1893</ele>
        <time>2013-02-10T11:41:11Z</time>
      </trkpt>
      <trkpt lat="45.58975" lon="6.80041">
        <ele>1893</ele>
        <time>2013-02-10T11:41:11Z</time>
      </trkpt>
      <trkpt lat="45.58988" lon="6.80034">
        <ele>1891</ele>
        <time>2013-02-10T11:41:14Z</time>
      </trkpt>
      <trkpt lat="45.58992" lon="6.80012">
        <ele>1884</ele>
        <time>2013-02-10T11:41:17Z</time>
      </trkpt>
      <trkpt lat="45.59002" lon="6.79989">
        <ele>1865</ele>
        <time>2013-02-10T11:41:20Z</time>
      </trkpt>
      <trkpt lat="45.59016" lon="6.79963">
        <ele>1853</ele>
        <time>2013-02-10T11:41:25Z</time>
      </trkpt>
      <trkpt lat="45.59067" lon="6.79906">
        <ele>1821</ele>
        <time>2013-02-10T11:41:33Z</time>
      </trkpt>
      <trkpt lat="45.59103" lon="6.79886">
        <ele>1803</ele>
        <time>2013-02-10T11:41:38Z</time>
      </trkpt>
      <trkpt lat="45.59176" lon="6.79843">
        <ele>1780</ele>
        <time>2013-02-10T11:41:44Z</time>
      </trkpt>
      <trkpt lat="45.5926" lon="6.79789">
        <ele>1748</ele>
        <time>2013-02-10T11:41:51Z</time>
      </trkpt>
      <trkpt lat="45.59293" lon="6.79793">
        <ele>1745</ele>
        <time>2013-02-10T11:41:57Z</time>
      </trkpt>
      <trkpt lat="45.59316" lon="6.7981">
        <ele>1744</ele>
        <time>2013-02-10T11:42:02Z</time>
      </trkpt>
      <trkpt lat="45.59375" lon="6.79787">
        <ele>1726</ele>
        <time>2013-02-10T11:42:09Z</time>
      </trkpt>
      <trkpt lat="45.59433" lon="6.79746">
        <ele>1703</ele>
        <time>2013-02-10T11:42:14Z</time>
      </trkpt>
      <trkpt lat="45.59447" lon="6.79709">
        <ele>1699</ele>
        <time>2013-02-10T11:42:17Z</time>
      </trkpt>
      <trkpt lat="45.59475" lon="6.79656">
        <ele>1685</ele>
        <time>2013-02-10T11:42:22Z</time>
      </trkpt>
      <trkpt lat="45.59494" lon="6.79623">
        <ele>1681</ele>
        <time>2013-02-10T11:42:25Z</time>
      </trkpt>
      <trkpt lat="45.59507" lon="6.79594">
        <ele>1672</ele>
        <time>2013-02-10T11:42:28Z</time>
      </trkpt>
      <trkpt lat="45.59516" lon="6.7955">
        <ele>1660</ele>
        <time>2013-02-10T11:42:31Z</time>
      </trkpt>
      <trkpt lat="45.59546" lon="6.7954">
        <ele>1657</ele>
        <time>2013-02-10T11:42:34Z</time>
      </trkpt>
      <trkpt lat="45.5957" lon="6.79525">
        <ele>1652</ele>
        <time>2013-02-10T11:42:37Z</time>
      </trkpt>
      <trkpt lat="45.59588" lon="6.79481">
        <ele>1634</ele>
        <time>2013-02-10T11:42:42Z</time>
      </trkpt>
      <trkpt lat="45.59592" lon="6.79454">
        <ele>1631</ele>
        <time>2013-02-10T11:42:47Z</time>
      </trkpt>
      <trkpt lat="45.59592" lon="6.79454">
        <ele>1631</ele>
        <time>2013-02-10T11:42:52Z</time>
      </trkpt>
      <trkpt lat="45.59592" lon="6.79454">
        <ele>1631</ele>
        <time>2013-02-10T11:42:52Z</time>
      </trkpt>
      <trkpt lat="45.59592" lon="6.79454">
        <ele>1631</ele>
        <time>2013-02-10T11:43:16Z</time>
      </trkpt>
      <trkpt lat="45.59621" lon="6.79411">
        <ele>1621</ele>
        <time>2013-02-10T11:43:16Z</time>
      </trkpt>
      <trkpt lat="45.59621" lon="6.79392">
        <ele>1620</ele>
        <time>2013-02-10T11:43:23Z</time>
      </trkpt>
      <trkpt lat="45.59607" lon="6.79375">
        <ele>1621</ele>
        <time>2013-02-10T11:43:37Z</time>
      </trkpt>
      <trkpt lat="45.59602" lon="6.79376">
        <ele>1621</ele>
        <time>2013-02-10T11:43:40Z</time>
      </trkpt>
      <trkpt lat="45.59602" lon="6.79376">
        <ele>1621</ele>
        <time>2013-02-10T11:43:48Z</time>
      </trkpt>
      <trkpt lat="45.59602" lon="6.79376">
        <ele>1621</ele>
        <time>2013-02-10T11:44:06Z</time>
      </trkpt>
      <trkpt lat="45.59613" lon="6.79391">
        <ele>1621</ele>
        <time>2013-02-10T11:44:06Z</time>
      </trkpt>
      <trkpt lat="45.59614" lon="6.79393">
        <ele>1621</ele>
        <time>2013-02-10T11:44:08Z</time>
      </trkpt>
      <trkpt lat="45.59614" lon="6.79393">
        <ele>1621</ele>
        <time>2013-02-10T11:44:16Z</time>
      </trkpt>
      <trkpt lat="45.59614" lon="6.79393">
        <ele>1621</ele>
        <time>2013-02-10T11:44:50Z</time>
      </trkpt>
      <trkpt lat="45.59602" lon="6.79413">
        <ele>1624</ele>
        <time>2013-02-10T11:44:50Z</time>
      </trkpt>
      <trkpt lat="45.59566" lon="6.79442">
        <ele>1638</ele>
        <time>2013-02-10T11:44:59Z</time>
      </trkpt>
      <trkpt lat="45.59552" lon="6.79453">
        <ele>1640</ele>
        <time>2013-02-10T11:45:04Z</time>
      </trkpt>
      <trkpt lat="45.59535" lon="6.79468">
        <ele>1643</ele>
        <time>2013-02-10T11:45:10Z</time>
      </trkpt>
      <trkpt lat="45.59513" lon="6.79486">
        <ele>1647</ele>
        <time>2013-02-10T11:45:17Z</time>
      </trkpt>
      <trkpt lat="45.59497" lon="6.79501">
        <ele>1656</ele>
        <time>2013-02-10T11:45:23Z</time>
      </trkpt>
      <trkpt lat="45.59476" lon="6.79519">
        <ele>1665</ele>
        <time>2013-02-10T11:45:30Z</time>
      </trkpt>
      <trkpt lat="45.5946" lon="6.79534">
        <ele>1668</ele>
        <time>2013-02-10T11:45:36Z</time>
      </trkpt>
      <trkpt lat="45.59444" lon="6.7955">
        <ele>1671</ele>
        <time>2013-02-10T11:45:42Z</time>
      </trkpt>
      <trkpt lat="45.59427" lon="6.79565">
        <ele>1675</ele>
        <time>2013-02-10T11:45:48Z</time>
      </trkpt>
      <trkpt lat="45.59415" lon="6.79576">
        <ele>1684</ele>
        <time>2013-02-10T11:45:52Z</time>
      </trkpt>
      <trkpt lat="45.59394" lon="6.79594">
        <ele>1694</ele>
        <time>2013-02-10T11:45:59Z</time>
      </trkpt>
      <trkpt lat="45.59385" lon="6.79602">
        <ele>1697</ele>
        <time>2013-02-10T11:46:02Z</time>
      </trkpt>
      <trkpt lat="45.59365" lon="6.79619">
        <ele>1701</ele>
        <time>2013-02-10T11:46:09Z</time>
      </trkpt>
      <trkpt lat="45.59349" lon="6.79634">
        <ele>1705</ele>
        <time>2013-02-10T11:46:15Z</time>
      </trkpt>
      <trkpt lat="45.59332" lon="6.79648">
        <ele>1719</ele>
        <time>2013-02-10T11:46:21Z</time>
      </trkpt>
      <trkpt lat="45.59311" lon="6.79667">
        <ele>1727</ele>
        <time>2013-02-10T11:46:28Z</time>
      </trkpt>
      <trkpt lat="45.59291" lon="6.79686">
        <ele>1731</ele>
        <time>2013-02-10T11:46:35Z</time>
      </trkpt>
      <trkpt lat="45.59273" lon="6.797">
        <ele>1734</ele>
        <time>2013-02-10T11:46:41Z</time>
      </trkpt>
      <trkpt lat="45.59256" lon="6.79716">
        <ele>1736</ele>
        <time>2013-02-10T11:46:47Z</time>
      </trkpt>
      <trkpt lat="45.5924" lon="6.79728">
        <ele>1746</ele>
        <time>2013-02-10T11:46:53Z</time>
      </trkpt>
      <trkpt lat="45.59225" lon="6.79742">
        <ele>1747</ele>
        <time>2013-02-10T11:46:58Z</time>
      </trkpt>
      <trkpt lat="45.59203" lon="6.79762">
        <ele>1760</ele>
        <time>2013-02-10T11:47:05Z</time>
      </trkpt>
      <trkpt lat="45.59188" lon="6.79775">
        <ele>1762</ele>
        <time>2013-02-10T11:47:10Z</time>
      </trkpt>
      <trkpt lat="45.59171" lon="6.79791">
        <ele>1765</ele>
        <time>2013-02-10T11:47:16Z</time>
      </trkpt>
      <trkpt lat="45.59154" lon="6.79808">
        <ele>1776</ele>
        <time>2013-02-10T11:47:22Z</time>
      </trkpt>
      <trkpt lat="45.59141" lon="6.79821">
        <ele>1778</ele>
        <time>2013-02-10T11:47:27Z</time>
      </trkpt>
      <trkpt lat="45.59133" lon="6.7983">
        <ele>1779</ele>
        <time>2013-02-10T11:47:30Z</time>
      </trkpt>
      <trkpt lat="45.59113" lon="6.7985">
        <ele>1797</ele>
        <time>2013-02-10T11:47:37Z</time>
      </trkpt>
      <trkpt lat="45.59092" lon="6.79869">
        <ele>1801</ele>
        <time>2013-02-10T11:47:44Z</time>
      </trkpt>
      <trkpt lat="45.59076" lon="6.79883">
        <ele>1818</ele>
        <time>2013-02-10T11:47:50Z</time>
      </trkpt>
      <trkpt lat="45.59056" lon="6.799">
        <ele>1823</ele>
        <time>2013-02-10T11:47:57Z</time>
      </trkpt>
      <trkpt lat="45.59034" lon="6.7992">
        <ele>1845</ele>
        <time>2013-02-10T11:48:04Z</time>
      </trkpt>
      <trkpt lat="45.59021" lon="6.79931">
        <ele>1848</ele>
        <time>2013-02-10T11:48:09Z</time>
      </trkpt>
      <trkpt lat="45.59001" lon="6.79948">
        <ele>1852</ele>
        <time>2013-02-10T11:48:17Z</time>
      </trkpt>
      <trkpt lat="45.58986" lon="6.79962">
        <ele>1870</ele>
        <time>2013-02-10T11:48:23Z</time>
      </trkpt>
      <trkpt lat="45.58969" lon="6.79979">
        <ele>1873</ele>
        <time>2013-02-10T11:48:30Z</time>
      </trkpt>
      <trkpt lat="45.58946" lon="6.79999">
        <ele>1880</ele>
        <time>2013-02-10T11:48:38Z</time>
      </trkpt>
      <trkpt lat="45.58926" lon="6.80018">
        <ele>1896</ele>
        <time>2013-02-10T11:48:45Z</time>
      </trkpt>
      <trkpt lat="45.58907" lon="6.80036">
        <ele>1909</ele>
        <time>2013-02-10T11:48:52Z</time>
      </trkpt>
      <trkpt lat="45.58889" lon="6.80052">
        <ele>1913</ele>
        <time>2013-02-10T11:48:59Z</time>
      </trkpt>
      <trkpt lat="45.58872" lon="6.80067">
        <ele>1916</ele>
        <time>2013-02-10T11:49:05Z</time>
      </trkpt>
      <trkpt lat="45.5885" lon="6.80087">
        <ele>1934</ele>
        <time>2013-02-10T11:49:13Z</time>
      </trkpt>
      <trkpt lat="45.58841" lon="6.80095">
        <ele>1935</ele>
        <time>2013-02-10T11:49:16Z</time>
      </trkpt>
      <trkpt lat="45.58834" lon="6.80103">
        <ele>1936</ele>
        <time>2013-02-10T11:49:19Z</time>
      </trkpt>
      <trkpt lat="45.58823" lon="6.80112">
        <ele>1947</ele>
        <time>2013-02-10T11:49:23Z</time>
      </trkpt>
      <trkpt lat="45.58805" lon="6.80129">
        <ele>1951</ele>
        <time>2013-02-10T11:49:30Z</time>
      </trkpt>
      <trkpt lat="45.58797" lon="6.80137">
        <ele>1953</ele>
        <time>2013-02-10T11:49:33Z</time>
      </trkpt>
      <trkpt lat="45.58777" lon="6.80154">
        <ele>1957</ele>
        <time>2013-02-10T11:49:40Z</time>
      </trkpt>
      <trkpt lat="45.58755" lon="6.80171">
        <ele>1970</ele>
        <time>2013-02-10T11:49:47Z</time>
      </trkpt>
      <trkpt lat="45.58739" lon="6.80186">
        <ele>1982</ele>
        <time>2013-02-10T11:49:53Z</time>
      </trkpt>
      <trkpt lat="45.58722" lon="6.80201">
        <ele>1988</ele>
        <time>2013-02-10T11:49:59Z</time>
      </trkpt>
      <trkpt lat="45.58703" lon="6.80219">
        <ele>1993</ele>
        <time>2013-02-10T11:50:06Z</time>
      </trkpt>
      <trkpt lat="45.58695" lon="6.80226">
        <ele>1995</ele>
        <time>2013-02-10T11:50:09Z</time>
      </trkpt>
      <trkpt lat="45.58682" lon="6.80238">
        <ele>2001</ele>
        <time>2013-02-10T11:50:14Z</time>
      </trkpt>
      <trkpt lat="45.58674" lon="6.80245">
        <ele>2007</ele>
        <time>2013-02-10T11:50:17Z</time>
      </trkpt>
      <trkpt lat="45.58666" lon="6.80252">
        <ele>2016</ele>
        <time>2013-02-10T11:50:20Z</time>
      </trkpt>
      <trkpt lat="45.58645" lon="6.80271">
        <ele>2031</ele>
        <time>2013-02-10T11:50:27Z</time>
      </trkpt>
      <trkpt lat="45.58637" lon="6.80279">
        <ele>2035</ele>
        <time>2013-02-10T11:50:30Z</time>
      </trkpt>
      <trkpt lat="45.58629" lon="6.80286">
        <ele>2037</ele>
        <time>2013-02-10T11:50:33Z</time>
      </trkpt>
      <trkpt lat="45.5862" lon="6.80294">
        <ele>2040</ele>
        <time>2013-02-10T11:50:36Z</time>
      </trkpt>
      <trkpt lat="45.58612" lon="6.80301">
        <ele>2042</ele>
        <time>2013-02-10T11:50:39Z</time>
      </trkpt>
      <trkpt lat="45.58595" lon="6.80316">
        <ele>2050</ele>
        <time>2013-02-10T11:50:45Z</time>
      </trkpt>
      <trkpt lat="45.58579" lon="6.8033">
        <ele>2065</ele>
        <time>2013-02-10T11:50:51Z</time>
      </trkpt>
      <trkpt lat="45.58563" lon="6.80345">
        <ele>2075</ele>
        <time>2013-02-10T11:50:57Z</time>
      </trkpt>
      <trkpt lat="45.5854" lon="6.80367">
        <ele>2082</ele>
        <time>2013-02-10T11:51:05Z</time>
      </trkpt>
      <trkpt lat="45.58523" lon="6.80382">
        <ele>2085</ele>
        <time>2013-02-10T11:51:11Z</time>
      </trkpt>
      <trkpt lat="45.58504" lon="6.804">
        <ele>2092</ele>
        <time>2013-02-10T11:51:18Z</time>
      </trkpt>
      <trkpt lat="45.58487" lon="6.80415">
        <ele>2102</ele>
        <time>2013-02-10T11:51:24Z</time>
      </trkpt>
      <trkpt lat="45.5847" lon="6.8043">
        <ele>2116</ele>
        <time>2013-02-10T11:51:30Z</time>
      </trkpt>
      <trkpt lat="45.58462" lon="6.80437">
        <ele>2118</ele>
        <time>2013-02-10T11:51:33Z</time>
      </trkpt>
      <trkpt lat="45.58441" lon="6.80455">
        <ele>2122</ele>
        <time>2013-02-10T11:51:40Z</time>
      </trkpt>
      <trkpt lat="45.58423" lon="6.8047">
        <ele>2125</ele>
        <time>2013-02-10T11:51:46Z</time>
      </trkpt>
      <trkpt lat="45.58406" lon="6.80485">
        <ele>2136</ele>
        <time>2013-02-10T11:51:52Z</time>
      </trkpt>
      <trkpt lat="45.58387" lon="6.80505">
        <ele>2147</ele>
        <time>2013-02-10T11:51:59Z</time>
      </trkpt>
      <trkpt lat="45.58373" lon="6.80517">
        <ele>2150</ele>
        <time>2013-02-10T11:52:04Z</time>
      </trkpt>
      <trkpt lat="45.58358" lon="6.80529">
        <ele>2152</ele>
        <time>2013-02-10T11:52:09Z</time>
      </trkpt>
      <trkpt lat="45.58349" lon="6.80537">
        <ele>2153</ele>
        <time>2013-02-10T11:52:12Z</time>
      </trkpt>
      <trkpt lat="45.58337" lon="6.80547">
        <ele>2155</ele>
        <time>2013-02-10T11:52:16Z</time>
      </trkpt>
      <trkpt lat="45.58328" lon="6.80555">
        <ele>2163</ele>
        <time>2013-02-10T11:52:19Z</time>
      </trkpt>
      <trkpt lat="45.58312" lon="6.8057">
        <ele>2164</ele>
        <time>2013-02-10T11:52:25Z</time>
      </trkpt>
      <trkpt lat="45.58296" lon="6.8058">
        <ele>2165</ele>
        <time>2013-02-10T11:52:32Z</time>
      </trkpt>
      <trkpt lat="45.58287" lon="6.80581">
        <ele>2165</ele>
        <time>2013-02-10T11:52:39Z</time>
      </trkpt>
      <trkpt lat="45.58287" lon="6.80581">
        <ele>2165</ele>
        <time>2013-02-10T11:52:46Z</time>
      </trkpt>
      <trkpt lat="45.58287" lon="6.80581">
        <ele>2165</ele>
        <time>2013-02-10T11:53:22Z</time>
      </trkpt>
      <trkpt lat="45.58311" lon="6.80553">
        <ele>2163</ele>
        <time>2013-02-10T11:53:22Z</time>
      </trkpt>
      <trkpt lat="45.58326" lon="6.80541">
        <ele>2161</ele>
        <time>2013-02-10T11:53:31Z</time>
      </trkpt>
      <trkpt lat="45.5837" lon="6.80515">
        <ele>2150</ele>
        <time>2013-02-10T11:53:40Z</time>
      </trkpt>
      <trkpt lat="45.58389" lon="6.8051">
        <ele>2147</ele>
        <time>2013-02-10T11:53:44Z</time>
      </trkpt>
      <trkpt lat="45.58439" lon="6.80493">
        <ele>2127</ele>
        <time>2013-02-10T11:53:50Z</time>
      </trkpt>
      <trkpt lat="45.58462" lon="6.80481">
        <ele>2123</ele>
        <time>2013-02-10T11:53:53Z</time>
      </trkpt>
      <trkpt lat="45.58488" lon="6.80456">
        <ele>2118</ele>
        <time>2013-02-10T11:53:59Z</time>
      </trkpt>
      <trkpt lat="45.58497" lon="6.8041">
        <ele>2102</ele>
        <time>2013-02-10T11:54:04Z</time>
      </trkpt>
      <trkpt lat="45.58497" lon="6.8041">
        <ele>2102</ele>
        <time>2013-02-10T11:54:10Z</time>
      </trkpt>
      <trkpt lat="45.58497" lon="6.8041">
        <ele>2102</ele>
        <time>2013-02-10T11:54:10Z</time>
      </trkpt>
      <trkpt lat="45.58497" lon="6.8041">
        <ele>2102</ele>
        <time>2013-02-10T11:54:15Z</time>
      </trkpt>
      <trkpt lat="45.58516" lon="6.80389">
        <ele>2087</ele>
        <time>2013-02-10T11:54:15Z</time>
      </trkpt>
      <trkpt lat="45.58542" lon="6.80353">
        <ele>2080</ele>
        <time>2013-02-10T11:54:20Z</time>
      </trkpt>
      <trkpt lat="45.58577" lon="6.80321">
        <ele>2064</ele>
        <time>2013-02-10T11:54:25Z</time>
      </trkpt>
      <trkpt lat="45.58592" lon="6.80329">
        <ele>2056</ele>
        <time>2013-02-10T11:54:32Z</time>
      </trkpt>
      <trkpt lat="45.58592" lon="6.80329">
        <ele>2056</ele>
        <time>2013-02-10T11:54:38Z</time>
      </trkpt>
      <trkpt lat="45.58592" lon="6.80329">
        <ele>2056</ele>
        <time>2013-02-10T11:54:38Z</time>
      </trkpt>
      <trkpt lat="45.58592" lon="6.80329">
        <ele>2056</ele>
        <time>2013-02-10T11:56:33Z</time>
      </trkpt>
      <trkpt lat="45.58622" lon="6.8031">
        <ele>2041</ele>
        <time>2013-02-10T11:56:33Z</time>
      </trkpt>
      <trkpt lat="45.58646" lon="6.80302">
        <ele>2035</ele>
        <time>2013-02-10T11:56:38Z</time>
      </trkpt>
      <trkpt lat="45.58676" lon="6.80291">
        <ele>2013</ele>
        <time>2013-02-10T11:56:44Z</time>
      </trkpt>
      <trkpt lat="45.5869" lon="6.80299">
        <ele>2013</ele>
        <time>2013-02-10T11:56:50Z</time>
      </trkpt>
      <trkpt lat="45.58716" lon="6.80323">
        <ele>2010</ele>
        <time>2013-02-10T11:56:56Z</time>
      </trkpt>
      <trkpt lat="45.58739" lon="6.80332">
        <ele>2008</ele>
        <time>2013-02-10T11:57:03Z</time>
      </trkpt>
      <trkpt lat="45.58755" lon="6.80323">
        <ele>2000</ele>
        <time>2013-02-10T11:57:06Z</time>
      </trkpt>
      <trkpt lat="45.58768" lon="6.80299">
        <ele>1992</ele>
        <time>2013-02-10T11:57:11Z</time>
      </trkpt>
      <trkpt lat="45.58788" lon="6.80282">
        <ele>1988</ele>
        <time>2013-02-10T11:57:14Z</time>
      </trkpt>
      <trkpt lat="45.58829" lon="6.80293">
        <ele>1986</ele>
        <time>2013-02-10T11:57:20Z</time>
      </trkpt>
      <trkpt lat="45.58848" lon="6.80291">
        <ele>1978</ele>
        <time>2013-02-10T11:57:23Z</time>
      </trkpt>
      <trkpt lat="45.58884" lon="6.80278">
        <ele>1974</ele>
        <time>2013-02-10T11:57:28Z</time>
      </trkpt>
      <trkpt lat="45.5891" lon="6.80261">
        <ele>1966</ele>
        <time>2013-02-10T11:57:33Z</time>
      </trkpt>
      <trkpt lat="45.58899" lon="6.80248">
        <ele>1957</ele>
        <time>2013-02-10T11:57:36Z</time>
      </trkpt>
      <trkpt lat="45.58899" lon="6.80248">
        <ele>1957</ele>
        <time>2013-02-10T11:57:41Z</time>
      </trkpt>
      <trkpt lat="45.58899" lon="6.80248">
        <ele>1957</ele>
        <time>2013-02-10T11:58:06Z</time>
      </trkpt>
      <trkpt lat="45.58914" lon="6.80231">
        <ele>1955</ele>
        <time>2013-02-10T11:58:06Z</time>
      </trkpt>
      <trkpt lat="45.58953" lon="6.80188">
        <ele>1940</ele>
        <time>2013-02-10T11:58:11Z</time>
      </trkpt>
      <trkpt lat="45.58974" lon="6.8017">
        <ele>1934</ele>
        <time>2013-02-10T11:58:14Z</time>
      </trkpt>
      <trkpt lat="45.58997" lon="6.80141">
        <ele>1917</ele>
        <time>2013-02-10T11:58:18Z</time>
      </trkpt>
      <trkpt lat="45.59039" lon="6.80095">
        <ele>1900</ele>
        <time>2013-02-10T11:58:24Z</time>
      </trkpt>
      <trkpt lat="45.59049" lon="6.80061">
        <ele>1877</ele>
        <time>2013-02-10T11:58:34Z</time>
      </trkpt>
      <trkpt lat="45.59062" lon="6.80038">
        <ele>1871</ele>
        <time>2013-02-10T11:58:39Z</time>
      </trkpt>
      <trkpt lat="45.59076" lon="6.80022">
        <ele>1863</ele>
        <time>2013-02-10T11:58:42Z</time>
      </trkpt>
      <trkpt lat="45.59099" lon="6.80002">
        <ele>1849</ele>
        <time>2013-02-10T11:58:47Z</time>
      </trkpt>
      <trkpt lat="45.5913" lon="6.79959">
        <ele>1823</ele>
        <time>2013-02-10T11:58:52Z</time>
      </trkpt>
      <trkpt lat="45.59158" lon="6.79926">
        <ele>1809</ele>
        <time>2013-02-10T11:58:57Z</time>
      </trkpt>
      <trkpt lat="45.59188" lon="6.79874">
        <ele>1783</ele>
        <time>2013-02-10T11:59:03Z</time>
      </trkpt>
      <trkpt lat="45.59196" lon="6.79881">
        <ele>1784</ele>
        <time>2013-02-10T11:59:06Z</time>
      </trkpt>
      <trkpt lat="45.59196" lon="6.79881">
        <ele>1784</ele>
        <time>2013-02-10T11:59:11Z</time>
      </trkpt>
      <trkpt lat="45.59196" lon="6.79881">
        <ele>1784</ele>
        <time>2013-02-10T11:59:24Z</time>
      </trkpt>
      <trkpt lat="45.59212" lon="6.79881">
        <ele>1783</ele>
        <time>2013-02-10T11:59:24Z</time>
      </trkpt>
      <trkpt lat="45.59237" lon="6.79851">
        <ele>1774</ele>
        <time>2013-02-10T11:59:28Z</time>
      </trkpt>
      <trkpt lat="45.59282" lon="6.79835">
        <ele>1761</ele>
        <time>2013-02-10T11:59:33Z</time>
      </trkpt>
      <trkpt lat="45.59324" lon="6.79805">
        <ele>1743</ele>
        <time>2013-02-10T11:59:38Z</time>
      </trkpt>
      <trkpt lat="45.59374" lon="6.79759">
        <ele>1724</ele>
        <time>2013-02-10T11:59:44Z</time>
      </trkpt>
      <trkpt lat="45.59427" lon="6.79708">
        <ele>1699</ele>
        <time>2013-02-10T11:59:50Z</time>
      </trkpt>
      <trkpt lat="45.59481" lon="6.79658">
        <ele>1685</ele>
        <time>2013-02-10T11:59:56Z</time>
      </trkpt>
      <trkpt lat="45.59494" lon="6.79629">
        <ele>1682</ele>
        <time>2013-02-10T11:59:59Z</time>
      </trkpt>
      <trkpt lat="45.59505" lon="6.79589">
        <ele>1671</ele>
        <time>2013-02-10T12:00:04Z</time>
      </trkpt>
      <trkpt lat="45.59526" lon="6.79544">
        <ele>1658</ele>
        <time>2013-02-10T12:00:08Z</time>
      </trkpt>
      <trkpt lat="45.59542" lon="6.79517">
        <ele>1654</ele>
        <time>2013-02-10T12:00:11Z</time>
      </trkpt>
      <trkpt lat="45.59574" lon="6.79468">
        <ele>1640</ele>
        <time>2013-02-10T12:00:17Z</time>
      </trkpt>
      <trkpt lat="45.59613" lon="6.79422">
        <ele>1628</ele>
        <time>2013-02-10T12:00:22Z</time>
      </trkpt>
      <trkpt lat="45.59623" lon="6.79387">
        <ele>1620</ele>
        <time>2013-02-10T12:00:29Z</time>
      </trkpt>
      <trkpt lat="45.5961" lon="6.79373">
        <ele>1620</ele>
        <time>2013-02-10T12:00:37Z</time>
      </trkpt>
      <trkpt lat="45.5961" lon="6.7939">
        <ele>1621</ele>
        <time>2013-02-10T12:00:52Z</time>
      </trkpt>
      <trkpt lat="45.59586" lon="6.79421">
        <ele>1630</ele>
        <time>2013-02-10T12:02:00Z</time>
      </trkpt>
      <trkpt lat="45.59556" lon="6.79446">
        <ele>1640</ele>
        <time>2013-02-10T12:02:08Z</time>
      </trkpt>
      <trkpt lat="45.59538" lon="6.79466">
        <ele>1642</ele>
        <time>2013-02-10T12:02:15Z</time>
      </trkpt>
      <trkpt lat="45.59515" lon="6.79488">
        <ele>1647</ele>
        <time>2013-02-10T12:02:23Z</time>
      </trkpt>
      <trkpt lat="45.59501" lon="6.79502">
        <ele>1654</ele>
        <time>2013-02-10T12:02:28Z</time>
      </trkpt>
      <trkpt lat="45.59483" lon="6.79516">
        <ele>1663</ele>
        <time>2013-02-10T12:02:34Z</time>
      </trkpt>
      <trkpt lat="45.59466" lon="6.79533">
        <ele>1668</ele>
        <time>2013-02-10T12:02:40Z</time>
      </trkpt>
      <trkpt lat="45.59445" lon="6.79547">
        <ele>1671</ele>
        <time>2013-02-10T12:02:47Z</time>
      </trkpt>
      <trkpt lat="45.59422" lon="6.79568">
        <ele>1676</ele>
        <time>2013-02-10T12:02:55Z</time>
      </trkpt>
      <trkpt lat="45.59405" lon="6.79585">
        <ele>1690</ele>
        <time>2013-02-10T12:03:01Z</time>
      </trkpt>
      <trkpt lat="45.59383" lon="6.79604">
        <ele>1697</ele>
        <time>2013-02-10T12:03:08Z</time>
      </trkpt>
      <trkpt lat="45.59365" lon="6.79619">
        <ele>1701</ele>
        <time>2013-02-10T12:03:14Z</time>
      </trkpt>
      <trkpt lat="45.5935" lon="6.79631">
        <ele>1704</ele>
        <time>2013-02-10T12:03:19Z</time>
      </trkpt>
      <trkpt lat="45.59331" lon="6.79649">
        <ele>1719</ele>
        <time>2013-02-10T12:03:25Z</time>
      </trkpt>
      <trkpt lat="45.59312" lon="6.79666">
        <ele>1720</ele>
        <time>2013-02-10T12:03:32Z</time>
      </trkpt>
      <trkpt lat="45.59299" lon="6.7968">
        <ele>1730</ele>
        <time>2013-02-10T12:03:37Z</time>
      </trkpt>
      <trkpt lat="45.59279" lon="6.79697">
        <ele>1733</ele>
        <time>2013-02-10T12:03:44Z</time>
      </trkpt>
      <trkpt lat="45.59269" lon="6.79705">
        <ele>1734</ele>
        <time>2013-02-10T12:03:49Z</time>
      </trkpt>
      <trkpt lat="45.59252" lon="6.79716">
        <ele>1736</ele>
        <time>2013-02-10T12:03:55Z</time>
      </trkpt>
      <trkpt lat="45.59235" lon="6.79734">
        <ele>1747</ele>
        <time>2013-02-10T12:04:02Z</time>
      </trkpt>
      <trkpt lat="45.59219" lon="6.7975">
        <ele>1757</ele>
        <time>2013-02-10T12:04:08Z</time>
      </trkpt>
      <trkpt lat="45.59202" lon="6.79766">
        <ele>1760</ele>
        <time>2013-02-10T12:04:13Z</time>
      </trkpt>
      <trkpt lat="45.59181" lon="6.79786">
        <ele>1763</ele>
        <time>2013-02-10T12:04:20Z</time>
      </trkpt>
      <trkpt lat="45.59164" lon="6.79802">
        <ele>1775</ele>
        <time>2013-02-10T12:04:26Z</time>
      </trkpt>
      <trkpt lat="45.59144" lon="6.79821">
        <ele>1778</ele>
        <time>2013-02-10T12:04:33Z</time>
      </trkpt>
      <trkpt lat="45.59126" lon="6.79838">
        <ele>1794</ele>
        <time>2013-02-10T12:04:39Z</time>
      </trkpt>
      <trkpt lat="45.59105" lon="6.79859">
        <ele>1798</ele>
        <time>2013-02-10T12:04:47Z</time>
      </trkpt>
      <trkpt lat="45.59091" lon="6.79875">
        <ele>1802</ele>
        <time>2013-02-10T12:04:54Z</time>
      </trkpt>
      <trkpt lat="45.59079" lon="6.79887">
        <ele>1819</ele>
        <time>2013-02-10T12:05:00Z</time>
      </trkpt>
      <trkpt lat="45.59057" lon="6.79901">
        <ele>1823</ele>
        <time>2013-02-10T12:05:07Z</time>
      </trkpt>
      <trkpt lat="45.59038" lon="6.79915">
        <ele>1828</ele>
        <time>2013-02-10T12:05:12Z</time>
      </trkpt>
      <trkpt lat="45.59021" lon="6.79931">
        <ele>1848</ele>
        <time>2013-02-10T12:05:18Z</time>
      </trkpt>
      <trkpt lat="45.59002" lon="6.79947">
        <ele>1851</ele>
        <time>2013-02-10T12:05:25Z</time>
      </trkpt>
      <trkpt lat="45.58988" lon="6.79962">
        <ele>1870</ele>
        <time>2013-02-10T12:05:31Z</time>
      </trkpt>
      <trkpt lat="45.5897" lon="6.79979">
        <ele>1873</ele>
        <time>2013-02-10T12:05:37Z</time>
      </trkpt>
      <trkpt lat="45.58955" lon="6.79997">
        <ele>1877</ele>
        <time>2013-02-10T12:05:43Z</time>
      </trkpt>
      <trkpt lat="45.58936" lon="6.80013">
        <ele>1895</ele>
        <time>2013-02-10T12:05:50Z</time>
      </trkpt>
      <trkpt lat="45.58919" lon="6.80033">
        <ele>1898</ele>
        <time>2013-02-10T12:05:57Z</time>
      </trkpt>
      <trkpt lat="45.58892" lon="6.80058">
        <ele>1913</ele>
        <time>2013-02-10T12:06:06Z</time>
      </trkpt>
      <trkpt lat="45.58878" lon="6.80074">
        <ele>1916</ele>
        <time>2013-02-10T12:06:12Z</time>
      </trkpt>
      <trkpt lat="45.5885" lon="6.80094">
        <ele>1935</ele>
        <time>2013-02-10T12:06:21Z</time>
      </trkpt>
      <trkpt lat="45.5883" lon="6.80108">
        <ele>1945</ele>
        <time>2013-02-10T12:06:27Z</time>
      </trkpt>
      <trkpt lat="45.58818" lon="6.80121">
        <ele>1949</ele>
        <time>2013-02-10T12:06:32Z</time>
      </trkpt>
      <trkpt lat="45.58804" lon="6.80137">
        <ele>1952</ele>
        <time>2013-02-10T12:06:39Z</time>
      </trkpt>
      <trkpt lat="45.58782" lon="6.80161">
        <ele>1957</ele>
        <time>2013-02-10T12:06:47Z</time>
      </trkpt>
      <trkpt lat="45.58758" lon="6.80184">
        <ele>1971</ele>
        <time>2013-02-10T12:06:56Z</time>
      </trkpt>
      <trkpt lat="45.58738" lon="6.80199">
        <ele>1985</ele>
        <time>2013-02-10T12:07:02Z</time>
      </trkpt>
      <trkpt lat="45.58722" lon="6.80222">
        <ele>1990</ele>
        <time>2013-02-10T12:07:10Z</time>
      </trkpt>
      <trkpt lat="45.58702" lon="6.80234">
        <ele>1995</ele>
        <time>2013-02-10T12:07:17Z</time>
      </trkpt>
      <trkpt lat="45.58686" lon="6.80251">
        <ele>2010</ele>
        <time>2013-02-10T12:07:23Z</time>
      </trkpt>
      <trkpt lat="45.5867" lon="6.80266">
        <ele>2012</ele>
        <time>2013-02-10T12:07:29Z</time>
      </trkpt>
      <trkpt lat="45.58655" lon="6.80281">
        <ele>2031</ele>
        <time>2013-02-10T12:07:34Z</time>
      </trkpt>
      <trkpt lat="45.58639" lon="6.80293">
        <ele>2036</ele>
        <time>2013-02-10T12:07:39Z</time>
      </trkpt>
      <trkpt lat="45.58622" lon="6.80302">
        <ele>2040</ele>
        <time>2013-02-10T12:07:44Z</time>
      </trkpt>
      <trkpt lat="45.58599" lon="6.80318">
        <ele>2049</ele>
        <time>2013-02-10T12:07:51Z</time>
      </trkpt>
      <trkpt lat="45.58576" lon="6.80337">
        <ele>2070</ele>
        <time>2013-02-10T12:07:59Z</time>
      </trkpt>
      <trkpt lat="45.58557" lon="6.80351">
        <ele>2077</ele>
        <time>2013-02-10T12:08:05Z</time>
      </trkpt>
      <trkpt lat="45.58545" lon="6.80367">
        <ele>2081</ele>
        <time>2013-02-10T12:08:11Z</time>
      </trkpt>
      <trkpt lat="45.58527" lon="6.80389">
        <ele>2086</ele>
        <time>2013-02-10T12:08:18Z</time>
      </trkpt>
      <trkpt lat="45.58511" lon="6.804">
        <ele>2091</ele>
        <time>2013-02-10T12:08:23Z</time>
      </trkpt>
      <trkpt lat="45.58491" lon="6.80414">
        <ele>2102</ele>
        <time>2013-02-10T12:08:29Z</time>
      </trkpt>
      <trkpt lat="45.58471" lon="6.80431">
        <ele>2116</ele>
        <time>2013-02-10T12:08:36Z</time>
      </trkpt>
      <trkpt lat="45.58451" lon="6.80448">
        <ele>2120</ele>
        <time>2013-02-10T12:08:43Z</time>
      </trkpt>
      <trkpt lat="45.58433" lon="6.80467">
        <ele>2124</ele>
        <time>2013-02-10T12:08:50Z</time>
      </trkpt>
      <trkpt lat="45.58413" lon="6.80489">
        <ele>2136</ele>
        <time>2013-02-10T12:08:58Z</time>
      </trkpt>
      <trkpt lat="45.58391" lon="6.80511">
        <ele>2147</ele>
        <time>2013-02-10T12:09:06Z</time>
      </trkpt>
      <trkpt lat="45.58371" lon="6.8053">
        <ele>2151</ele>
        <time>2013-02-10T12:09:13Z</time>
      </trkpt>
      <trkpt lat="45.58357" lon="6.80543">
        <ele>2153</ele>
        <time>2013-02-10T12:09:18Z</time>
      </trkpt>
      <trkpt lat="45.58327" lon="6.80564">
        <ele>2164</ele>
        <time>2013-02-10T12:09:27Z</time>
      </trkpt>
      <trkpt lat="45.5831" lon="6.80575">
        <ele>2164</ele>
        <time>2013-02-10T12:09:34Z</time>
      </trkpt>
      <trkpt lat="45.58291" lon="6.8058">
        <ele>2165</ele>
        <time>2013-02-10T12:09:47Z</time>
      </trkpt>
      <trkpt lat="45.58291" lon="6.8058">
        <ele>2165</ele>
        <time>2013-02-10T12:09:55Z</time>
      </trkpt>
      <trkpt lat="45.58291" lon="6.8058">
        <ele>2165</ele>
        <time>2013-02-10T12:09:55Z</time>
      </trkpt>
      <trkpt lat="45.58291" lon="6.8058">
        <ele>2165</ele>
        <time>2013-02-10T12:10:18Z</time>
      </trkpt>
      <trkpt lat="45.5827" lon="6.80564">
        <ele>2166</ele>
        <time>2013-02-10T12:10:18Z</time>
      </trkpt>
      <trkpt lat="45.5824" lon="6.80538">
        <ele>2166</ele>
        <time>2013-02-10T12:10:23Z</time>
      </trkpt>
      <trkpt lat="45.58207" lon="6.805">
        <ele>2154</ele>
        <time>2013-02-10T12:10:28Z</time>
      </trkpt>
      <trkpt lat="45.58189" lon="6.8045">
        <ele>2150</ele>
        <time>2013-02-10T12:10:33Z</time>
      </trkpt>
      <trkpt lat="45.58165" lon="6.8037">
        <ele>2138</ele>
        <time>2013-02-10T12:10:39Z</time>
      </trkpt>
      <trkpt lat="45.58139" lon="6.80325">
        <ele>2130</ele>
        <time>2013-02-10T12:10:43Z</time>
      </trkpt>
      <trkpt lat="45.58098" lon="6.80277">
        <ele>2127</ele>
        <time>2013-02-10T12:10:49Z</time>
      </trkpt>
      <trkpt lat="45.58077" lon="6.80256">
        <ele>2126</ele>
        <time>2013-02-10T12:10:52Z</time>
      </trkpt>
      <trkpt lat="45.5804" lon="6.8023">
        <ele>2119</ele>
        <time>2013-02-10T12:10:57Z</time>
      </trkpt>
      <trkpt lat="45.58012" lon="6.80166">
        <ele>2106</ele>
        <time>2013-02-10T12:11:03Z</time>
      </trkpt>
      <trkpt lat="45.57971" lon="6.80112">
        <ele>2101</ele>
        <time>2013-02-10T12:11:09Z</time>
      </trkpt>
      <trkpt lat="45.57943" lon="6.80103">
        <ele>2102</ele>
        <time>2013-02-10T12:11:12Z</time>
      </trkpt>
      <trkpt lat="45.5791" lon="6.8005">
        <ele>2091</ele>
        <time>2013-02-10T12:11:17Z</time>
      </trkpt>
      <trkpt lat="45.57877" lon="6.79989">
        <ele>2076</ele>
        <time>2013-02-10T12:11:23Z</time>
      </trkpt>
      <trkpt lat="45.57869" lon="6.79928">
        <ele>2071</ele>
        <time>2013-02-10T12:11:28Z</time>
      </trkpt>
      <trkpt lat="45.57851" lon="6.79899">
        <ele>2062</ele>
        <time>2013-02-10T12:11:31Z</time>
      </trkpt>
      <trkpt lat="45.57813" lon="6.79849">
        <ele>2063</ele>
        <time>2013-02-10T12:11:37Z</time>
      </trkpt>
      <trkpt lat="45.57787" lon="6.79808">
        <ele>2054</ele>
        <time>2013-02-10T12:11:42Z</time>
      </trkpt>
      <trkpt lat="45.57767" lon="6.79793">
        <ele>2053</ele>
        <time>2013-02-10T12:11:45Z</time>
      </trkpt>
      <trkpt lat="45.57753" lon="6.79772">
        <ele>2051</ele>
        <time>2013-02-10T12:11:49Z</time>
      </trkpt>
      <trkpt lat="45.57709" lon="6.79735">
        <ele>2039</ele>
        <time>2013-02-10T12:11:55Z</time>
      </trkpt>
      <trkpt lat="45.57661" lon="6.79692">
        <ele>2035</ele>
        <time>2013-02-10T12:12:01Z</time>
      </trkpt>
      <trkpt lat="45.57619" lon="6.79666">
        <ele>2019</ele>
        <time>2013-02-10T12:12:06Z</time>
      </trkpt>
      <trkpt lat="45.57597" lon="6.79655">
        <ele>2022</ele>
        <time>2013-02-10T12:12:09Z</time>
      </trkpt>
      <trkpt lat="45.57563" lon="6.79634">
        <ele>2023</ele>
        <time>2013-02-10T12:12:14Z</time>
      </trkpt>
      <trkpt lat="45.57527" lon="6.79611">
        <ele>2022</ele>
        <time>2013-02-10T12:12:20Z</time>
      </trkpt>
      <trkpt lat="45.57506" lon="6.79589">
        <ele>2020</ele>
        <time>2013-02-10T12:12:25Z</time>
      </trkpt>
      <trkpt lat="45.57481" lon="6.79565">
        <ele>2011</ele>
        <time>2013-02-10T12:12:31Z</time>
      </trkpt>
      <trkpt lat="45.57465" lon="6.79554">
        <ele>2009</ele>
        <time>2013-02-10T12:12:34Z</time>
      </trkpt>
      <trkpt lat="45.57447" lon="6.79545">
        <ele>2008</ele>
        <time>2013-02-10T12:12:37Z</time>
      </trkpt>
      <trkpt lat="45.57401" lon="6.79538">
        <ele>2012</ele>
        <time>2013-02-10T12:12:43Z</time>
      </trkpt>
      <trkpt lat="45.57378" lon="6.79541">
        <ele>2013</ele>
        <time>2013-02-10T12:12:46Z</time>
      </trkpt>
      <trkpt lat="45.57359" lon="6.79532">
        <ele>2012</ele>
        <time>2013-02-10T12:12:49Z</time>
      </trkpt>
      <trkpt lat="45.57337" lon="6.7951">
        <ele>2007</ele>
        <time>2013-02-10T12:12:54Z</time>
      </trkpt>
      <trkpt lat="45.57309" lon="6.79474">
        <ele>1996</ele>
        <time>2013-02-10T12:13:00Z</time>
      </trkpt>
      <trkpt lat="45.5729" lon="6.79476">
        <ele>1998</ele>
        <time>2013-02-10T12:13:04Z</time>
      </trkpt>
      <trkpt lat="45.57271" lon="6.79468">
        <ele>1998</ele>
        <time>2013-02-10T12:13:09Z</time>
      </trkpt>
      <trkpt lat="45.57248" lon="6.79459">
        <ele>2002</ele>
        <time>2013-02-10T12:13:14Z</time>
      </trkpt>
      <trkpt lat="45.57248" lon="6.79459">
        <ele>2002</ele>
        <time>2013-02-10T12:13:22Z</time>
      </trkpt>
      <trkpt lat="45.57248" lon="6.79459">
        <ele>2002</ele>
        <time>2013-02-10T12:13:27Z</time>
      </trkpt>
      <trkpt lat="45.57244" lon="6.79461">
        <ele>2002</ele>
        <time>2013-02-10T12:13:27Z</time>
      </trkpt>
      <trkpt lat="45.57158" lon="6.79383">
        <ele>1983</ele>
        <time>2013-02-10T12:13:43Z</time>
      </trkpt>
      <trkpt lat="45.57135" lon="6.7937">
        <ele>1981</ele>
        <time>2013-02-10T12:13:46Z</time>
      </trkpt>
      <trkpt lat="45.57087" lon="6.79352">
        <ele>1978</ele>
        <time>2013-02-10T12:13:52Z</time>
      </trkpt>
      <trkpt lat="45.57079" lon="6.79327">
        <ele>1972</ele>
        <time>2013-02-10T12:13:57Z</time>
      </trkpt>
      <trkpt lat="45.57083" lon="6.79299">
        <ele>1968</ele>
        <time>2013-02-10T12:14:02Z</time>
      </trkpt>
      <trkpt lat="45.5708" lon="6.79285">
        <ele>1966</ele>
        <time>2013-02-10T12:14:09Z</time>
      </trkpt>
      <trkpt lat="45.5708" lon="6.79285">
        <ele>1966</ele>
        <time>2013-02-10T12:14:14Z</time>
      </trkpt>
      <trkpt lat="45.5708" lon="6.79285">
        <ele>1966</ele>
        <time>2013-02-10T12:14:14Z</time>
      </trkpt>
      <trkpt lat="45.5708" lon="6.79285">
        <ele>1966</ele>
        <time>2013-02-10T12:14:32Z</time>
      </trkpt>
      <trkpt lat="45.57088" lon="6.79268">
        <ele>1953</ele>
        <time>2013-02-10T12:14:32Z</time>
      </trkpt>
      <trkpt lat="45.57113" lon="6.79242">
        <ele>1937</ele>
        <time>2013-02-10T12:14:36Z</time>
      </trkpt>
      <trkpt lat="45.57161" lon="6.7921">
        <ele>1929</ele>
        <time>2013-02-10T12:14:42Z</time>
      </trkpt>
      <trkpt lat="45.57167" lon="6.79187">
        <ele>1918</ele>
        <time>2013-02-10T12:14:45Z</time>
      </trkpt>
      <trkpt lat="45.57166" lon="6.79161">
        <ele>1912</ele>
        <time>2013-02-10T12:14:49Z</time>
      </trkpt>
      <trkpt lat="45.57165" lon="6.7913">
        <ele>1906</ele>
        <time>2013-02-10T12:14:52Z</time>
      </trkpt>
      <trkpt lat="45.57169" lon="6.79063">
        <ele>1887</ele>
        <time>2013-02-10T12:14:57Z</time>
      </trkpt>
      <trkpt lat="45.57164" lon="6.78983">
        <ele>1872</ele>
        <time>2013-02-10T12:15:03Z</time>
      </trkpt>
      <trkpt lat="45.57141" lon="6.78899">
        <ele>1855</ele>
        <time>2013-02-10T12:15:09Z</time>
      </trkpt>
      <trkpt lat="45.57123" lon="6.78862">
        <ele>1852</ele>
        <time>2013-02-10T12:15:12Z</time>
      </trkpt>
      <trkpt lat="45.5708" lon="6.78784">
        <ele>1837</ele>
        <time>2013-02-10T12:15:17Z</time>
      </trkpt>
      <trkpt lat="45.5705" lon="6.78695">
        <ele>1827</ele>
        <time>2013-02-10T12:15:23Z</time>
      </trkpt>
      <trkpt lat="45.57024" lon="6.78627">
        <ele>1821</ele>
        <time>2013-02-10T12:15:28Z</time>
      </trkpt>
      <trkpt lat="45.57007" lon="6.78585">
        <ele>1817</ele>
        <time>2013-02-10T12:15:31Z</time>
      </trkpt>
      <trkpt lat="45.56993" lon="6.78539">
        <ele>1817</ele>
        <time>2013-02-10T12:15:34Z</time>
      </trkpt>
      <trkpt lat="45.56986" lon="6.78477">
        <ele>1812</ele>
        <time>2013-02-10T12:15:39Z</time>
      </trkpt>
      <trkpt lat="45.56982" lon="6.7841">
        <ele>1805</ele>
        <time>2013-02-10T12:15:45Z</time>
      </trkpt>
      <trkpt lat="45.56975" lon="6.78353">
        <ele>1802</ele>
        <time>2013-02-10T12:15:50Z</time>
      </trkpt>
      <trkpt lat="45.56966" lon="6.78299">
        <ele>1796</ele>
        <time>2013-02-10T12:15:55Z</time>
      </trkpt>
      <trkpt lat="45.56958" lon="6.7825">
        <ele>1789</ele>
        <time>2013-02-10T12:16:01Z</time>
      </trkpt>
      <trkpt lat="45.56972" lon="6.78212">
        <ele>1786</ele>
        <time>2013-02-10T12:16:06Z</time>
      </trkpt>
      <trkpt lat="45.56995" lon="6.78174">
        <ele>1781</ele>
        <time>2013-02-10T12:16:12Z</time>
      </trkpt>
      <trkpt lat="45.57007" lon="6.78129">
        <ele>1766</ele>
        <time>2013-02-10T12:16:17Z</time>
      </trkpt>
      <trkpt lat="45.57029" lon="6.78086">
        <ele>1761</ele>
        <time>2013-02-10T12:16:23Z</time>
      </trkpt>
      <trkpt lat="45.57054" lon="6.78055">
        <ele>1749</ele>
        <time>2013-02-10T12:16:28Z</time>
      </trkpt>
      <trkpt lat="45.57088" lon="6.78023">
        <ele>1738</ele>
        <time>2013-02-10T12:16:35Z</time>
      </trkpt>
      <trkpt lat="45.57117" lon="6.78">
        <ele>1729</ele>
        <time>2013-02-10T12:16:40Z</time>
      </trkpt>
      <trkpt lat="45.57145" lon="6.7797">
        <ele>1724</ele>
        <time>2013-02-10T12:16:45Z</time>
      </trkpt>
      <trkpt lat="45.57171" lon="6.77924">
        <ele>1712</ele>
        <time>2013-02-10T12:16:51Z</time>
      </trkpt>
      <trkpt lat="45.57174" lon="6.77884">
        <ele>1707</ele>
        <time>2013-02-10T12:16:57Z</time>
      </trkpt>
      <trkpt lat="45.57159" lon="6.77871">
        <ele>1712</ele>
        <time>2013-02-10T12:17:03Z</time>
      </trkpt>
      <trkpt lat="45.57154" lon="6.7787">
        <ele>1712</ele>
        <time>2013-02-10T12:17:06Z</time>
      </trkpt>
      <trkpt lat="45.57154" lon="6.7787">
        <ele>1712</ele>
        <time>2013-02-10T12:17:12Z</time>
      </trkpt>
      <trkpt lat="45.57154" lon="6.7787">
        <ele>1712</ele>
        <time>2013-02-10T12:21:53Z</time>
      </trkpt>
      <trkpt lat="45.57142" lon="6.779">
        <ele>1714</ele>
        <time>2013-02-10T12:21:53Z</time>
      </trkpt>
      <trkpt lat="45.57131" lon="6.77941">
        <ele>1724</ele>
        <time>2013-02-10T12:21:59Z</time>
      </trkpt>
      <trkpt lat="45.57103" lon="6.77966">
        <ele>1728</ele>
        <time>2013-02-10T12:22:04Z</time>
      </trkpt>
      <trkpt lat="45.57093" lon="6.77985">
        <ele>1732</ele>
        <time>2013-02-10T12:22:08Z</time>
      </trkpt>
      <trkpt lat="45.57082" lon="6.78012">
        <ele>1742</ele>
        <time>2013-02-10T12:22:14Z</time>
      </trkpt>
      <trkpt lat="45.57072" lon="6.7804">
        <ele>1747</ele>
        <time>2013-02-10T12:22:19Z</time>
      </trkpt>
      <trkpt lat="45.57061" lon="6.78069">
        <ele>1749</ele>
        <time>2013-02-10T12:22:24Z</time>
      </trkpt>
      <trkpt lat="45.57048" lon="6.78095">
        <ele>1759</ele>
        <time>2013-02-10T12:22:29Z</time>
      </trkpt>
      <trkpt lat="45.57034" lon="6.78119">
        <ele>1762</ele>
        <time>2013-02-10T12:22:34Z</time>
      </trkpt>
      <trkpt lat="45.57027" lon="6.78134">
        <ele>1765</ele>
        <time>2013-02-10T12:22:37Z</time>
      </trkpt>
      <trkpt lat="45.57016" lon="6.78187">
        <ele>1777</ele>
        <time>2013-02-10T12:22:45Z</time>
      </trkpt>
      <trkpt lat="45.57" lon="6.78212">
        <ele>1778</ele>
        <time>2013-02-10T12:22:51Z</time>
      </trkpt>
      <trkpt lat="45.56979" lon="6.78242">
        <ele>1787</ele>
        <time>2013-02-10T12:22:57Z</time>
      </trkpt>
      <trkpt lat="45.56959" lon="6.7827">
        <ele>1795</ele>
        <time>2013-02-10T12:23:03Z</time>
      </trkpt>
      <trkpt lat="45.56946" lon="6.78298">
        <ele>1797</ele>
        <time>2013-02-10T12:23:08Z</time>
      </trkpt>
      <trkpt lat="45.56927" lon="6.78326">
        <ele>1803</ele>
        <time>2013-02-10T12:23:15Z</time>
      </trkpt>
      <trkpt lat="45.56915" lon="6.78354">
        <ele>1814</ele>
        <time>2013-02-10T12:23:20Z</time>
      </trkpt>
      <trkpt lat="45.56901" lon="6.78377">
        <ele>1818</ele>
        <time>2013-02-10T12:23:25Z</time>
      </trkpt>
      <trkpt lat="45.56883" lon="6.78412">
        <ele>1821</ele>
        <time>2013-02-10T12:23:32Z</time>
      </trkpt>
      <trkpt lat="45.56868" lon="6.78435">
        <ele>1828</ele>
        <time>2013-02-10T12:23:37Z</time>
      </trkpt>
      <trkpt lat="45.56853" lon="6.78456">
        <ele>1830</ele>
        <time>2013-02-10T12:23:42Z</time>
      </trkpt>
      <trkpt lat="45.5684" lon="6.78483">
        <ele>1833</ele>
        <time>2013-02-10T12:23:47Z</time>
      </trkpt>
      <trkpt lat="45.56825" lon="6.78504">
        <ele>1842</ele>
        <time>2013-02-10T12:23:52Z</time>
      </trkpt>
      <trkpt lat="45.56809" lon="6.78535">
        <ele>1846</ele>
        <time>2013-02-10T12:23:58Z</time>
      </trkpt>
      <trkpt lat="45.56801" lon="6.78549">
        <ele>1847</ele>
        <time>2013-02-10T12:24:01Z</time>
      </trkpt>
      <trkpt lat="45.56787" lon="6.78573">
        <ele>1849</ele>
        <time>2013-02-10T12:24:06Z</time>
      </trkpt>
      <trkpt lat="45.56776" lon="6.78592">
        <ele>1855</ele>
        <time>2013-02-10T12:24:10Z</time>
      </trkpt>
      <trkpt lat="45.56761" lon="6.78623">
        <ele>1857</ele>
        <time>2013-02-10T12:24:16Z</time>
      </trkpt>
      <trkpt lat="45.56747" lon="6.78657">
        <ele>1867</ele>
        <time>2013-02-10T12:24:22Z</time>
      </trkpt>
      <trkpt lat="45.56728" lon="6.78682">
        <ele>1875</ele>
        <time>2013-02-10T12:24:28Z</time>
      </trkpt>
      <trkpt lat="45.56713" lon="6.78709">
        <ele>1879</ele>
        <time>2013-02-10T12:24:34Z</time>
      </trkpt>
      <trkpt lat="45.56694" lon="6.78743">
        <ele>1884</ele>
        <time>2013-02-10T12:24:41Z</time>
      </trkpt>
      <trkpt lat="45.5668" lon="6.78768">
        <ele>1891</ele>
        <time>2013-02-10T12:24:46Z</time>
      </trkpt>
      <trkpt lat="45.56667" lon="6.78794">
        <ele>1892</ele>
        <time>2013-02-10T12:24:51Z</time>
      </trkpt>
      <trkpt lat="45.56654" lon="6.78816">
        <ele>1901</ele>
        <time>2013-02-10T12:24:56Z</time>
      </trkpt>
      <trkpt lat="45.56637" lon="6.78849">
        <ele>1911</ele>
        <time>2013-02-10T12:25:03Z</time>
      </trkpt>
      <trkpt lat="45.56621" lon="6.78878">
        <ele>1915</ele>
        <time>2013-02-10T12:25:09Z</time>
      </trkpt>
      <trkpt lat="45.56606" lon="6.78907">
        <ele>1921</ele>
        <time>2013-02-10T12:25:15Z</time>
      </trkpt>
      <trkpt lat="45.56589" lon="6.7893">
        <ele>1932</ele>
        <time>2013-02-10T12:25:21Z</time>
      </trkpt>
      <trkpt lat="45.56579" lon="6.78951">
        <ele>1948</ele>
        <time>2013-02-10T12:25:26Z</time>
      </trkpt>
      <trkpt lat="45.5656" lon="6.78987">
        <ele>1954</ele>
        <time>2013-02-10T12:25:33Z</time>
      </trkpt>
      <trkpt lat="45.56542" lon="6.79018">
        <ele>1973</ele>
        <time>2013-02-10T12:25:40Z</time>
      </trkpt>
      <trkpt lat="45.56527" lon="6.79044">
        <ele>1979</ele>
        <time>2013-02-10T12:25:46Z</time>
      </trkpt>
      <trkpt lat="45.56513" lon="6.79067">
        <ele>1986</ele>
        <time>2013-02-10T12:25:51Z</time>
      </trkpt>
      <trkpt lat="45.56506" lon="6.79082">
        <ele>1994</ele>
        <time>2013-02-10T12:25:54Z</time>
      </trkpt>
      <trkpt lat="45.56491" lon="6.79109">
        <ele>2009</ele>
        <time>2013-02-10T12:26:00Z</time>
      </trkpt>
      <trkpt lat="45.56477" lon="6.79134">
        <ele>2015</ele>
        <time>2013-02-10T12:26:05Z</time>
      </trkpt>
      <trkpt lat="45.56459" lon="6.79166">
        <ele>2018</ele>
        <time>2013-02-10T12:26:12Z</time>
      </trkpt>
      <trkpt lat="45.56444" lon="6.7919">
        <ele>2032</ele>
        <time>2013-02-10T12:26:17Z</time>
      </trkpt>
      <trkpt lat="45.56427" lon="6.79221">
        <ele>2037</ele>
        <time>2013-02-10T12:26:23Z</time>
      </trkpt>
      <trkpt lat="45.56415" lon="6.79241">
        <ele>2048</ele>
        <time>2013-02-10T12:26:28Z</time>
      </trkpt>
      <trkpt lat="45.56405" lon="6.79265">
        <ele>2058</ele>
        <time>2013-02-10T12:26:33Z</time>
      </trkpt>
      <trkpt lat="45.56392" lon="6.7929">
        <ele>2063</ele>
        <time>2013-02-10T12:26:38Z</time>
      </trkpt>
      <trkpt lat="45.56381" lon="6.79308">
        <ele>2066</ele>
        <time>2013-02-10T12:26:42Z</time>
      </trkpt>
      <trkpt lat="45.56367" lon="6.7933">
        <ele>2069</ele>
        <time>2013-02-10T12:26:47Z</time>
      </trkpt>
      <trkpt lat="45.56351" lon="6.79358">
        <ele>2083</ele>
        <time>2013-02-10T12:26:53Z</time>
      </trkpt>
      <trkpt lat="45.56335" lon="6.79391">
        <ele>2088</ele>
        <time>2013-02-10T12:27:00Z</time>
      </trkpt>
      <trkpt lat="45.56318" lon="6.7942">
        <ele>2099</ele>
        <time>2013-02-10T12:27:06Z</time>
      </trkpt>
      <trkpt lat="45.56304" lon="6.79443">
        <ele>2102</ele>
        <time>2013-02-10T12:27:12Z</time>
      </trkpt>
      <trkpt lat="45.56304" lon="6.79443">
        <ele>2102</ele>
        <time>2013-02-10T12:27:20Z</time>
      </trkpt>
      <trkpt lat="45.56304" lon="6.79443">
        <ele>2102</ele>
        <time>2013-02-10T12:27:20Z</time>
      </trkpt>
      <trkpt lat="45.56304" lon="6.79443">
        <ele>2102</ele>
        <time>2013-02-10T12:28:38Z</time>
      </trkpt>
      <trkpt lat="45.56269" lon="6.79481">
        <ele>2106</ele>
        <time>2013-02-10T12:28:38Z</time>
      </trkpt>
      <trkpt lat="45.56246" lon="6.79508">
        <ele>2115</ele>
        <time>2013-02-10T12:28:44Z</time>
      </trkpt>
      <trkpt lat="45.56224" lon="6.7954">
        <ele>2122</ele>
        <time>2013-02-10T12:28:50Z</time>
      </trkpt>
      <trkpt lat="45.56203" lon="6.79567">
        <ele>2126</ele>
        <time>2013-02-10T12:28:56Z</time>
      </trkpt>
      <trkpt lat="45.56184" lon="6.79593">
        <ele>2137</ele>
        <time>2013-02-10T12:29:02Z</time>
      </trkpt>
      <trkpt lat="45.56163" lon="6.79617">
        <ele>2148</ele>
        <time>2013-02-10T12:29:08Z</time>
      </trkpt>
      <trkpt lat="45.56149" lon="6.79638">
        <ele>2151</ele>
        <time>2013-02-10T12:29:13Z</time>
      </trkpt>
      <trkpt lat="45.56132" lon="6.79662">
        <ele>2153</ele>
        <time>2013-02-10T12:29:19Z</time>
      </trkpt>
      <trkpt lat="45.56113" lon="6.79684">
        <ele>2161</ele>
        <time>2013-02-10T12:29:25Z</time>
      </trkpt>
      <trkpt lat="45.56097" lon="6.79702">
        <ele>2162</ele>
        <time>2013-02-10T12:29:30Z</time>
      </trkpt>
      <trkpt lat="45.56079" lon="6.7973">
        <ele>2171</ele>
        <time>2013-02-10T12:29:36Z</time>
      </trkpt>
      <trkpt lat="45.56057" lon="6.79757">
        <ele>2180</ele>
        <time>2013-02-10T12:29:43Z</time>
      </trkpt>
      <trkpt lat="45.56042" lon="6.79777">
        <ele>2185</ele>
        <time>2013-02-10T12:29:48Z</time>
      </trkpt>
      <trkpt lat="45.56027" lon="6.79804">
        <ele>2191</ele>
        <time>2013-02-10T12:29:53Z</time>
      </trkpt>
      <trkpt lat="45.56009" lon="6.79832">
        <ele>2205</ele>
        <time>2013-02-10T12:29:59Z</time>
      </trkpt>
      <trkpt lat="45.55996" lon="6.79859">
        <ele>2233</ele>
        <time>2013-02-10T12:30:04Z</time>
      </trkpt>
      <trkpt lat="45.55985" lon="6.79877">
        <ele>2241</ele>
        <time>2013-02-10T12:30:09Z</time>
      </trkpt>
      <trkpt lat="45.55972" lon="6.79899">
        <ele>2246</ele>
        <time>2013-02-10T12:30:14Z</time>
      </trkpt>
      <trkpt lat="45.55962" lon="6.79915">
        <ele>2249</ele>
        <time>2013-02-10T12:30:17Z</time>
      </trkpt>
      <trkpt lat="45.55941" lon="6.79928">
        <ele>2267</ele>
        <time>2013-02-10T12:30:23Z</time>
      </trkpt>
      <trkpt lat="45.55919" lon="6.79941">
        <ele>2269</ele>
        <time>2013-02-10T12:30:30Z</time>
      </trkpt>
      <trkpt lat="45.55896" lon="6.79954">
        <ele>2277</ele>
        <time>2013-02-10T12:30:36Z</time>
      </trkpt>
      <trkpt lat="45.55871" lon="6.79969">
        <ele>2280</ele>
        <time>2013-02-10T12:30:43Z</time>
      </trkpt>
      <trkpt lat="45.55857" lon="6.79982">
        <ele>2281</ele>
        <time>2013-02-10T12:30:48Z</time>
      </trkpt>
      <trkpt lat="45.55834" lon="6.80038">
        <ele>2291</ele>
        <time>2013-02-10T12:30:55Z</time>
      </trkpt>
      <trkpt lat="45.5582" lon="6.80052">
        <ele>2300</ele>
        <time>2013-02-10T12:31:01Z</time>
      </trkpt>
      <trkpt lat="45.5582" lon="6.80052">
        <ele>2300</ele>
        <time>2013-02-10T12:31:06Z</time>
      </trkpt>
      <trkpt lat="45.5582" lon="6.80052">
        <ele>2300</ele>
        <time>2013-02-10T12:31:06Z</time>
      </trkpt>
      <trkpt lat="45.5582" lon="6.80052">
        <ele>2300</ele>
        <time>2013-02-10T12:31:57Z</time>
      </trkpt>
      <trkpt lat="45.55805" lon="6.80086">
        <ele>2309</ele>
        <time>2013-02-10T12:31:57Z</time>
      </trkpt>
      <trkpt lat="45.55791" lon="6.80119">
        <ele>2313</ele>
        <time>2013-02-10T12:32:12Z</time>
      </trkpt>
      <trkpt lat="45.55769" lon="6.80143">
        <ele>2318</ele>
        <time>2013-02-10T12:32:20Z</time>
      </trkpt>
      <trkpt lat="45.55749" lon="6.80166">
        <ele>2328</ele>
        <time>2013-02-10T12:32:26Z</time>
      </trkpt>
      <trkpt lat="45.55734" lon="6.80183">
        <ele>2351</ele>
        <time>2013-02-10T12:32:31Z</time>
      </trkpt>
      <trkpt lat="45.55718" lon="6.80214">
        <ele>2365</ele>
        <time>2013-02-10T12:32:38Z</time>
      </trkpt>
      <trkpt lat="45.55701" lon="6.80247">
        <ele>2374</ele>
        <time>2013-02-10T12:32:45Z</time>
      </trkpt>
      <trkpt lat="45.55684" lon="6.80268">
        <ele>2402</ele>
        <time>2013-02-10T12:32:51Z</time>
      </trkpt>
      <trkpt lat="45.55663" lon="6.80295">
        <ele>2433</ele>
        <time>2013-02-10T12:32:57Z</time>
      </trkpt>
      <trkpt lat="45.5564" lon="6.80314">
        <ele>2440</ele>
        <time>2013-02-10T12:33:03Z</time>
      </trkpt>
      <trkpt lat="45.55614" lon="6.80348">
        <ele>2459</ele>
        <time>2013-02-10T12:33:13Z</time>
      </trkpt>
      <trkpt lat="45.55598" lon="6.80375">
        <ele>2460</ele>
        <time>2013-02-10T12:33:20Z</time>
      </trkpt>
      <trkpt lat="45.55574" lon="6.80393">
        <ele>2477</ele>
        <time>2013-02-10T12:33:26Z</time>
      </trkpt>
      <trkpt lat="45.55549" lon="6.80414">
        <ele>2480</ele>
        <time>2013-02-10T12:33:32Z</time>
      </trkpt>
      <trkpt lat="45.55527" lon="6.80442">
        <ele>2472</ele>
        <time>2013-02-10T12:33:39Z</time>
      </trkpt>
      <trkpt lat="45.55509" lon="6.80462">
        <ele>2469</ele>
        <time>2013-02-10T12:33:44Z</time>
      </trkpt>
      <trkpt lat="45.55494" lon="6.80483">
        <ele>2478</ele>
        <time>2013-02-10T12:33:49Z</time>
      </trkpt>
      <trkpt lat="45.55475" lon="6.80507">
        <ele>2465</ele>
        <time>2013-02-10T12:33:55Z</time>
      </trkpt>
      <trkpt lat="45.55458" lon="6.80534">
        <ele>2463</ele>
        <time>2013-02-10T12:34:02Z</time>
      </trkpt>
      <trkpt lat="45.55447" lon="6.80546">
        <ele>2462</ele>
        <time>2013-02-10T12:34:06Z</time>
      </trkpt>
      <trkpt lat="45.5543" lon="6.80557">
        <ele>2461</ele>
        <time>2013-02-10T12:34:11Z</time>
      </trkpt>
      <trkpt lat="45.55409" lon="6.80576">
        <ele>2466</ele>
        <time>2013-02-10T12:34:17Z</time>
      </trkpt>
      <trkpt lat="45.55393" lon="6.80606">
        <ele>2462</ele>
        <time>2013-02-10T12:34:23Z</time>
      </trkpt>
      <trkpt lat="45.55375" lon="6.80641">
        <ele>2464</ele>
        <time>2013-02-10T12:34:30Z</time>
      </trkpt>
      <trkpt lat="45.55348" lon="6.80684">
        <ele>2469</ele>
        <time>2013-02-10T12:34:37Z</time>
      </trkpt>
      <trkpt lat="45.55333" lon="6.80714">
        <ele>2481</ele>
        <time>2013-02-10T12:34:42Z</time>
      </trkpt>
      <trkpt lat="45.5532" lon="6.8073">
        <ele>2482</ele>
        <time>2013-02-10T12:34:46Z</time>
      </trkpt>
      <trkpt lat="45.55297" lon="6.80755">
        <ele>2483</ele>
        <time>2013-02-10T12:34:53Z</time>
      </trkpt>
      <trkpt lat="45.5527" lon="6.80781">
        <ele>2484</ele>
        <time>2013-02-10T12:35:00Z</time>
      </trkpt>
      <trkpt lat="45.55245" lon="6.80801">
        <ele>2490</ele>
        <time>2013-02-10T12:35:06Z</time>
      </trkpt>
      <trkpt lat="45.55233" lon="6.80821">
        <ele>2489</ele>
        <time>2013-02-10T12:35:10Z</time>
      </trkpt>
      <trkpt lat="45.55211" lon="6.80853">
        <ele>2492</ele>
        <time>2013-02-10T12:35:16Z</time>
      </trkpt>
      <trkpt lat="45.55201" lon="6.80893">
        <ele>2494</ele>
        <time>2013-02-10T12:35:21Z</time>
      </trkpt>
      <trkpt lat="45.55189" lon="6.80909">
        <ele>2497</ele>
        <time>2013-02-10T12:35:24Z</time>
      </trkpt>
      <trkpt lat="45.55156" lon="6.80938">
        <ele>2516</ele>
        <time>2013-02-10T12:35:31Z</time>
      </trkpt>
      <trkpt lat="45.55133" lon="6.80953">
        <ele>2522</ele>
        <time>2013-02-10T12:35:36Z</time>
      </trkpt>
      <trkpt lat="45.55119" lon="6.80966">
        <ele>2526</ele>
        <time>2013-02-10T12:35:39Z</time>
      </trkpt>
      <trkpt lat="45.55104" lon="6.80978">
        <ele>2529</ele>
        <time>2013-02-10T12:35:43Z</time>
      </trkpt>
      <trkpt lat="45.55086" lon="6.81">
        <ele>2541</ele>
        <time>2013-02-10T12:35:49Z</time>
      </trkpt>
      <trkpt lat="45.55079" lon="6.81002">
        <ele>2542</ele>
        <time>2013-02-10T12:35:52Z</time>
      </trkpt>
      <trkpt lat="45.55079" lon="6.81002">
        <ele>2542</ele>
        <time>2013-02-10T12:35:57Z</time>
      </trkpt>
      <trkpt lat="45.55079" lon="6.81002">
        <ele>2542</ele>
        <time>2013-02-10T12:37:30Z</time>
      </trkpt>
      <trkpt lat="45.55075" lon="6.80978">
        <ele>2542</ele>
        <time>2013-02-10T12:37:30Z</time>
      </trkpt>
      <trkpt lat="45.55074" lon="6.80958">
        <ele>2542</ele>
        <time>2013-02-10T12:37:33Z</time>
      </trkpt>
      <trkpt lat="45.55089" lon="6.80899">
        <ele>2525</ele>
        <time>2013-02-10T12:37:39Z</time>
      </trkpt>
      <trkpt lat="45.55104" lon="6.80853">
        <ele>2522</ele>
        <time>2013-02-10T12:37:44Z</time>
      </trkpt>
      <trkpt lat="45.55115" lon="6.80807">
        <ele>2519</ele>
        <time>2013-02-10T12:37:49Z</time>
      </trkpt>
      <trkpt lat="45.55133" lon="6.80743">
        <ele>2517</ele>
        <time>2013-02-10T12:37:55Z</time>
      </trkpt>
      <trkpt lat="45.55162" lon="6.80701">
        <ele>2515</ele>
        <time>2013-02-10T12:38:00Z</time>
      </trkpt>
      <trkpt lat="45.55199" lon="6.80653">
        <ele>2504</ele>
        <time>2013-02-10T12:38:06Z</time>
      </trkpt>
      <trkpt lat="45.55245" lon="6.80604">
        <ele>2502</ele>
        <time>2013-02-10T12:38:12Z</time>
      </trkpt>
      <trkpt lat="45.55282" lon="6.80577">
        <ele>2502</ele>
        <time>2013-02-10T12:38:17Z</time>
      </trkpt>
      <trkpt lat="45.55304" lon="6.80564">
        <ele>2500</ele>
        <time>2013-02-10T12:38:20Z</time>
      </trkpt>
      <trkpt lat="45.55345" lon="6.80539">
        <ele>2489</ele>
        <time>2013-02-10T12:38:26Z</time>
      </trkpt>
      <trkpt lat="45.55366" lon="6.80533">
        <ele>2488</ele>
        <time>2013-02-10T12:38:29Z</time>
      </trkpt>
      <trkpt lat="45.55415" lon="6.80519">
        <ele>2486</ele>
        <time>2013-02-10T12:38:35Z</time>
      </trkpt>
      <trkpt lat="45.5546" lon="6.80512">
        <ele>2466</ele>
        <time>2013-02-10T12:38:40Z</time>
      </trkpt>
      <trkpt lat="45.55509" lon="6.80508">
        <ele>2455</ele>
        <time>2013-02-10T12:38:45Z</time>
      </trkpt>
      <trkpt lat="45.55563" lon="6.80494">
        <ele>2454</ele>
        <time>2013-02-10T12:38:50Z</time>
      </trkpt>
      <trkpt lat="45.55623" lon="6.80474">
        <ele>2440</ele>
        <time>2013-02-10T12:38:56Z</time>
      </trkpt>
      <trkpt lat="45.55678" lon="6.80466">
        <ele>2428</ele>
        <time>2013-02-10T12:39:01Z</time>
      </trkpt>
      <trkpt lat="45.55703" lon="6.80458">
        <ele>2428</ele>
        <time>2013-02-10T12:39:04Z</time>
      </trkpt>
      <trkpt lat="45.55722" lon="6.80451">
        <ele>2428</ele>
        <time>2013-02-10T12:39:07Z</time>
      </trkpt>
      <trkpt lat="45.55735" lon="6.80428">
        <ele>2428</ele>
        <time>2013-02-10T12:39:12Z</time>
      </trkpt>
      <trkpt lat="45.55741" lon="6.80387">
        <ele>2426</ele>
        <time>2013-02-10T12:39:18Z</time>
      </trkpt>
      <trkpt lat="45.5574" lon="6.80342">
        <ele>2418</ele>
        <time>2013-02-10T12:39:23Z</time>
      </trkpt>
      <trkpt lat="45.5572" lon="6.80308">
        <ele>2406</ele>
        <time>2013-02-10T12:39:28Z</time>
      </trkpt>
      <trkpt lat="45.5569" lon="6.80281">
        <ele>2404</ele>
        <time>2013-02-10T12:39:33Z</time>
      </trkpt>
      <trkpt lat="45.55665" lon="6.80226">
        <ele>2400</ele>
        <time>2013-02-10T12:39:38Z</time>
      </trkpt>
      <trkpt lat="45.55675" lon="6.80132">
        <ele>2343</ele>
        <time>2013-02-10T12:39:46Z</time>
      </trkpt>
      <trkpt lat="45.55647" lon="6.80067">
        <ele>2345</ele>
        <time>2013-02-10T12:39:51Z</time>
      </trkpt>
      <trkpt lat="45.55632" lon="6.7999">
        <ele>2328</ele>
        <time>2013-02-10T12:39:57Z</time>
      </trkpt>
      <trkpt lat="45.55612" lon="6.79917">
        <ele>2324</ele>
        <time>2013-02-10T12:40:03Z</time>
      </trkpt>
      <trkpt lat="45.55592" lon="6.79887">
        <ele>2318</ele>
        <time>2013-02-10T12:40:09Z</time>
      </trkpt>
      <trkpt lat="45.55563" lon="6.79865">
        <ele>2314</ele>
        <time>2013-02-10T12:40:15Z</time>
      </trkpt>
      <trkpt lat="45.55528" lon="6.79846">
        <ele>2310</ele>
        <time>2013-02-10T12:40:20Z</time>
      </trkpt>
      <trkpt lat="45.55496" lon="6.79806">
        <ele>2294</ele>
        <time>2013-02-10T12:40:25Z</time>
      </trkpt>
      <trkpt lat="45.55478" lon="6.79731">
        <ele>2277</ele>
        <time>2013-02-10T12:40:31Z</time>
      </trkpt>
      <trkpt lat="45.55458" lon="6.79696">
        <ele>2273</ele>
        <time>2013-02-10T12:40:34Z</time>
      </trkpt>
      <trkpt lat="45.55423" lon="6.79662">
        <ele>2265</ele>
        <time>2013-02-10T12:40:38Z</time>
      </trkpt>
      <trkpt lat="45.55395" lon="6.79635">
        <ele>2262</ele>
        <time>2013-02-10T12:40:41Z</time>
      </trkpt>
      <trkpt lat="45.5536" lon="6.79576">
        <ele>2251</ele>
        <time>2013-02-10T12:40:46Z</time>
      </trkpt>
      <trkpt lat="45.55334" lon="6.7952">
        <ele>2247</ele>
        <time>2013-02-10T12:40:51Z</time>
      </trkpt>
      <trkpt lat="45.55296" lon="6.79466">
        <ele>2241</ele>
        <time>2013-02-10T12:40:57Z</time>
      </trkpt>
      <trkpt lat="45.55279" lon="6.79382">
        <ele>2228</ele>
        <time>2013-02-10T12:41:03Z</time>
      </trkpt>
      <trkpt lat="45.55269" lon="6.79308">
        <ele>2215</ele>
        <time>2013-02-10T12:41:08Z</time>
      </trkpt>
      <trkpt lat="45.55254" lon="6.79255">
        <ele>2208</ele>
        <time>2013-02-10T12:41:12Z</time>
      </trkpt>
      <trkpt lat="45.55245" lon="6.79191">
        <ele>2201</ele>
        <time>2013-02-10T12:41:17Z</time>
      </trkpt>
      <trkpt lat="45.5524" lon="6.79151">
        <ele>2194</ele>
        <time>2013-02-10T12:41:20Z</time>
      </trkpt>
      <trkpt lat="45.55236" lon="6.79071">
        <ele>2181</ele>
        <time>2013-02-10T12:41:26Z</time>
      </trkpt>
      <trkpt lat="45.55201" lon="6.79013">
        <ele>2176</ele>
        <time>2013-02-10T12:41:32Z</time>
      </trkpt>
      <trkpt lat="45.55178" lon="6.78991">
        <ele>2167</ele>
        <time>2013-02-10T12:41:35Z</time>
      </trkpt>
      <trkpt lat="45.55146" lon="6.78982">
        <ele>2168</ele>
        <time>2013-02-10T12:41:38Z</time>
      </trkpt>
      <trkpt lat="45.55106" lon="6.78956">
        <ele>2166</ele>
        <time>2013-02-10T12:41:44Z</time>
      </trkpt>
      <trkpt lat="45.55133" lon="6.78911">
        <ele>2150</ele>
        <time>2013-02-10T12:41:50Z</time>
      </trkpt>
      <trkpt lat="45.55172" lon="6.78846">
        <ele>2137</ele>
        <time>2013-02-10T12:41:56Z</time>
      </trkpt>
      <trkpt lat="45.552" lon="6.78768">
        <ele>2124</ele>
        <time>2013-02-10T12:42:02Z</time>
      </trkpt>
      <trkpt lat="45.55201" lon="6.78689">
        <ele>2110</ele>
        <time>2013-02-10T12:42:08Z</time>
      </trkpt>
      <trkpt lat="45.55199" lon="6.78612">
        <ele>2099</ele>
        <time>2013-02-10T12:42:14Z</time>
      </trkpt>
      <trkpt lat="45.552" lon="6.7857">
        <ele>2092</ele>
        <time>2013-02-10T12:42:17Z</time>
      </trkpt>
      <trkpt lat="45.55199" lon="6.78475">
        <ele>2080</ele>
        <time>2013-02-10T12:42:24Z</time>
      </trkpt>
      <trkpt lat="45.55196" lon="6.78415">
        <ele>2066</ele>
        <time>2013-02-10T12:42:29Z</time>
      </trkpt>
      <trkpt lat="45.5519" lon="6.78343">
        <ele>2059</ele>
        <time>2013-02-10T12:42:35Z</time>
      </trkpt>
      <trkpt lat="45.55201" lon="6.78313">
        <ele>2048</ele>
        <time>2013-02-10T12:42:38Z</time>
      </trkpt>
      <trkpt lat="45.5523" lon="6.78271">
        <ele>2041</ele>
        <time>2013-02-10T12:42:43Z</time>
      </trkpt>
      <trkpt lat="45.55247" lon="6.78188">
        <ele>2022</ele>
        <time>2013-02-10T12:42:49Z</time>
      </trkpt>
      <trkpt lat="45.55247" lon="6.78108">
        <ele>2007</ele>
        <time>2013-02-10T12:42:55Z</time>
      </trkpt>
      <trkpt lat="45.55226" lon="6.78057">
        <ele>1998</ele>
        <time>2013-02-10T12:43:00Z</time>
      </trkpt>
      <trkpt lat="45.55228" lon="6.77999">
        <ele>1982</ele>
        <time>2013-02-10T12:43:06Z</time>
      </trkpt>
      <trkpt lat="45.55243" lon="6.77931">
        <ele>1972</ele>
        <time>2013-02-10T12:43:12Z</time>
      </trkpt>
      <trkpt lat="45.55243" lon="6.77846">
        <ele>1954</ele>
        <time>2013-02-10T12:43:18Z</time>
      </trkpt>
      <trkpt lat="45.5527" lon="6.77773">
        <ele>1937</ele>
        <time>2013-02-10T12:43:24Z</time>
      </trkpt>
      <trkpt lat="45.55316" lon="6.77712">
        <ele>1920</ele>
        <time>2013-02-10T12:43:30Z</time>
      </trkpt>
      <trkpt lat="45.55359" lon="6.77672">
        <ele>1910</ele>
        <time>2013-02-10T12:43:35Z</time>
      </trkpt>
      <trkpt lat="45.55386" lon="6.77614">
        <ele>1896</ele>
        <time>2013-02-10T12:43:41Z</time>
      </trkpt>
      <trkpt lat="45.55406" lon="6.77552">
        <ele>1881</ele>
        <time>2013-02-10T12:43:47Z</time>
      </trkpt>
      <trkpt lat="45.55414" lon="6.77518">
        <ele>1875</ele>
        <time>2013-02-10T12:43:52Z</time>
      </trkpt>
      <trkpt lat="45.55434" lon="6.77472">
        <ele>1861</ele>
        <time>2013-02-10T12:43:58Z</time>
      </trkpt>
      <trkpt lat="45.55434" lon="6.77416">
        <ele>1846</ele>
        <time>2013-02-10T12:44:03Z</time>
      </trkpt>
      <trkpt lat="45.55435" lon="6.77345">
        <ele>1837</ele>
        <time>2013-02-10T12:44:10Z</time>
      </trkpt>
      <trkpt lat="45.55457" lon="6.76863">
        <ele>1715</ele>
        <time>2013-02-10T12:47:48Z</time>
      </trkpt>
      <trkpt lat="45.55449" lon="6.76898">
        <ele>1722</ele>
        <time>2013-02-10T12:47:57Z</time>
      </trkpt>
      <trkpt lat="45.55442" lon="6.76928">
        <ele>1739</ele>
        <time>2013-02-10T12:48:04Z</time>
      </trkpt>
      <trkpt lat="45.55435" lon="6.76957">
        <ele>1742</ele>
        <time>2013-02-10T12:48:11Z</time>
      </trkpt>
      <trkpt lat="45.55429" lon="6.76983">
        <ele>1750</ele>
        <time>2013-02-10T12:48:18Z</time>
      </trkpt>
      <trkpt lat="45.55423" lon="6.77005">
        <ele>1763</ele>
        <time>2013-02-10T12:48:24Z</time>
      </trkpt>
      <trkpt lat="45.55418" lon="6.7704">
        <ele>1764</ele>
        <time>2013-02-10T12:48:31Z</time>
      </trkpt>
      <trkpt lat="45.55409" lon="6.77069">
        <ele>1783</ele>
        <time>2013-02-10T12:48:37Z</time>
      </trkpt>
      <trkpt lat="45.55401" lon="6.77106">
        <ele>1795</ele>
        <time>2013-02-10T12:48:45Z</time>
      </trkpt>
      <trkpt lat="45.5539" lon="6.77146">
        <ele>1801</ele>
        <time>2013-02-10T12:48:54Z</time>
      </trkpt>
      <trkpt lat="45.55375" lon="6.772">
        <ele>1816</ele>
        <time>2013-02-10T12:49:03Z</time>
      </trkpt>
      <trkpt lat="45.55367" lon="6.77231">
        <ele>1820</ele>
        <time>2013-02-10T12:49:11Z</time>
      </trkpt>
      <trkpt lat="45.55354" lon="6.77276">
        <ele>1832</ele>
        <time>2013-02-10T12:49:18Z</time>
      </trkpt>
      <trkpt lat="45.5534" lon="6.77318">
        <ele>1838</ele>
        <time>2013-02-10T12:49:24Z</time>
      </trkpt>
      <trkpt lat="45.55321" lon="6.77368">
        <ele>1853</ele>
        <time>2013-02-10T12:49:30Z</time>
      </trkpt>
      <trkpt lat="45.55309" lon="6.77406">
        <ele>1856</ele>
        <time>2013-02-10T12:49:36Z</time>
      </trkpt>
      <trkpt lat="45.55302" lon="6.7743">
        <ele>1866</ele>
        <time>2013-02-10T12:49:40Z</time>
      </trkpt>
      <trkpt lat="45.55297" lon="6.77447">
        <ele>1868</ele>
        <time>2013-02-10T12:49:43Z</time>
      </trkpt>
      <trkpt lat="45.55289" lon="6.77471">
        <ele>1870</ele>
        <time>2013-02-10T12:49:47Z</time>
      </trkpt>
      <trkpt lat="45.55281" lon="6.77502">
        <ele>1884</ele>
        <time>2013-02-10T12:49:53Z</time>
      </trkpt>
      <trkpt lat="45.55271" lon="6.7754">
        <ele>1888</ele>
        <time>2013-02-10T12:50:00Z</time>
      </trkpt>
      <trkpt lat="45.55261" lon="6.77572">
        <ele>1894</ele>
        <time>2013-02-10T12:50:06Z</time>
      </trkpt>
      <trkpt lat="45.55253" lon="6.77603">
        <ele>1903</ele>
        <time>2013-02-10T12:50:12Z</time>
      </trkpt>
      <trkpt lat="45.55248" lon="6.77619">
        <ele>1911</ele>
        <time>2013-02-10T12:50:15Z</time>
      </trkpt>
      <trkpt lat="45.55244" lon="6.77634">
        <ele>1914</ele>
        <time>2013-02-10T12:50:18Z</time>
      </trkpt>
      <trkpt lat="45.5524" lon="6.7765">
        <ele>1916</ele>
        <time>2013-02-10T12:50:21Z</time>
      </trkpt>
      <trkpt lat="45.55231" lon="6.7768">
        <ele>1926</ele>
        <time>2013-02-10T12:50:27Z</time>
      </trkpt>
      <trkpt lat="45.55224" lon="6.77706">
        <ele>1930</ele>
        <time>2013-02-10T12:50:32Z</time>
      </trkpt>
      <trkpt lat="45.5522" lon="6.77721">
        <ele>1931</ele>
        <time>2013-02-10T12:50:35Z</time>
      </trkpt>
      <trkpt lat="45.55211" lon="6.77752">
        <ele>1943</ele>
        <time>2013-02-10T12:50:41Z</time>
      </trkpt>
      <trkpt lat="45.55203" lon="6.77783">
        <ele>1945</ele>
        <time>2013-02-10T12:50:47Z</time>
      </trkpt>
      <trkpt lat="45.55195" lon="6.77808">
        <ele>1948</ele>
        <time>2013-02-10T12:50:52Z</time>
      </trkpt>
      <trkpt lat="45.55189" lon="6.77834">
        <ele>1958</ele>
        <time>2013-02-10T12:50:57Z</time>
      </trkpt>
      <trkpt lat="45.55184" lon="6.77849">
        <ele>1959</ele>
        <time>2013-02-10T12:51:00Z</time>
      </trkpt>
      <trkpt lat="45.5518" lon="6.77865">
        <ele>1960</ele>
        <time>2013-02-10T12:51:03Z</time>
      </trkpt>
      <trkpt lat="45.5517" lon="6.779">
        <ele>1966</ele>
        <time>2013-02-10T12:51:10Z</time>
      </trkpt>
      <trkpt lat="45.55162" lon="6.77931">
        <ele>1980</ele>
        <time>2013-02-10T12:51:16Z</time>
      </trkpt>
      <trkpt lat="45.55155" lon="6.77956">
        <ele>1988</ele>
        <time>2013-02-10T12:51:21Z</time>
      </trkpt>
      <trkpt lat="45.55147" lon="6.77986">
        <ele>1992</ele>
        <time>2013-02-10T12:51:27Z</time>
      </trkpt>
      <trkpt lat="45.55139" lon="6.78016">
        <ele>2006</ele>
        <time>2013-02-10T12:51:33Z</time>
      </trkpt>
      <trkpt lat="45.55129" lon="6.7805">
        <ele>2010</ele>
        <time>2013-02-10T12:51:40Z</time>
      </trkpt>
      <trkpt lat="45.55121" lon="6.78079">
        <ele>2013</ele>
        <time>2013-02-10T12:51:46Z</time>
      </trkpt>
      <trkpt lat="45.55115" lon="6.78105">
        <ele>2022</ele>
        <time>2013-02-10T12:51:51Z</time>
      </trkpt>
      <trkpt lat="45.55106" lon="6.78136">
        <ele>2024</ele>
        <time>2013-02-10T12:51:57Z</time>
      </trkpt>
      <trkpt lat="45.55098" lon="6.78168">
        <ele>2032</ele>
        <time>2013-02-10T12:52:03Z</time>
      </trkpt>
      <trkpt lat="45.55092" lon="6.78189">
        <ele>2033</ele>
        <time>2013-02-10T12:52:07Z</time>
      </trkpt>
      <trkpt lat="45.55083" lon="6.78221">
        <ele>2037</ele>
        <time>2013-02-10T12:52:13Z</time>
      </trkpt>
      <trkpt lat="45.55079" lon="6.78236">
        <ele>2040</ele>
        <time>2013-02-10T12:52:16Z</time>
      </trkpt>
      <trkpt lat="45.55075" lon="6.78252">
        <ele>2044</ele>
        <time>2013-02-10T12:52:19Z</time>
      </trkpt>
      <trkpt lat="45.55071" lon="6.78267">
        <ele>2046</ele>
        <time>2013-02-10T12:52:22Z</time>
      </trkpt>
      <trkpt lat="45.55067" lon="6.78282">
        <ele>2048</ele>
        <time>2013-02-10T12:52:25Z</time>
      </trkpt>
      <trkpt lat="45.55062" lon="6.78298">
        <ele>2050</ele>
        <time>2013-02-10T12:52:28Z</time>
      </trkpt>
      <trkpt lat="45.55056" lon="6.78319">
        <ele>2052</ele>
        <time>2013-02-10T12:52:32Z</time>
      </trkpt>
      <trkpt lat="45.55049" lon="6.78345">
        <ele>2062</ele>
        <time>2013-02-10T12:52:37Z</time>
      </trkpt>
      <trkpt lat="45.55043" lon="6.78371">
        <ele>2065</ele>
        <time>2013-02-10T12:52:42Z</time>
      </trkpt>
      <trkpt lat="45.55035" lon="6.78404">
        <ele>2069</ele>
        <time>2013-02-10T12:52:48Z</time>
      </trkpt>
      <trkpt lat="45.55028" lon="6.78431">
        <ele>2082</ele>
        <time>2013-02-10T12:52:53Z</time>
      </trkpt>
      <trkpt lat="45.55021" lon="6.78457">
        <ele>2085</ele>
        <time>2013-02-10T12:52:58Z</time>
      </trkpt>
      <trkpt lat="45.55014" lon="6.78482">
        <ele>2090</ele>
        <time>2013-02-10T12:53:03Z</time>
      </trkpt>
      <trkpt lat="45.5501" lon="6.78497">
        <ele>2093</ele>
        <time>2013-02-10T12:53:06Z</time>
      </trkpt>
      <trkpt lat="45.55002" lon="6.78527">
        <ele>2102</ele>
        <time>2013-02-10T12:53:12Z</time>
      </trkpt>
      <trkpt lat="45.54994" lon="6.78558">
        <ele>2110</ele>
        <time>2013-02-10T12:53:18Z</time>
      </trkpt>
      <trkpt lat="45.54984" lon="6.78593">
        <ele>2119</ele>
        <time>2013-02-10T12:53:25Z</time>
      </trkpt>
      <trkpt lat="45.54977" lon="6.78619">
        <ele>2123</ele>
        <time>2013-02-10T12:53:30Z</time>
      </trkpt>
      <trkpt lat="45.54968" lon="6.78649">
        <ele>2126</ele>
        <time>2013-02-10T12:53:36Z</time>
      </trkpt>
      <trkpt lat="45.54964" lon="6.78665">
        <ele>2127</ele>
        <time>2013-02-10T12:53:39Z</time>
      </trkpt>
      <trkpt lat="45.54957" lon="6.7869">
        <ele>2139</ele>
        <time>2013-02-10T12:53:44Z</time>
      </trkpt>
      <trkpt lat="45.54948" lon="6.78715">
        <ele>2142</ele>
        <time>2013-02-10T12:53:49Z</time>
      </trkpt>
      <trkpt lat="45.54939" lon="6.78757">
        <ele>2157</ele>
        <time>2013-02-10T12:53:58Z</time>
      </trkpt>
      <trkpt lat="45.54934" lon="6.78782">
        <ele>2159</ele>
        <time>2013-02-10T12:54:03Z</time>
      </trkpt>
      <trkpt lat="45.54925" lon="6.78811">
        <ele>2164</ele>
        <time>2013-02-10T12:54:09Z</time>
      </trkpt>
      <trkpt lat="45.54918" lon="6.78835">
        <ele>2173</ele>
        <time>2013-02-10T12:54:14Z</time>
      </trkpt>
      <trkpt lat="45.54907" lon="6.78868">
        <ele>2182</ele>
        <time>2013-02-10T12:54:21Z</time>
      </trkpt>
      <trkpt lat="45.54896" lon="6.78896">
        <ele>2185</ele>
        <time>2013-02-10T12:54:27Z</time>
      </trkpt>
      <trkpt lat="45.54888" lon="6.78934">
        <ele>2198</ele>
        <time>2013-02-10T12:54:34Z</time>
      </trkpt>
      <trkpt lat="45.54882" lon="6.78959">
        <ele>2200</ele>
        <time>2013-02-10T12:54:39Z</time>
      </trkpt>
      <trkpt lat="45.54874" lon="6.78994">
        <ele>2204</ele>
        <time>2013-02-10T12:54:45Z</time>
      </trkpt>
      <trkpt lat="45.54866" lon="6.79029">
        <ele>2219</ele>
        <time>2013-02-10T12:54:51Z</time>
      </trkpt>
      <trkpt lat="45.54861" lon="6.79056">
        <ele>2223</ele>
        <time>2013-02-10T12:54:56Z</time>
      </trkpt>
      <trkpt lat="45.5485" lon="6.79093">
        <ele>2238</ele>
        <time>2013-02-10T12:55:03Z</time>
      </trkpt>
      <trkpt lat="45.54842" lon="6.79119">
        <ele>2242</ele>
        <time>2013-02-10T12:55:08Z</time>
      </trkpt>
      <trkpt lat="45.54833" lon="6.79149">
        <ele>2250</ele>
        <time>2013-02-10T12:55:14Z</time>
      </trkpt>
      <trkpt lat="45.54823" lon="6.79184">
        <ele>2263</ele>
        <time>2013-02-10T12:55:21Z</time>
      </trkpt>
      <trkpt lat="45.54816" lon="6.79208">
        <ele>2267</ele>
        <time>2013-02-10T12:55:26Z</time>
      </trkpt>
      <trkpt lat="45.54807" lon="6.7923">
        <ele>2270</ele>
        <time>2013-02-10T12:55:34Z</time>
      </trkpt>
      <trkpt lat="45.548" lon="6.79232">
        <ele>2270</ele>
        <time>2013-02-10T12:55:44Z</time>
      </trkpt>
      <trkpt lat="45.548" lon="6.79232">
        <ele>2270</ele>
        <time>2013-02-10T12:55:51Z</time>
      </trkpt>
      <trkpt lat="45.548" lon="6.79232">
        <ele>2270</ele>
        <time>2013-02-10T12:55:55Z</time>
      </trkpt>
      <trkpt lat="45.54795" lon="6.79221">
        <ele>2269</ele>
        <time>2013-02-10T12:55:55Z</time>
      </trkpt>
      <trkpt lat="45.54795" lon="6.79221">
        <ele>2269</ele>
        <time>2013-02-10T12:56:00Z</time>
      </trkpt>
      <trkpt lat="45.54795" lon="6.79221">
        <ele>2269</ele>
        <time>2013-02-10T12:56:00Z</time>
      </trkpt>
      <trkpt lat="45.54795" lon="6.79221">
        <ele>2269</ele>
        <time>2013-02-10T12:56:10Z</time>
      </trkpt>
      <trkpt lat="45.548" lon="6.79202">
        <ele>2266</ele>
        <time>2013-02-10T12:56:10Z</time>
      </trkpt>
      <trkpt lat="45.54808" lon="6.79181">
        <ele>2263</ele>
        <time>2013-02-10T12:56:13Z</time>
      </trkpt>
      <trkpt lat="45.54817" lon="6.79155">
        <ele>2250</ele>
        <time>2013-02-10T12:56:16Z</time>
      </trkpt>
      <trkpt lat="45.54834" lon="6.79116">
        <ele>2242</ele>
        <time>2013-02-10T12:56:21Z</time>
      </trkpt>
      <trkpt lat="45.54864" lon="6.79061">
        <ele>2223</ele>
        <time>2013-02-10T12:56:27Z</time>
      </trkpt>
      <trkpt lat="45.5488" lon="6.79041">
        <ele>2220</ele>
        <time>2013-02-10T12:56:30Z</time>
      </trkpt>
      <trkpt lat="45.54904" lon="6.79003">
        <ele>2213</ele>
        <time>2013-02-10T12:56:35Z</time>
      </trkpt>
      <trkpt lat="45.54919" lon="6.78952">
        <ele>2194</ele>
        <time>2013-02-10T12:56:40Z</time>
      </trkpt>
      <trkpt lat="45.54915" lon="6.78899">
        <ele>2186</ele>
        <time>2013-02-10T12:56:46Z</time>
      </trkpt>
      <trkpt lat="45.54889" lon="6.78877">
        <ele>2183</ele>
        <time>2013-02-10T12:56:51Z</time>
      </trkpt>
      <trkpt lat="45.54852" lon="6.78848">
        <ele>2181</ele>
        <time>2013-02-10T12:56:57Z</time>
      </trkpt>
      <trkpt lat="45.54842" lon="6.78824">
        <ele>2174</ele>
        <time>2013-02-10T12:57:00Z</time>
      </trkpt>
      <trkpt lat="45.54846" lon="6.78776">
        <ele>2165</ele>
        <time>2013-02-10T12:57:04Z</time>
      </trkpt>
      <trkpt lat="45.54866" lon="6.78717">
        <ele>2150</ele>
        <time>2013-02-10T12:57:10Z</time>
      </trkpt>
      <trkpt lat="45.54875" lon="6.78689">
        <ele>2147</ele>
        <time>2013-02-10T12:57:13Z</time>
      </trkpt>
      <trkpt lat="45.54877" lon="6.78638">
        <ele>2132</ele>
        <time>2013-02-10T12:57:18Z</time>
      </trkpt>
      <trkpt lat="45.54876" lon="6.78583">
        <ele>2116</ele>
        <time>2013-02-10T12:57:23Z</time>
      </trkpt>
      <trkpt lat="45.54902" lon="6.78554">
        <ele>2114</ele>
        <time>2013-02-10T12:57:27Z</time>
      </trkpt>
      <trkpt lat="45.54898" lon="6.78504">
        <ele>2107</ele>
        <time>2013-02-10T12:57:31Z</time>
      </trkpt>
      <trkpt lat="45.54897" lon="6.78442">
        <ele>2092</ele>
        <time>2013-02-10T12:57:36Z</time>
      </trkpt>
      <trkpt lat="45.54915" lon="6.78376">
        <ele>2078</ele>
        <time>2013-02-10T12:57:42Z</time>
      </trkpt>
      <trkpt lat="45.54921" lon="6.78347">
        <ele>2070</ele>
        <time>2013-02-10T12:57:45Z</time>
      </trkpt>
      <trkpt lat="45.54941" lon="6.78284">
        <ele>2057</ele>
        <time>2013-02-10T12:57:50Z</time>
      </trkpt>
      <trkpt lat="45.54952" lon="6.78245">
        <ele>2048</ele>
        <time>2013-02-10T12:57:53Z</time>
      </trkpt>
      <trkpt lat="45.54958" lon="6.78209">
        <ele>2045</ele>
        <time>2013-02-10T12:57:56Z</time>
      </trkpt>
      <trkpt lat="45.54975" lon="6.78181">
        <ele>2041</ele>
        <time>2013-02-10T12:57:59Z</time>
      </trkpt>
      <trkpt lat="45.54998" lon="6.78122">
        <ele>2033</ele>
        <time>2013-02-10T12:58:04Z</time>
      </trkpt>
      <trkpt lat="45.55004" lon="6.7808">
        <ele>2025</ele>
        <time>2013-02-10T12:58:07Z</time>
      </trkpt>
      <trkpt lat="45.55006" lon="6.78016">
        <ele>2017</ele>
        <time>2013-02-10T12:58:13Z</time>
      </trkpt>
      <trkpt lat="45.55009" lon="6.77969">
        <ele>2006</ele>
        <time>2013-02-10T12:58:18Z</time>
      </trkpt>
      <trkpt lat="45.55023" lon="6.77918">
        <ele>2000</ele>
        <time>2013-02-10T12:58:24Z</time>
      </trkpt>
      <trkpt lat="45.55019" lon="6.7787">
        <ele>1984</ele>
        <time>2013-02-10T12:58:29Z</time>
      </trkpt>
      <trkpt lat="45.55026" lon="6.77806">
        <ele>1966</ele>
        <time>2013-02-10T12:58:35Z</time>
      </trkpt>
      <trkpt lat="45.55034" lon="6.77756">
        <ele>1960</ele>
        <time>2013-02-10T12:58:40Z</time>
      </trkpt>
      <trkpt lat="45.55041" lon="6.77694">
        <ele>1941</ele>
        <time>2013-02-10T12:58:45Z</time>
      </trkpt>
      <trkpt lat="45.55061" lon="6.77619">
        <ele>1924</ele>
        <time>2013-02-10T12:58:51Z</time>
      </trkpt>
      <trkpt lat="45.55068" lon="6.77516">
        <ele>1910</ele>
        <time>2013-02-10T12:58:58Z</time>
      </trkpt>
      <trkpt lat="45.55098" lon="6.77453">
        <ele>1895</ele>
        <time>2013-02-10T12:59:04Z</time>
      </trkpt>
      <trkpt lat="45.55113" lon="6.77417">
        <ele>1892</ele>
        <time>2013-02-10T12:59:07Z</time>
      </trkpt>
      <trkpt lat="45.55156" lon="6.7737">
        <ele>1879</ele>
        <time>2013-02-10T12:59:13Z</time>
      </trkpt>
      <trkpt lat="45.55184" lon="6.77342">
        <ele>1868</ele>
        <time>2013-02-10T12:59:18Z</time>
      </trkpt>
      <trkpt lat="45.55198" lon="6.77322">
        <ele>1858</ele>
        <time>2013-02-10T12:59:21Z</time>
      </trkpt>
      <trkpt lat="45.55211" lon="6.77298">
        <ele>1855</ele>
        <time>2013-02-10T12:59:24Z</time>
      </trkpt>
      <trkpt lat="45.55217" lon="6.77269">
        <ele>1852</ele>
        <time>2013-02-10T12:59:27Z</time>
      </trkpt>
      <trkpt lat="45.55238" lon="6.77209">
        <ele>1838</ele>
        <time>2013-02-10T12:59:33Z</time>
      </trkpt>
      <trkpt lat="45.55255" lon="6.77175">
        <ele>1828</ele>
        <time>2013-02-10T12:59:36Z</time>
      </trkpt>
      <trkpt lat="45.55259" lon="6.77132">
        <ele>1818</ele>
        <time>2013-02-10T12:59:39Z</time>
      </trkpt>
      <trkpt lat="45.55266" lon="6.77065">
        <ele>1804</ele>
        <time>2013-02-10T12:59:44Z</time>
      </trkpt>
      <trkpt lat="45.55257" lon="6.77004">
        <ele>1795</ele>
        <time>2013-02-10T12:59:50Z</time>
      </trkpt>
      <trkpt lat="45.55259" lon="6.76959">
        <ele>1779</ele>
        <time>2013-02-10T12:59:56Z</time>
      </trkpt>
      <trkpt lat="45.55259" lon="6.76915">
        <ele>1764</ele>
        <time>2013-02-10T13:00:02Z</time>
      </trkpt>
      <trkpt lat="45.55276" lon="6.76881">
        <ele>1755</ele>
        <time>2013-02-10T13:00:07Z</time>
      </trkpt>
      <trkpt lat="45.55276" lon="6.76813">
        <ele>1733</ele>
        <time>2013-02-10T13:00:15Z</time>
      </trkpt>
      <trkpt lat="45.55274" lon="6.76789">
        <ele>1730</ele>
        <time>2013-02-10T13:00:20Z</time>
      </trkpt>
      <trkpt lat="45.55265" lon="6.76756">
        <ele>1724</ele>
        <time>2013-02-10T13:00:25Z</time>
      </trkpt>
      <trkpt lat="45.55259" lon="6.76721">
        <ele>1711</ele>
        <time>2013-02-10T13:00:30Z</time>
      </trkpt>
      <trkpt lat="45.55244" lon="6.76684">
        <ele>1702</ele>
        <time>2013-02-10T13:00:35Z</time>
      </trkpt>
      <trkpt lat="45.55224" lon="6.76619">
        <ele>1683</ele>
        <time>2013-02-10T13:00:41Z</time>
      </trkpt>
      <trkpt lat="45.55216" lon="6.76554">
        <ele>1662</ele>
        <time>2013-02-10T13:00:47Z</time>
      </trkpt>
      <trkpt lat="45.55181" lon="6.76527">
        <ele>1655</ele>
        <time>2013-02-10T13:00:52Z</time>
      </trkpt>
      <trkpt lat="45.5513" lon="6.76522">
        <ele>1653</ele>
        <time>2013-02-10T13:00:58Z</time>
      </trkpt>
      <trkpt lat="45.55126" lon="6.76495">
        <ele>1638</ele>
        <time>2013-02-10T13:01:04Z</time>
      </trkpt>
      <trkpt lat="45.55121" lon="6.76471">
        <ele>1636</ele>
        <time>2013-02-10T13:01:07Z</time>
      </trkpt>
      <trkpt lat="45.5512" lon="6.7642">
        <ele>1630</ele>
        <time>2013-02-10T13:01:13Z</time>
      </trkpt>
      <trkpt lat="45.55118" lon="6.76373">
        <ele>1615</ele>
        <time>2013-02-10T13:01:19Z</time>
      </trkpt>
      <trkpt lat="45.55118" lon="6.76366">
        <ele>1614</ele>
        <time>2013-02-10T13:01:21Z</time>
      </trkpt>
      <trkpt lat="45.55118" lon="6.76366">
        <ele>1614</ele>
        <time>2013-02-10T13:01:26Z</time>
      </trkpt>
      <trkpt lat="45.55118" lon="6.76366">
        <ele>1614</ele>
        <time>2013-02-10T13:01:31Z</time>
      </trkpt>
      <trkpt lat="45.55128" lon="6.76359">
        <ele>1614</ele>
        <time>2013-02-10T13:01:31Z</time>
      </trkpt>
      <trkpt lat="45.55128" lon="6.76359">
        <ele>1614</ele>
        <time>2013-02-10T13:01:39Z</time>
      </trkpt>
      <trkpt lat="45.55128" lon="6.76359">
        <ele>1614</ele>
        <time>2013-02-10T13:01:39Z</time>
      </trkpt>
      <trkpt lat="45.55128" lon="6.76359">
        <ele>1614</ele>
        <time>2013-02-10T13:03:16Z</time>
      </trkpt>
      <trkpt lat="45.55112" lon="6.76358">
        <ele>1614</ele>
        <time>2013-02-10T13:03:16Z</time>
      </trkpt>
      <trkpt lat="45.55112" lon="6.76358">
        <ele>1614</ele>
        <time>2013-02-10T13:03:21Z</time>
      </trkpt>
      <trkpt lat="45.55112" lon="6.76358">
        <ele>1614</ele>
        <time>2013-02-10T13:03:22Z</time>
      </trkpt>
      <trkpt lat="45.55112" lon="6.76358">
        <ele>1614</ele>
        <time>2013-02-10T13:05:02Z</time>
      </trkpt>
      <trkpt lat="45.55116" lon="6.76331">
        <ele>1601</ele>
        <time>2013-02-10T13:05:02Z</time>
      </trkpt>
      <trkpt lat="45.55107" lon="6.76316">
        <ele>1601</ele>
        <time>2013-02-10T13:05:14Z</time>
      </trkpt>
      <trkpt lat="45.55109" lon="6.7631">
        <ele>1600</ele>
        <time>2013-02-10T13:05:18Z</time>
      </trkpt>
      <trkpt lat="45.55109" lon="6.7631">
        <ele>1600</ele>
        <time>2013-02-10T13:05:25Z</time>
      </trkpt>
      <trkpt lat="45.55109" lon="6.7631">
        <ele>1600</ele>
        <time>2013-02-10T13:05:33Z</time>
      </trkpt>
      <trkpt lat="45.55105" lon="6.76302">
        <ele>1599</ele>
        <time>2013-02-10T13:05:33Z</time>
      </trkpt>
      <trkpt lat="45.55105" lon="6.76302">
        <ele>1599</ele>
        <time>2013-02-10T13:18:35Z</time>
      </trkpt>
      <trkpt lat="45.55115" lon="6.76342">
        <ele>1613</ele>
        <time>2013-02-10T13:18:38Z</time>
      </trkpt>
      <trkpt lat="45.55116" lon="6.76362">
        <ele>1614</ele>
        <time>2013-02-10T13:18:50Z</time>
      </trkpt>
      <trkpt lat="45.55116" lon="6.76362">
        <ele>1614</ele>
        <time>2013-02-10T13:18:57Z</time>
      </trkpt>
      <trkpt lat="45.55116" lon="6.76362">
        <ele>1614</ele>
        <time>2013-02-10T13:18:57Z</time>
      </trkpt>
      <trkpt lat="45.55116" lon="6.76362">
        <ele>1614</ele>
        <time>2013-02-10T13:19:12Z</time>
      </trkpt>
      <trkpt lat="45.55132" lon="6.76363">
        <ele>1614</ele>
        <time>2013-02-10T13:19:12Z</time>
      </trkpt>
      <trkpt lat="45.55132" lon="6.76363">
        <ele>1614</ele>
        <time>2013-02-10T13:19:19Z</time>
      </trkpt>
      <trkpt lat="45.55132" lon="6.76363">
        <ele>1614</ele>
        <time>2013-02-10T13:19:19Z</time>
      </trkpt>
      <trkpt lat="45.55132" lon="6.76363">
        <ele>1614</ele>
        <time>2013-02-10T13:21:00Z</time>
      </trkpt>
      <trkpt lat="45.55132" lon="6.76363">
        <ele>1614</ele>
        <time>2013-02-10T13:36:47Z</time>
      </trkpt>
      <trkpt lat="45.55132" lon="6.76363">
        <ele>1614</ele>
        <time>2013-02-10T14:30:07Z</time>
      </trkpt>
      <trkpt lat="45.55157" lon="6.76347">
        <ele>1610</ele>
        <time>2013-02-10T14:30:42Z</time>
      </trkpt>
      <trkpt lat="45.55138" lon="6.76363">
        <ele>1614</ele>
        <time>2013-02-10T14:31:54Z</time>
      </trkpt>
      <trkpt lat="45.55128" lon="6.76368">
        <ele>1615</ele>
        <time>2013-02-10T14:32:06Z</time>
      </trkpt>
      <trkpt lat="45.55117" lon="6.76346">
        <ele>1613</ele>
        <time>2013-02-10T14:32:25Z</time>
      </trkpt>
      <trkpt lat="45.55117" lon="6.76346">
        <ele>1613</ele>
        <time>2013-02-10T14:32:33Z</time>
      </trkpt>
      <trkpt lat="45.55117" lon="6.76346">
        <ele>1613</ele>
        <time>2013-02-10T14:32:33Z</time>
      </trkpt>
      <trkpt lat="45.55117" lon="6.76346">
        <ele>1613</ele>
        <time>2013-02-10T14:32:44Z</time>
      </trkpt>
      <trkpt lat="45.55121" lon="6.7633">
        <ele>1601</ele>
        <time>2013-02-10T14:32:44Z</time>
      </trkpt>
      <trkpt lat="45.55109" lon="6.76311">
        <ele>1600</ele>
        <time>2013-02-10T14:32:52Z</time>
      </trkpt>
      <trkpt lat="45.55109" lon="6.76311">
        <ele>1600</ele>
        <time>2013-02-10T14:32:59Z</time>
      </trkpt>
      <trkpt lat="45.55109" lon="6.76311">
        <ele>1600</ele>
        <time>2013-02-10T14:35:46Z</time>
      </trkpt>
      <trkpt lat="45.55118" lon="6.76285">
        <ele>1596</ele>
        <time>2013-02-10T14:35:46Z</time>
      </trkpt>
      <trkpt lat="45.55117" lon="6.76234">
        <ele>1578</ele>
        <time>2013-02-10T14:35:52Z</time>
      </trkpt>
      <trkpt lat="45.55112" lon="6.76162">
        <ele>1554</ele>
        <time>2013-02-10T14:35:58Z</time>
      </trkpt>
      <trkpt lat="45.55106" lon="6.76088">
        <ele>1544</ele>
        <time>2013-02-10T14:36:04Z</time>
      </trkpt>
      <trkpt lat="45.55104" lon="6.76024">
        <ele>1519</ele>
        <time>2013-02-10T14:36:09Z</time>
      </trkpt>
      <trkpt lat="45.55101" lon="6.75987">
        <ele>1500</ele>
        <time>2013-02-10T14:36:12Z</time>
      </trkpt>
      <trkpt lat="45.55092" lon="6.75903">
        <ele>1471</ele>
        <time>2013-02-10T14:36:19Z</time>
      </trkpt>
      <trkpt lat="45.55089" lon="6.75837">
        <ele>1451</ele>
        <time>2013-02-10T14:36:24Z</time>
      </trkpt>
      <trkpt lat="45.55082" lon="6.75762">
        <ele>1427</ele>
        <time>2013-02-10T14:36:30Z</time>
      </trkpt>
      <trkpt lat="45.55079" lon="6.75686">
        <ele>1399</ele>
        <time>2013-02-10T14:36:36Z</time>
      </trkpt>
      <trkpt lat="45.5507" lon="6.75612">
        <ele>1372</ele>
        <time>2013-02-10T14:36:42Z</time>
      </trkpt>
      <trkpt lat="45.55065" lon="6.75534">
        <ele>1342</ele>
        <time>2013-02-10T14:36:48Z</time>
      </trkpt>
      <trkpt lat="45.55059" lon="6.75469">
        <ele>1318</ele>
        <time>2013-02-10T14:36:53Z</time>
      </trkpt>
      <trkpt lat="45.55052" lon="6.75406">
        <ele>1300</ele>
        <time>2013-02-10T14:36:58Z</time>
      </trkpt>
      <trkpt lat="45.55047" lon="6.75342">
        <ele>1295</ele>
        <time>2013-02-10T14:37:03Z</time>
      </trkpt>
      <trkpt lat="45.55043" lon="6.75265">
        <ele>1275</ele>
        <time>2013-02-10T14:37:09Z</time>
      </trkpt>
      <trkpt lat="45.55041" lon="6.75186">
        <ele>1251</ele>
        <time>2013-02-10T14:37:15Z</time>
      </trkpt>
      <trkpt lat="45.55032" lon="6.75112">
        <ele>1228</ele>
        <time>2013-02-10T14:37:21Z</time>
      </trkpt>
      <trkpt lat="45.55024" lon="6.75031">
        <ele>1198</ele>
        <time>2013-02-10T14:37:27Z</time>
      </trkpt>
      <trkpt lat="45.55016" lon="6.74956">
        <ele>1166</ele>
        <time>2013-02-10T14:37:33Z</time>
      </trkpt>
      <trkpt lat="45.55012" lon="6.74892">
        <ele>1141</ele>
        <time>2013-02-10T14:37:38Z</time>
      </trkpt>
      <trkpt lat="45.55006" lon="6.74829">
        <ele>1120</ele>
        <time>2013-02-10T14:37:43Z</time>
      </trkpt>
      <trkpt lat="45.55001" lon="6.74753">
        <ele>1118</ele>
        <time>2013-02-10T14:37:49Z</time>
      </trkpt>
      <trkpt lat="45.54995" lon="6.74689">
        <ele>1156</ele>
        <time>2013-02-10T14:37:54Z</time>
      </trkpt>
      <trkpt lat="45.54989" lon="6.74615">
        <ele>1207</ele>
        <time>2013-02-10T14:38:00Z</time>
      </trkpt>
      <trkpt lat="45.54985" lon="6.74551">
        <ele>1261</ele>
        <time>2013-02-10T14:38:05Z</time>
      </trkpt>
      <trkpt lat="45.54982" lon="6.74512">
        <ele>1279</ele>
        <time>2013-02-10T14:38:08Z</time>
      </trkpt>
      <trkpt lat="45.54976" lon="6.74437">
        <ele>1346</ele>
        <time>2013-02-10T14:38:14Z</time>
      </trkpt>
      <trkpt lat="45.5497" lon="6.74362">
        <ele>1403</ele>
        <time>2013-02-10T14:38:20Z</time>
      </trkpt>
      <trkpt lat="45.54966" lon="6.74298">
        <ele>1442</ele>
        <time>2013-02-10T14:38:25Z</time>
      </trkpt>
      <trkpt lat="45.54961" lon="6.74208">
        <ele>1475</ele>
        <time>2013-02-10T14:38:32Z</time>
      </trkpt>
      <trkpt lat="45.5495" lon="6.74132">
        <ele>1499</ele>
        <time>2013-02-10T14:38:38Z</time>
      </trkpt>
      <trkpt lat="45.54947" lon="6.74095">
        <ele>1505</ele>
        <time>2013-02-10T14:38:41Z</time>
      </trkpt>
      <trkpt lat="45.5494" lon="6.74049">
        <ele>1520</ele>
        <time>2013-02-10T14:38:46Z</time>
      </trkpt>
      <trkpt lat="45.54938" lon="6.7401">
        <ele>1527</ele>
        <time>2013-02-10T14:38:52Z</time>
      </trkpt>
      <trkpt lat="45.54937" lon="6.73986">
        <ele>1535</ele>
        <time>2013-02-10T14:39:00Z</time>
      </trkpt>
      <trkpt lat="45.54935" lon="6.73963">
        <ele>1536</ele>
        <time>2013-02-10T14:39:17Z</time>
      </trkpt>
      <trkpt lat="45.54931" lon="6.73948">
        <ele>1538</ele>
        <time>2013-02-10T14:39:31Z</time>
      </trkpt>
      <trkpt lat="45.54931" lon="6.73948">
        <ele>1538</ele>
        <time>2013-02-10T14:39:38Z</time>
      </trkpt>
      <trkpt lat="45.54931" lon="6.73948">
        <ele>1538</ele>
        <time>2013-02-10T14:40:38Z</time>
      </trkpt>
      <trkpt lat="45.54936" lon="6.73923">
        <ele>1541</ele>
        <time>2013-02-10T14:40:38Z</time>
      </trkpt>
      <trkpt lat="45.54934" lon="6.73907">
        <ele>1544</ele>
        <time>2013-02-10T14:40:47Z</time>
      </trkpt>
      <trkpt lat="45.54935" lon="6.73894">
        <ele>1543</ele>
        <time>2013-02-10T14:40:55Z</time>
      </trkpt>
      <trkpt lat="45.54935" lon="6.73894">
        <ele>1543</ele>
        <time>2013-02-10T14:41:03Z</time>
      </trkpt>
      <trkpt lat="45.54935" lon="6.73894">
        <ele>1543</ele>
        <time>2013-02-10T14:41:47Z</time>
      </trkpt>
      <trkpt lat="45.5493" lon="6.73873">
        <ele>1544</ele>
        <time>2013-02-10T14:41:47Z</time>
      </trkpt>
      <trkpt lat="45.54922" lon="6.73848">
        <ele>1547</ele>
        <time>2013-02-10T14:41:58Z</time>
      </trkpt>
      <trkpt lat="45.54915" lon="6.73811">
        <ele>1560</ele>
        <time>2013-02-10T14:42:13Z</time>
      </trkpt>
      <trkpt lat="45.54911" lon="6.73793">
        <ele>1561</ele>
        <time>2013-02-10T14:42:23Z</time>
      </trkpt>
      <trkpt lat="45.54901" lon="6.7374">
        <ele>1549</ele>
        <time>2013-02-10T14:42:37Z</time>
      </trkpt>
      <trkpt lat="45.54894" lon="6.7369">
        <ele>1549</ele>
        <time>2013-02-10T14:42:42Z</time>
      </trkpt>
      <trkpt lat="45.5489" lon="6.73638">
        <ele>1543</ele>
        <time>2013-02-10T14:42:47Z</time>
      </trkpt>
      <trkpt lat="45.5488" lon="6.73595">
        <ele>1544</ele>
        <time>2013-02-10T14:42:51Z</time>
      </trkpt>
      <trkpt lat="45.54891" lon="6.73552">
        <ele>1543</ele>
        <time>2013-02-10T14:42:57Z</time>
      </trkpt>
      <trkpt lat="45.54909" lon="6.73517">
        <ele>1541</ele>
        <time>2013-02-10T14:43:02Z</time>
      </trkpt>
      <trkpt lat="45.54934" lon="6.73484">
        <ele>1529</ele>
        <time>2013-02-10T14:43:07Z</time>
      </trkpt>
      <trkpt lat="45.5496" lon="6.73419">
        <ele>1524</ele>
        <time>2013-02-10T14:43:14Z</time>
      </trkpt>
      <trkpt lat="45.54979" lon="6.73378">
        <ele>1526</ele>
        <time>2013-02-10T14:43:19Z</time>
      </trkpt>
      <trkpt lat="45.54999" lon="6.73338">
        <ele>1518</ele>
        <time>2013-02-10T14:43:24Z</time>
      </trkpt>
      <trkpt lat="45.55016" lon="6.73314">
        <ele>1514</ele>
        <time>2013-02-10T14:43:30Z</time>
      </trkpt>
      <trkpt lat="45.55036" lon="6.73321">
        <ele>1512</ele>
        <time>2013-02-10T14:43:37Z</time>
      </trkpt>
      <trkpt lat="45.55064" lon="6.73339">
        <ele>1501</ele>
        <time>2013-02-10T14:43:43Z</time>
      </trkpt>
      <trkpt lat="45.55111" lon="6.73364">
        <ele>1487</ele>
        <time>2013-02-10T14:43:48Z</time>
      </trkpt>
      <trkpt lat="45.5515" lon="6.73385">
        <ele>1481</ele>
        <time>2013-02-10T14:43:53Z</time>
      </trkpt>
      <trkpt lat="45.55207" lon="6.73383">
        <ele>1465</ele>
        <time>2013-02-10T14:43:59Z</time>
      </trkpt>
      <trkpt lat="45.55257" lon="6.73383">
        <ele>1449</ele>
        <time>2013-02-10T14:44:05Z</time>
      </trkpt>
      <trkpt lat="45.55277" lon="6.73366">
        <ele>1449</ele>
        <time>2013-02-10T14:44:08Z</time>
      </trkpt>
      <trkpt lat="45.55306" lon="6.73325">
        <ele>1447</ele>
        <time>2013-02-10T14:44:14Z</time>
      </trkpt>
      <trkpt lat="45.55329" lon="6.73294">
        <ele>1446</ele>
        <time>2013-02-10T14:44:19Z</time>
      </trkpt>
      <trkpt lat="45.55338" lon="6.73269">
        <ele>1437</ele>
        <time>2013-02-10T14:44:23Z</time>
      </trkpt>
      <trkpt lat="45.55351" lon="6.73241">
        <ele>1435</ele>
        <time>2013-02-10T14:44:30Z</time>
      </trkpt>
      <trkpt lat="45.5535" lon="6.73239">
        <ele>1435</ele>
        <time>2013-02-10T14:44:31Z</time>
      </trkpt>
      <trkpt lat="45.5535" lon="6.73239">
        <ele>1435</ele>
        <time>2013-02-10T14:44:36Z</time>
      </trkpt>
      <trkpt lat="45.5535" lon="6.73239">
        <ele>1435</ele>
        <time>2013-02-10T14:45:26Z</time>
      </trkpt>
      <trkpt lat="45.55363" lon="6.7322">
        <ele>1431</ele>
        <time>2013-02-10T14:45:26Z</time>
      </trkpt>
      <trkpt lat="45.5537" lon="6.73196">
        <ele>1429</ele>
        <time>2013-02-10T14:45:29Z</time>
      </trkpt>
      <trkpt lat="45.55375" lon="6.73161">
        <ele>1422</ele>
        <time>2013-02-10T14:45:32Z</time>
      </trkpt>
      <trkpt lat="45.55368" lon="6.73101">
        <ele>1421</ele>
        <time>2013-02-10T14:45:36Z</time>
      </trkpt>
      <trkpt lat="45.55371" lon="6.73058">
        <ele>1415</ele>
        <time>2013-02-10T14:45:39Z</time>
      </trkpt>
      <trkpt lat="45.55386" lon="6.72985">
        <ele>1406</ele>
        <time>2013-02-10T14:45:45Z</time>
      </trkpt>
      <trkpt lat="45.55414" lon="6.72921">
        <ele>1390</ele>
        <time>2013-02-10T14:45:51Z</time>
      </trkpt>
      <trkpt lat="45.55444" lon="6.72885">
        <ele>1378</ele>
        <time>2013-02-10T14:45:57Z</time>
      </trkpt>
      <trkpt lat="45.5546" lon="6.72867">
        <ele>1376</ele>
        <time>2013-02-10T14:46:03Z</time>
      </trkpt>
      <trkpt lat="45.55461" lon="6.72851">
        <ele>1375</ele>
        <time>2013-02-10T14:46:07Z</time>
      </trkpt>
      <trkpt lat="45.55461" lon="6.72851">
        <ele>1375</ele>
        <time>2013-02-10T14:46:13Z</time>
      </trkpt>
      <trkpt lat="45.55461" lon="6.72851">
        <ele>1375</ele>
        <time>2013-02-10T14:46:53Z</time>
      </trkpt>
      <trkpt lat="45.55459" lon="6.72821">
        <ele>1374</ele>
        <time>2013-02-10T14:46:53Z</time>
      </trkpt>
      <trkpt lat="45.55454" lon="6.72814">
        <ele>1375</ele>
        <time>2013-02-10T14:47:05Z</time>
      </trkpt>
      <trkpt lat="45.55476" lon="6.72836">
        <ele>1372</ele>
        <time>2013-02-10T14:47:43Z</time>
      </trkpt>
      <trkpt lat="45.55488" lon="6.72838">
        <ele>1369</ele>
        <time>2013-02-10T14:47:56Z</time>
      </trkpt>
      <trkpt lat="45.55498" lon="6.72814">
        <ele>1370</ele>
        <time>2013-02-10T14:48:11Z</time>
      </trkpt>
      <trkpt lat="45.55498" lon="6.72814">
        <ele>1370</ele>
        <time>2013-02-10T14:48:18Z</time>
      </trkpt>
      <trkpt lat="45.55498" lon="6.72814">
        <ele>1370</ele>
        <time>2013-02-10T14:48:18Z</time>
      </trkpt>
      <trkpt lat="45.55498" lon="6.72814">
        <ele>1370</ele>
        <time>2013-02-10T14:49:21Z</time>
      </trkpt>
      <trkpt lat="45.55498" lon="6.72814">
        <ele>1370</ele>
        <time>2013-02-10T14:51:16Z</time>
      </trkpt>
      <trkpt lat="45.55482" lon="6.72826">
        <ele>1370</ele>
        <time>2013-02-10T14:52:05Z</time>
      </trkpt>
      <trkpt lat="45.55482" lon="6.72851">
        <ele>1372</ele>
        <time>2013-02-10T14:52:20Z</time>
      </trkpt>
      <trkpt lat="45.55486" lon="6.72863">
        <ele>1373</ele>
        <time>2013-02-10T14:52:28Z</time>
      </trkpt>
      <trkpt lat="45.55483" lon="6.72881">
        <ele>1374</ele>
        <time>2013-02-10T14:52:42Z</time>
      </trkpt>
      <trkpt lat="45.55484" lon="6.72889">
        <ele>1374</ele>
        <time>2013-02-10T14:52:46Z</time>
      </trkpt>
      <trkpt lat="45.55484" lon="6.72889">
        <ele>1374</ele>
        <time>2013-02-10T14:52:54Z</time>
      </trkpt>
      <trkpt lat="45.55484" lon="6.72889">
        <ele>1374</ele>
        <time>2013-02-10T14:53:03Z</time>
      </trkpt>
      <trkpt lat="45.55474" lon="6.72897">
        <ele>1375</ele>
        <time>2013-02-10T14:53:03Z</time>
      </trkpt>
      <trkpt lat="45.55474" lon="6.72897">
        <ele>1375</ele>
        <time>2013-02-10T14:53:10Z</time>
      </trkpt>
      <trkpt lat="45.55474" lon="6.72897">
        <ele>1375</ele>
        <time>2013-02-10T14:53:10Z</time>
      </trkpt>
      <trkpt lat="45.55474" lon="6.72897">
        <ele>1375</ele>
        <time>2013-02-10T14:53:27Z</time>
      </trkpt>
      <trkpt lat="45.55459" lon="6.72908">
        <ele>1377</ele>
        <time>2013-02-10T14:53:27Z</time>
      </trkpt>
      <trkpt lat="45.55455" lon="6.72919">
        <ele>1380</ele>
        <time>2013-02-10T14:53:36Z</time>
      </trkpt>
      <trkpt lat="45.55459" lon="6.72944">
        <ele>1380</ele>
        <time>2013-02-10T14:53:52Z</time>
      </trkpt>
      <trkpt lat="45.55468" lon="6.72967">
        <ele>1380</ele>
        <time>2013-02-10T14:54:12Z</time>
      </trkpt>
      <trkpt lat="45.55471" lon="6.72988">
        <ele>1380</ele>
        <time>2013-02-10T14:54:25Z</time>
      </trkpt>
      <trkpt lat="45.55474" lon="6.73011">
        <ele>1384</ele>
        <time>2013-02-10T14:54:40Z</time>
      </trkpt>
      <trkpt lat="45.55478" lon="6.7302">
        <ele>1384</ele>
        <time>2013-02-10T14:54:47Z</time>
      </trkpt>
      <trkpt lat="45.55478" lon="6.7302">
        <ele>1384</ele>
        <time>2013-02-10T14:54:55Z</time>
      </trkpt>
      <trkpt lat="45.55478" lon="6.7302">
        <ele>1384</ele>
        <time>2013-02-10T14:55:07Z</time>
      </trkpt>
    </trkseg>
  </trk>
</gpx>